<?xml version="1.0" encoding="UTF-8" standalone="no" ?>
<gpx xmlns="http://www.topografix.com/GPX/1/1" xmlns:xsi="http://www.w3.org/2001/XMLSchema-instance" xsi:schemaLocation="http://www.topografix.com/GPX/1/1 http://www.topografix.com/GPX/1/1/gpx.xsd" version="1.1" creator="VisuGPX - https://www.visugpx.com">
  <metadata>
    <name>crossey Tençon 24k 800m</name>
  </metadata>
  <trk>
    <name><![CDATA[crossey rando sympa]]></name>
    <trkseg>
      <trkpt lat="45.37846" lon="5.6465">
        <ele>460.59</ele>
        <time>2017-11-26T08:58:18Z</time>
      </trkpt>
      <trkpt lat="45.37846" lon="5.6465">
        <ele>460.46</ele>
        <time>2017-11-26T08:58:20Z</time>
      </trkpt>
      <trkpt lat="45.37847" lon="5.6465">
        <ele>460.55</ele>
        <time>2017-11-26T08:58:50Z</time>
      </trkpt>
      <trkpt lat="45.37851" lon="5.64649">
        <ele>461</ele>
        <time>2017-11-26T09:01:14Z</time>
      </trkpt>
      <trkpt lat="45.37852" lon="5.64645">
        <ele>461</ele>
        <time>2017-11-26T09:02:39Z</time>
      </trkpt>
      <trkpt lat="45.37852" lon="5.64644">
        <ele>472.76</ele>
        <time>2017-11-26T09:03:06Z</time>
      </trkpt>
      <trkpt lat="45.37852" lon="5.64645">
        <ele>471.72</ele>
        <time>2017-11-26T09:03:50Z</time>
      </trkpt>
      <trkpt lat="45.37854" lon="5.64643">
        <ele>471.88</ele>
        <time>2017-11-26T09:04:53Z</time>
      </trkpt>
      <trkpt lat="45.37851" lon="5.64641">
        <ele>471.88</ele>
        <time>2017-11-26T09:04:57Z</time>
      </trkpt>
      <trkpt lat="45.37846" lon="5.64637">
        <ele>472.43</ele>
        <time>2017-11-26T09:05:12Z</time>
      </trkpt>
      <trkpt lat="45.37845" lon="5.64631">
        <ele>472.44</ele>
        <time>2017-11-26T09:05:28Z</time>
      </trkpt>
      <trkpt lat="45.37845" lon="5.6463">
        <ele>472.41</ele>
        <time>2017-11-26T09:05:34Z</time>
      </trkpt>
      <trkpt lat="45.37856" lon="5.64601">
        <ele>472.32</ele>
        <time>2017-11-26T09:05:45Z</time>
      </trkpt>
      <trkpt lat="45.3788" lon="5.64541">
        <ele>472.07</ele>
        <time>2017-11-26T09:05:57Z</time>
      </trkpt>
      <trkpt lat="45.3788" lon="5.64535">
        <ele>472.07</ele>
        <time>2017-11-26T09:05:58Z</time>
      </trkpt>
      <trkpt lat="45.37878" lon="5.64493">
        <ele>471.9</ele>
        <time>2017-11-26T09:06:05Z</time>
      </trkpt>
      <trkpt lat="45.37877" lon="5.64487">
        <ele>471.89</ele>
        <time>2017-11-26T09:06:06Z</time>
      </trkpt>
      <trkpt lat="45.37876" lon="5.64475">
        <ele>471.8</ele>
        <time>2017-11-26T09:06:08Z</time>
      </trkpt>
      <trkpt lat="45.37876" lon="5.64468">
        <ele>471.75</ele>
        <time>2017-11-26T09:06:09Z</time>
      </trkpt>
      <trkpt lat="45.37876" lon="5.64463">
        <ele>471.73</ele>
        <time>2017-11-26T09:06:10Z</time>
      </trkpt>
      <trkpt lat="45.37877" lon="5.64458">
        <ele>471.72</ele>
        <time>2017-11-26T09:06:11Z</time>
      </trkpt>
      <trkpt lat="45.37877" lon="5.64453">
        <ele>471.72</ele>
        <time>2017-11-26T09:06:12Z</time>
      </trkpt>
      <trkpt lat="45.37877" lon="5.64449">
        <ele>471.73</ele>
        <time>2017-11-26T09:06:13Z</time>
      </trkpt>
      <trkpt lat="45.37874" lon="5.64446">
        <ele>471.74</ele>
        <time>2017-11-26T09:06:14Z</time>
      </trkpt>
      <trkpt lat="45.37871" lon="5.64443">
        <ele>471.74</ele>
        <time>2017-11-26T09:06:15Z</time>
      </trkpt>
      <trkpt lat="45.37868" lon="5.64439">
        <ele>471.74</ele>
        <time>2017-11-26T09:06:16Z</time>
      </trkpt>
      <trkpt lat="45.37866" lon="5.64435">
        <ele>471.71</ele>
        <time>2017-11-26T09:06:17Z</time>
      </trkpt>
      <trkpt lat="45.37863" lon="5.6443">
        <ele>471.64</ele>
        <time>2017-11-26T09:06:18Z</time>
      </trkpt>
      <trkpt lat="45.37814" lon="5.64313">
        <ele>470.39</ele>
        <time>2017-11-26T09:06:36Z</time>
      </trkpt>
      <trkpt lat="45.37762" lon="5.6422">
        <ele>469.59</ele>
        <time>2017-11-26T09:06:52Z</time>
      </trkpt>
      <trkpt lat="45.37698" lon="5.64132">
        <ele>469.22</ele>
        <time>2017-11-26T09:07:09Z</time>
      </trkpt>
      <trkpt lat="45.37649" lon="5.64019">
        <ele>468.48</ele>
        <time>2017-11-26T09:07:26Z</time>
      </trkpt>
      <trkpt lat="45.37626" lon="5.63883">
        <ele>467.63</ele>
        <time>2017-11-26T09:07:44Z</time>
      </trkpt>
      <trkpt lat="45.3762" lon="5.63852">
        <ele>467.45</ele>
        <time>2017-11-26T09:07:48Z</time>
      </trkpt>
      <trkpt lat="45.37618" lon="5.63845">
        <ele>467.38</ele>
        <time>2017-11-26T09:07:49Z</time>
      </trkpt>
      <trkpt lat="45.37616" lon="5.63838">
        <ele>467.3</ele>
        <time>2017-11-26T09:07:50Z</time>
      </trkpt>
      <trkpt lat="45.37613" lon="5.63832">
        <ele>467.25</ele>
        <time>2017-11-26T09:07:51Z</time>
      </trkpt>
      <trkpt lat="45.37609" lon="5.63827">
        <ele>467.2</ele>
        <time>2017-11-26T09:07:52Z</time>
      </trkpt>
      <trkpt lat="45.37605" lon="5.63822">
        <ele>467.16</ele>
        <time>2017-11-26T09:07:53Z</time>
      </trkpt>
      <trkpt lat="45.37591" lon="5.63809">
        <ele>466.78</ele>
        <time>2017-11-26T09:07:56Z</time>
      </trkpt>
      <trkpt lat="45.37586" lon="5.63807">
        <ele>466.35</ele>
        <time>2017-11-26T09:07:57Z</time>
      </trkpt>
      <trkpt lat="45.3758" lon="5.63805">
        <ele>466.18</ele>
        <time>2017-11-26T09:07:58Z</time>
      </trkpt>
      <trkpt lat="45.37574" lon="5.63804">
        <ele>465.98</ele>
        <time>2017-11-26T09:07:59Z</time>
      </trkpt>
      <trkpt lat="45.37568" lon="5.63803">
        <ele>465.78</ele>
        <time>2017-11-26T09:08:00Z</time>
      </trkpt>
      <trkpt lat="45.37538" lon="5.63798">
        <ele>465.04</ele>
        <time>2017-11-26T09:08:05Z</time>
      </trkpt>
      <trkpt lat="45.37533" lon="5.63797">
        <ele>464.9</ele>
        <time>2017-11-26T09:08:06Z</time>
      </trkpt>
      <trkpt lat="45.37515" lon="5.63795">
        <ele>464.44</ele>
        <time>2017-11-26T09:08:09Z</time>
      </trkpt>
      <trkpt lat="45.37454" lon="5.63784">
        <ele>463.38</ele>
        <time>2017-11-26T09:08:20Z</time>
      </trkpt>
      <trkpt lat="45.37448" lon="5.63782">
        <ele>463.23</ele>
        <time>2017-11-26T09:08:21Z</time>
      </trkpt>
      <trkpt lat="45.37444" lon="5.63778">
        <ele>463.15</ele>
        <time>2017-11-26T09:08:22Z</time>
      </trkpt>
      <trkpt lat="45.37385" lon="5.63703">
        <ele>461.6</ele>
        <time>2017-11-26T09:08:37Z</time>
      </trkpt>
      <trkpt lat="45.37344" lon="5.63591">
        <ele>459.67</ele>
        <time>2017-11-26T09:08:55Z</time>
      </trkpt>
      <trkpt lat="45.37332" lon="5.63542">
        <ele>460.38</ele>
        <time>2017-11-26T09:09:06Z</time>
      </trkpt>
      <trkpt lat="45.37312" lon="5.63487">
        <ele>459.32</ele>
        <time>2017-11-26T09:09:18Z</time>
      </trkpt>
      <trkpt lat="45.37305" lon="5.63471">
        <ele>458.45</ele>
        <time>2017-11-26T09:09:21Z</time>
      </trkpt>
      <trkpt lat="45.3729" lon="5.63445">
        <ele>456.58</ele>
        <time>2017-11-26T09:09:26Z</time>
      </trkpt>
      <trkpt lat="45.37287" lon="5.63441">
        <ele>456.23</ele>
        <time>2017-11-26T09:09:27Z</time>
      </trkpt>
      <trkpt lat="45.3725" lon="5.63395">
        <ele>452.44</ele>
        <time>2017-11-26T09:09:35Z</time>
      </trkpt>
      <trkpt lat="45.37226" lon="5.63365">
        <ele>449.76</ele>
        <time>2017-11-26T09:09:40Z</time>
      </trkpt>
      <trkpt lat="45.37222" lon="5.63359">
        <ele>449.07</ele>
        <time>2017-11-26T09:09:41Z</time>
      </trkpt>
      <trkpt lat="45.372" lon="5.63316">
        <ele>445.88</ele>
        <time>2017-11-26T09:09:50Z</time>
      </trkpt>
      <trkpt lat="45.37195" lon="5.63304">
        <ele>445.56</ele>
        <time>2017-11-26T09:09:52Z</time>
      </trkpt>
      <trkpt lat="45.37186" lon="5.63279">
        <ele>444.43</ele>
        <time>2017-11-26T09:09:56Z</time>
      </trkpt>
      <trkpt lat="45.37148" lon="5.63202">
        <ele>441.89</ele>
        <time>2017-11-26T09:10:09Z</time>
      </trkpt>
      <trkpt lat="45.37137" lon="5.63182">
        <ele>441.82</ele>
        <time>2017-11-26T09:10:13Z</time>
      </trkpt>
      <trkpt lat="45.37081" lon="5.63124">
        <ele>440.8</ele>
        <time>2017-11-26T09:10:28Z</time>
      </trkpt>
      <trkpt lat="45.37077" lon="5.63122">
        <ele>440.75</ele>
        <time>2017-11-26T09:10:29Z</time>
      </trkpt>
      <trkpt lat="45.37074" lon="5.6312">
        <ele>440.72</ele>
        <time>2017-11-26T09:10:30Z</time>
      </trkpt>
      <trkpt lat="45.37037" lon="5.63095">
        <ele>439.02</ele>
        <time>2017-11-26T09:10:38Z</time>
      </trkpt>
      <trkpt lat="45.37033" lon="5.63091">
        <ele>438.68</ele>
        <time>2017-11-26T09:10:39Z</time>
      </trkpt>
      <trkpt lat="45.37029" lon="5.63088">
        <ele>438.33</ele>
        <time>2017-11-26T09:10:40Z</time>
      </trkpt>
      <trkpt lat="45.37026" lon="5.63086">
        <ele>438</ele>
        <time>2017-11-26T09:10:41Z</time>
      </trkpt>
      <trkpt lat="45.37022" lon="5.63083">
        <ele>437.63</ele>
        <time>2017-11-26T09:10:42Z</time>
      </trkpt>
      <trkpt lat="45.37019" lon="5.63079">
        <ele>437.26</ele>
        <time>2017-11-26T09:10:43Z</time>
      </trkpt>
      <trkpt lat="45.3701" lon="5.63074">
        <ele>436.56</ele>
        <time>2017-11-26T09:10:45Z</time>
      </trkpt>
      <trkpt lat="45.37006" lon="5.63071">
        <ele>436.21</ele>
        <time>2017-11-26T09:10:46Z</time>
      </trkpt>
      <trkpt lat="45.37" lon="5.63069">
        <ele>435.88</ele>
        <time>2017-11-26T09:10:47Z</time>
      </trkpt>
      <trkpt lat="45.36994" lon="5.63066">
        <ele>435.31</ele>
        <time>2017-11-26T09:10:48Z</time>
      </trkpt>
      <trkpt lat="45.36988" lon="5.63063">
        <ele>434.88</ele>
        <time>2017-11-26T09:10:49Z</time>
      </trkpt>
      <trkpt lat="45.36952" lon="5.63049">
        <ele>431.85</ele>
        <time>2017-11-26T09:10:54Z</time>
      </trkpt>
      <trkpt lat="45.36924" lon="5.63037">
        <ele>428.43</ele>
        <time>2017-11-26T09:10:58Z</time>
      </trkpt>
      <trkpt lat="45.36918" lon="5.63034">
        <ele>427.42</ele>
        <time>2017-11-26T09:10:59Z</time>
      </trkpt>
      <trkpt lat="45.36912" lon="5.63031">
        <ele>426.5</ele>
        <time>2017-11-26T09:11:00Z</time>
      </trkpt>
      <trkpt lat="45.36906" lon="5.6303">
        <ele>425.86</ele>
        <time>2017-11-26T09:11:01Z</time>
      </trkpt>
      <trkpt lat="45.36899" lon="5.6303">
        <ele>425.14</ele>
        <time>2017-11-26T09:11:02Z</time>
      </trkpt>
      <trkpt lat="45.36892" lon="5.6303">
        <ele>424.4</ele>
        <time>2017-11-26T09:11:03Z</time>
      </trkpt>
      <trkpt lat="45.36885" lon="5.6303">
        <ele>423.63</ele>
        <time>2017-11-26T09:11:04Z</time>
      </trkpt>
      <trkpt lat="45.36863" lon="5.6303">
        <ele>421.12</ele>
        <time>2017-11-26T09:11:07Z</time>
      </trkpt>
      <trkpt lat="45.36855" lon="5.63028">
        <ele>420.21</ele>
        <time>2017-11-26T09:11:08Z</time>
      </trkpt>
      <trkpt lat="45.36848" lon="5.63024">
        <ele>419.3</ele>
        <time>2017-11-26T09:11:09Z</time>
      </trkpt>
      <trkpt lat="45.36841" lon="5.63019">
        <ele>418.51</ele>
        <time>2017-11-26T09:11:10Z</time>
      </trkpt>
      <trkpt lat="45.36834" lon="5.63013">
        <ele>417.11</ele>
        <time>2017-11-26T09:11:11Z</time>
      </trkpt>
      <trkpt lat="45.36828" lon="5.63005">
        <ele>416.58</ele>
        <time>2017-11-26T09:11:12Z</time>
      </trkpt>
      <trkpt lat="45.36822" lon="5.62997">
        <ele>415.91</ele>
        <time>2017-11-26T09:11:13Z</time>
      </trkpt>
      <trkpt lat="45.36815" lon="5.62988">
        <ele>415.15</ele>
        <time>2017-11-26T09:11:14Z</time>
      </trkpt>
      <trkpt lat="45.36789" lon="5.62944">
        <ele>412.09</ele>
        <time>2017-11-26T09:11:19Z</time>
      </trkpt>
      <trkpt lat="45.36781" lon="5.62926">
        <ele>411.39</ele>
        <time>2017-11-26T09:11:21Z</time>
      </trkpt>
      <trkpt lat="45.36767" lon="5.62892">
        <ele>410.51</ele>
        <time>2017-11-26T09:11:25Z</time>
      </trkpt>
      <trkpt lat="45.36765" lon="5.62884">
        <ele>410.43</ele>
        <time>2017-11-26T09:11:26Z</time>
      </trkpt>
      <trkpt lat="45.36754" lon="5.62855">
        <ele>410.57</ele>
        <time>2017-11-26T09:11:31Z</time>
      </trkpt>
      <trkpt lat="45.36753" lon="5.62849">
        <ele>410.6</ele>
        <time>2017-11-26T09:11:32Z</time>
      </trkpt>
      <trkpt lat="45.36744" lon="5.62823">
        <ele>410.45</ele>
        <time>2017-11-26T09:11:42Z</time>
      </trkpt>
      <trkpt lat="45.36742" lon="5.62818">
        <ele>410.31</ele>
        <time>2017-11-26T09:11:52Z</time>
      </trkpt>
      <trkpt lat="45.36742" lon="5.62816">
        <ele>410.33</ele>
        <time>2017-11-26T09:11:53Z</time>
      </trkpt>
      <trkpt lat="45.36741" lon="5.62814">
        <ele>410.34</ele>
        <time>2017-11-26T09:11:54Z</time>
      </trkpt>
      <trkpt lat="45.36741" lon="5.62811">
        <ele>410.34</ele>
        <time>2017-11-26T09:11:55Z</time>
      </trkpt>
      <trkpt lat="45.3674" lon="5.62808">
        <ele>410.33</ele>
        <time>2017-11-26T09:11:56Z</time>
      </trkpt>
      <trkpt lat="45.36724" lon="5.62758">
        <ele>409.97</ele>
        <time>2017-11-26T09:12:09Z</time>
      </trkpt>
      <trkpt lat="45.36703" lon="5.62695">
        <ele>410.93</ele>
        <time>2017-11-26T09:12:25Z</time>
      </trkpt>
      <trkpt lat="45.36696" lon="5.62617">
        <ele>410.99</ele>
        <time>2017-11-26T09:12:41Z</time>
      </trkpt>
      <trkpt lat="45.36685" lon="5.6254">
        <ele>411.51</ele>
        <time>2017-11-26T09:12:56Z</time>
      </trkpt>
      <trkpt lat="45.36682" lon="5.6252">
        <ele>411.74</ele>
        <time>2017-11-26T09:13:00Z</time>
      </trkpt>
      <trkpt lat="45.36679" lon="5.62518">
        <ele>411.84</ele>
        <time>2017-11-26T09:13:01Z</time>
      </trkpt>
      <trkpt lat="45.36676" lon="5.62518">
        <ele>411.91</ele>
        <time>2017-11-26T09:13:02Z</time>
      </trkpt>
      <trkpt lat="45.36673" lon="5.62519">
        <ele>411.94</ele>
        <time>2017-11-26T09:13:03Z</time>
      </trkpt>
      <trkpt lat="45.36671" lon="5.62523">
        <ele>411.95</ele>
        <time>2017-11-26T09:13:04Z</time>
      </trkpt>
      <trkpt lat="45.36643" lon="5.62549">
        <ele>409.79</ele>
        <time>2017-11-26T09:13:13Z</time>
      </trkpt>
      <trkpt lat="45.36639" lon="5.62553">
        <ele>409.47</ele>
        <time>2017-11-26T09:13:14Z</time>
      </trkpt>
      <trkpt lat="45.36622" lon="5.62564">
        <ele>408.16</ele>
        <time>2017-11-26T09:13:18Z</time>
      </trkpt>
      <trkpt lat="45.36618" lon="5.62565">
        <ele>407.9</ele>
        <time>2017-11-26T09:13:19Z</time>
      </trkpt>
      <trkpt lat="45.36614" lon="5.62564">
        <ele>407.69</ele>
        <time>2017-11-26T09:13:20Z</time>
      </trkpt>
      <trkpt lat="45.36609" lon="5.62563">
        <ele>407.54</ele>
        <time>2017-11-26T09:13:21Z</time>
      </trkpt>
      <trkpt lat="45.36605" lon="5.62562">
        <ele>407.44</ele>
        <time>2017-11-26T09:13:22Z</time>
      </trkpt>
      <trkpt lat="45.36569" lon="5.62566">
        <ele>407.76</ele>
        <time>2017-11-26T09:13:32Z</time>
      </trkpt>
      <trkpt lat="45.36539" lon="5.62573">
        <ele>410.32</ele>
        <time>2017-11-26T09:13:45Z</time>
      </trkpt>
      <trkpt lat="45.36515" lon="5.62584">
        <ele>412.22</ele>
        <time>2017-11-26T09:13:59Z</time>
      </trkpt>
      <trkpt lat="45.36489" lon="5.62594">
        <ele>414.06</ele>
        <time>2017-11-26T09:14:12Z</time>
      </trkpt>
      <trkpt lat="45.36476" lon="5.62596">
        <ele>415.45</ele>
        <time>2017-11-26T09:14:20Z</time>
      </trkpt>
      <trkpt lat="45.36474" lon="5.62596">
        <ele>415.61</ele>
        <time>2017-11-26T09:14:21Z</time>
      </trkpt>
      <trkpt lat="45.36472" lon="5.62595">
        <ele>415.75</ele>
        <time>2017-11-26T09:14:22Z</time>
      </trkpt>
      <trkpt lat="45.36463" lon="5.62591">
        <ele>416.64</ele>
        <time>2017-11-26T09:14:28Z</time>
      </trkpt>
      <trkpt lat="45.36462" lon="5.6259">
        <ele>416.79</ele>
        <time>2017-11-26T09:14:29Z</time>
      </trkpt>
      <trkpt lat="45.36461" lon="5.62589">
        <ele>416.96</ele>
        <time>2017-11-26T09:14:30Z</time>
      </trkpt>
      <trkpt lat="45.36459" lon="5.62588">
        <ele>417.16</ele>
        <time>2017-11-26T09:14:31Z</time>
      </trkpt>
      <trkpt lat="45.36448" lon="5.62581">
        <ele>418.52</ele>
        <time>2017-11-26T09:14:39Z</time>
      </trkpt>
      <trkpt lat="45.36447" lon="5.62579">
        <ele>418.63</ele>
        <time>2017-11-26T09:14:40Z</time>
      </trkpt>
      <trkpt lat="45.36432" lon="5.62562">
        <ele>417.6</ele>
        <time>2017-11-26T09:14:52Z</time>
      </trkpt>
      <trkpt lat="45.36431" lon="5.62558">
        <ele>417.44</ele>
        <time>2017-11-26T09:15:20Z</time>
      </trkpt>
      <trkpt lat="45.36419" lon="5.62545">
        <ele>417.14</ele>
        <time>2017-11-26T09:15:57Z</time>
      </trkpt>
      <trkpt lat="45.36409" lon="5.62535">
        <ele>417.35</ele>
        <time>2017-11-26T09:16:03Z</time>
      </trkpt>
      <trkpt lat="45.36407" lon="5.62534">
        <ele>417.41</ele>
        <time>2017-11-26T09:16:04Z</time>
      </trkpt>
      <trkpt lat="45.36405" lon="5.62533">
        <ele>417.59</ele>
        <time>2017-11-26T09:16:05Z</time>
      </trkpt>
      <trkpt lat="45.36377" lon="5.62521">
        <ele>419.47</ele>
        <time>2017-11-26T09:16:19Z</time>
      </trkpt>
      <trkpt lat="45.36349" lon="5.62522">
        <ele>422.52</ele>
        <time>2017-11-26T09:16:35Z</time>
      </trkpt>
      <trkpt lat="45.36331" lon="5.62528">
        <ele>424.88</ele>
        <time>2017-11-26T09:16:48Z</time>
      </trkpt>
      <trkpt lat="45.36315" lon="5.62525">
        <ele>427.98</ele>
        <time>2017-11-26T09:16:58Z</time>
      </trkpt>
      <trkpt lat="45.36286" lon="5.62512">
        <ele>430.41</ele>
        <time>2017-11-26T09:17:17Z</time>
      </trkpt>
      <trkpt lat="45.36266" lon="5.62498">
        <ele>432.75</ele>
        <time>2017-11-26T09:17:31Z</time>
      </trkpt>
      <trkpt lat="45.36257" lon="5.62493">
        <ele>433.53</ele>
        <time>2017-11-26T09:17:38Z</time>
      </trkpt>
      <trkpt lat="45.36234" lon="5.62482">
        <ele>434.41</ele>
        <time>2017-11-26T09:17:50Z</time>
      </trkpt>
      <trkpt lat="45.36204" lon="5.6247">
        <ele>431.77</ele>
        <time>2017-11-26T09:18:00Z</time>
      </trkpt>
      <trkpt lat="45.36201" lon="5.62472">
        <ele>431.25</ele>
        <time>2017-11-26T09:18:01Z</time>
      </trkpt>
      <trkpt lat="45.36194" lon="5.62478">
        <ele>430.31</ele>
        <time>2017-11-26T09:18:03Z</time>
      </trkpt>
      <trkpt lat="45.36191" lon="5.62482">
        <ele>429.9</ele>
        <time>2017-11-26T09:18:04Z</time>
      </trkpt>
      <trkpt lat="45.36188" lon="5.62486">
        <ele>429.53</ele>
        <time>2017-11-26T09:18:05Z</time>
      </trkpt>
      <trkpt lat="45.36187" lon="5.62492">
        <ele>429</ele>
        <time>2017-11-26T09:18:06Z</time>
      </trkpt>
      <trkpt lat="45.36185" lon="5.62498">
        <ele>428.8</ele>
        <time>2017-11-26T09:18:07Z</time>
      </trkpt>
      <trkpt lat="45.36184" lon="5.62504">
        <ele>428.58</ele>
        <time>2017-11-26T09:18:08Z</time>
      </trkpt>
      <trkpt lat="45.36186" lon="5.62574">
        <ele>427.14</ele>
        <time>2017-11-26T09:18:21Z</time>
      </trkpt>
      <trkpt lat="45.3617" lon="5.62628">
        <ele>426.57</ele>
        <time>2017-11-26T09:18:33Z</time>
      </trkpt>
      <trkpt lat="45.36159" lon="5.62662">
        <ele>428.22</ele>
        <time>2017-11-26T09:18:45Z</time>
      </trkpt>
      <trkpt lat="45.36129" lon="5.62698">
        <ele>429.6</ele>
        <time>2017-11-26T09:18:59Z</time>
      </trkpt>
      <trkpt lat="45.36111" lon="5.62726">
        <ele>429.28</ele>
        <time>2017-11-26T09:19:08Z</time>
      </trkpt>
      <trkpt lat="45.36086" lon="5.62757">
        <ele>430.25</ele>
        <time>2017-11-26T09:19:19Z</time>
      </trkpt>
      <trkpt lat="45.36086" lon="5.6276">
        <ele>430.34</ele>
        <time>2017-11-26T09:19:20Z</time>
      </trkpt>
      <trkpt lat="45.36086" lon="5.62764">
        <ele>430.42</ele>
        <time>2017-11-26T09:19:21Z</time>
      </trkpt>
      <trkpt lat="45.36093" lon="5.62801">
        <ele>433.41</ele>
        <time>2017-11-26T09:19:36Z</time>
      </trkpt>
      <trkpt lat="45.36105" lon="5.62824">
        <ele>436.51</ele>
        <time>2017-11-26T09:19:46Z</time>
      </trkpt>
      <trkpt lat="45.36116" lon="5.62862">
        <ele>439.45</ele>
        <time>2017-11-26T09:20:01Z</time>
      </trkpt>
      <trkpt lat="45.36134" lon="5.62903">
        <ele>440.25</ele>
        <time>2017-11-26T09:20:16Z</time>
      </trkpt>
      <trkpt lat="45.36169" lon="5.62941">
        <ele>440.9</ele>
        <time>2017-11-26T09:20:33Z</time>
      </trkpt>
      <trkpt lat="45.36207" lon="5.62977">
        <ele>439.31</ele>
        <time>2017-11-26T09:20:47Z</time>
      </trkpt>
      <trkpt lat="45.36233" lon="5.63005">
        <ele>438.17</ele>
        <time>2017-11-26T09:20:58Z</time>
      </trkpt>
      <trkpt lat="45.36257" lon="5.63033">
        <ele>438.66</ele>
        <time>2017-11-26T09:21:09Z</time>
      </trkpt>
      <trkpt lat="45.36265" lon="5.63078">
        <ele>438.22</ele>
        <time>2017-11-26T09:21:22Z</time>
      </trkpt>
      <trkpt lat="45.36262" lon="5.63114">
        <ele>435.89</ele>
        <time>2017-11-26T09:21:31Z</time>
      </trkpt>
      <trkpt lat="45.36261" lon="5.63115">
        <ele>435.85</ele>
        <time>2017-11-26T09:21:32Z</time>
      </trkpt>
      <trkpt lat="45.36259" lon="5.63117">
        <ele>435.89</ele>
        <time>2017-11-26T09:21:33Z</time>
      </trkpt>
      <trkpt lat="45.36258" lon="5.63118">
        <ele>435.98</ele>
        <time>2017-11-26T09:21:34Z</time>
      </trkpt>
      <trkpt lat="45.36257" lon="5.63118">
        <ele>436.18</ele>
        <time>2017-11-26T09:21:35Z</time>
      </trkpt>
      <trkpt lat="45.36255" lon="5.63119">
        <ele>436.42</ele>
        <time>2017-11-26T09:21:36Z</time>
      </trkpt>
      <trkpt lat="45.36254" lon="5.63119">
        <ele>436.68</ele>
        <time>2017-11-26T09:21:37Z</time>
      </trkpt>
      <trkpt lat="45.36227" lon="5.63098">
        <ele>439.07</ele>
        <time>2017-11-26T09:21:53Z</time>
      </trkpt>
      <trkpt lat="45.36202" lon="5.63072">
        <ele>440.25</ele>
        <time>2017-11-26T09:22:10Z</time>
      </trkpt>
      <trkpt lat="45.36174" lon="5.63047">
        <ele>439.53</ele>
        <time>2017-11-26T09:22:25Z</time>
      </trkpt>
      <trkpt lat="45.36145" lon="5.63022">
        <ele>439.75</ele>
        <time>2017-11-26T09:22:38Z</time>
      </trkpt>
      <trkpt lat="45.36092" lon="5.6299">
        <ele>441.94</ele>
        <time>2017-11-26T09:22:58Z</time>
      </trkpt>
      <trkpt lat="45.36045" lon="5.62984">
        <ele>442.76</ele>
        <time>2017-11-26T09:23:16Z</time>
      </trkpt>
      <trkpt lat="45.36002" lon="5.62977">
        <ele>442.75</ele>
        <time>2017-11-26T09:23:34Z</time>
      </trkpt>
      <trkpt lat="45.35983" lon="5.62975">
        <ele>442.62</ele>
        <time>2017-11-26T09:23:42Z</time>
      </trkpt>
      <trkpt lat="45.35981" lon="5.62978">
        <ele>442.52</ele>
        <time>2017-11-26T09:23:43Z</time>
      </trkpt>
      <trkpt lat="45.3598" lon="5.62981">
        <ele>442.43</ele>
        <time>2017-11-26T09:23:44Z</time>
      </trkpt>
      <trkpt lat="45.35981" lon="5.62985">
        <ele>442.29</ele>
        <time>2017-11-26T09:23:45Z</time>
      </trkpt>
      <trkpt lat="45.35981" lon="5.62989">
        <ele>442.19</ele>
        <time>2017-11-26T09:23:46Z</time>
      </trkpt>
      <trkpt lat="45.35982" lon="5.62992">
        <ele>442.12</ele>
        <time>2017-11-26T09:23:47Z</time>
      </trkpt>
      <trkpt lat="45.35982" lon="5.62995">
        <ele>442.04</ele>
        <time>2017-11-26T09:23:48Z</time>
      </trkpt>
      <trkpt lat="45.35978" lon="5.63056">
        <ele>443.87</ele>
        <time>2017-11-26T09:24:08Z</time>
      </trkpt>
      <trkpt lat="45.35961" lon="5.631">
        <ele>446.19</ele>
        <time>2017-11-26T09:24:25Z</time>
      </trkpt>
      <trkpt lat="45.3594" lon="5.63136">
        <ele>449.03</ele>
        <time>2017-11-26T09:24:43Z</time>
      </trkpt>
      <trkpt lat="45.35914" lon="5.63163">
        <ele>451.98</ele>
        <time>2017-11-26T09:25:03Z</time>
      </trkpt>
      <trkpt lat="45.35901" lon="5.6319">
        <ele>455.11</ele>
        <time>2017-11-26T09:25:19Z</time>
      </trkpt>
      <trkpt lat="45.35888" lon="5.63222">
        <ele>458.22</ele>
        <time>2017-11-26T09:25:37Z</time>
      </trkpt>
      <trkpt lat="45.35881" lon="5.63264">
        <ele>461.18</ele>
        <time>2017-11-26T09:25:58Z</time>
      </trkpt>
      <trkpt lat="45.35867" lon="5.63301">
        <ele>463.9</ele>
        <time>2017-11-26T09:26:19Z</time>
      </trkpt>
      <trkpt lat="45.35855" lon="5.63328">
        <ele>467.01</ele>
        <time>2017-11-26T09:26:37Z</time>
      </trkpt>
      <trkpt lat="45.35851" lon="5.63352">
        <ele>469.51</ele>
        <time>2017-11-26T09:26:52Z</time>
      </trkpt>
      <trkpt lat="45.3585" lon="5.63355">
        <ele>469.85</ele>
        <time>2017-11-26T09:26:54Z</time>
      </trkpt>
      <trkpt lat="45.35849" lon="5.63356">
        <ele>470.07</ele>
        <time>2017-11-26T09:26:55Z</time>
      </trkpt>
      <trkpt lat="45.35849" lon="5.63358">
        <ele>470.3</ele>
        <time>2017-11-26T09:26:56Z</time>
      </trkpt>
      <trkpt lat="45.35849" lon="5.6336">
        <ele>470.49</ele>
        <time>2017-11-26T09:26:57Z</time>
      </trkpt>
      <trkpt lat="45.35849" lon="5.63362">
        <ele>470.64</ele>
        <time>2017-11-26T09:26:58Z</time>
      </trkpt>
      <trkpt lat="45.35842" lon="5.63385">
        <ele>473.67</ele>
        <time>2017-11-26T09:27:11Z</time>
      </trkpt>
      <trkpt lat="45.35842" lon="5.63387">
        <ele>473.94</ele>
        <time>2017-11-26T09:27:12Z</time>
      </trkpt>
      <trkpt lat="45.35841" lon="5.63389">
        <ele>474.16</ele>
        <time>2017-11-26T09:27:13Z</time>
      </trkpt>
      <trkpt lat="45.35838" lon="5.63412">
        <ele>477.16</ele>
        <time>2017-11-26T09:27:26Z</time>
      </trkpt>
      <trkpt lat="45.35839" lon="5.63414">
        <ele>477.61</ele>
        <time>2017-11-26T09:27:27Z</time>
      </trkpt>
      <trkpt lat="45.35837" lon="5.63421">
        <ele>478.5</ele>
        <time>2017-11-26T09:27:31Z</time>
      </trkpt>
      <trkpt lat="45.35837" lon="5.63423">
        <ele>478.77</ele>
        <time>2017-11-26T09:27:32Z</time>
      </trkpt>
      <trkpt lat="45.35834" lon="5.63446">
        <ele>481.97</ele>
        <time>2017-11-26T09:27:44Z</time>
      </trkpt>
      <trkpt lat="45.35835" lon="5.63449">
        <ele>482.4</ele>
        <time>2017-11-26T09:27:46Z</time>
      </trkpt>
      <trkpt lat="45.35837" lon="5.63474">
        <ele>485.41</ele>
        <time>2017-11-26T09:28:00Z</time>
      </trkpt>
      <trkpt lat="45.35838" lon="5.63501">
        <ele>488.03</ele>
        <time>2017-11-26T09:28:17Z</time>
      </trkpt>
      <trkpt lat="45.35844" lon="5.63527">
        <ele>490.41</ele>
        <time>2017-11-26T09:28:33Z</time>
      </trkpt>
      <trkpt lat="45.35849" lon="5.63549">
        <ele>492.92</ele>
        <time>2017-11-26T09:28:49Z</time>
      </trkpt>
      <trkpt lat="45.35857" lon="5.63557">
        <ele>494.13</ele>
        <time>2017-11-26T09:28:56Z</time>
      </trkpt>
      <trkpt lat="45.35871" lon="5.6358">
        <ele>496.83</ele>
        <time>2017-11-26T09:29:11Z</time>
      </trkpt>
      <trkpt lat="45.35881" lon="5.63596">
        <ele>498.09</ele>
        <time>2017-11-26T09:29:22Z</time>
      </trkpt>
      <trkpt lat="45.35883" lon="5.63599">
        <ele>498.37</ele>
        <time>2017-11-26T09:29:24Z</time>
      </trkpt>
      <trkpt lat="45.35895" lon="5.63623">
        <ele>501.13</ele>
        <time>2017-11-26T09:29:40Z</time>
      </trkpt>
      <trkpt lat="45.35896" lon="5.63625">
        <ele>501.28</ele>
        <time>2017-11-26T09:29:41Z</time>
      </trkpt>
      <trkpt lat="45.35897" lon="5.63627">
        <ele>501.46</ele>
        <time>2017-11-26T09:29:42Z</time>
      </trkpt>
      <trkpt lat="45.35911" lon="5.63654">
        <ele>504.31</ele>
        <time>2017-11-26T09:29:59Z</time>
      </trkpt>
      <trkpt lat="45.35919" lon="5.63684">
        <ele>506.64</ele>
        <time>2017-11-26T09:30:16Z</time>
      </trkpt>
      <trkpt lat="45.3592" lon="5.63688">
        <ele>507.05</ele>
        <time>2017-11-26T09:30:18Z</time>
      </trkpt>
      <trkpt lat="45.35921" lon="5.6369">
        <ele>507.18</ele>
        <time>2017-11-26T09:30:19Z</time>
      </trkpt>
      <trkpt lat="45.35921" lon="5.63692">
        <ele>507.3</ele>
        <time>2017-11-26T09:30:20Z</time>
      </trkpt>
      <trkpt lat="45.35922" lon="5.63694">
        <ele>507.46</ele>
        <time>2017-11-26T09:30:21Z</time>
      </trkpt>
      <trkpt lat="45.35922" lon="5.63696">
        <ele>507.62</ele>
        <time>2017-11-26T09:30:22Z</time>
      </trkpt>
      <trkpt lat="45.35925" lon="5.637">
        <ele>507.98</ele>
        <time>2017-11-26T09:30:25Z</time>
      </trkpt>
      <trkpt lat="45.35928" lon="5.63703">
        <ele>508.36</ele>
        <time>2017-11-26T09:30:28Z</time>
      </trkpt>
      <trkpt lat="45.35929" lon="5.63706">
        <ele>508.2</ele>
        <time>2017-11-26T09:30:47Z</time>
      </trkpt>
      <trkpt lat="45.35933" lon="5.63709">
        <ele>508.19</ele>
        <time>2017-11-26T09:31:31Z</time>
      </trkpt>
      <trkpt lat="45.35933" lon="5.63706">
        <ele>508.25</ele>
        <time>2017-11-26T09:32:18Z</time>
      </trkpt>
      <trkpt lat="45.35929" lon="5.63706">
        <ele>508.25</ele>
        <time>2017-11-26T09:33:11Z</time>
      </trkpt>
      <trkpt lat="45.35933" lon="5.63704">
        <ele>508.25</ele>
        <time>2017-11-26T09:33:54Z</time>
      </trkpt>
      <trkpt lat="45.35931" lon="5.63708">
        <ele>508.25</ele>
        <time>2017-11-26T09:35:13Z</time>
      </trkpt>
      <trkpt lat="45.3593" lon="5.63709">
        <ele>508.25</ele>
        <time>2017-11-26T09:35:38Z</time>
      </trkpt>
      <trkpt lat="45.35932" lon="5.6372">
        <ele>508.25</ele>
        <time>2017-11-26T09:36:06Z</time>
      </trkpt>
      <trkpt lat="45.35937" lon="5.63744">
        <ele>509.73</ele>
        <time>2017-11-26T09:36:19Z</time>
      </trkpt>
      <trkpt lat="45.35937" lon="5.63745">
        <ele>509.85</ele>
        <time>2017-11-26T09:36:20Z</time>
      </trkpt>
      <trkpt lat="45.35939" lon="5.63759">
        <ele>510.87</ele>
        <time>2017-11-26T09:36:28Z</time>
      </trkpt>
      <trkpt lat="45.35939" lon="5.63761">
        <ele>511</ele>
        <time>2017-11-26T09:36:29Z</time>
      </trkpt>
      <trkpt lat="45.3594" lon="5.63763">
        <ele>511.12</ele>
        <time>2017-11-26T09:36:30Z</time>
      </trkpt>
      <trkpt lat="45.3594" lon="5.63765">
        <ele>511.24</ele>
        <time>2017-11-26T09:36:31Z</time>
      </trkpt>
      <trkpt lat="45.3594" lon="5.63768">
        <ele>511.34</ele>
        <time>2017-11-26T09:36:32Z</time>
      </trkpt>
      <trkpt lat="45.35941" lon="5.63789">
        <ele>512.38</ele>
        <time>2017-11-26T09:36:42Z</time>
      </trkpt>
      <trkpt lat="45.35942" lon="5.63791">
        <ele>512.5</ele>
        <time>2017-11-26T09:36:43Z</time>
      </trkpt>
      <trkpt lat="45.35942" lon="5.63793">
        <ele>512.65</ele>
        <time>2017-11-26T09:36:44Z</time>
      </trkpt>
      <trkpt lat="45.35942" lon="5.63795">
        <ele>512.79</ele>
        <time>2017-11-26T09:36:45Z</time>
      </trkpt>
      <trkpt lat="45.3594" lon="5.63817">
        <ele>515.12</ele>
        <time>2017-11-26T09:36:57Z</time>
      </trkpt>
      <trkpt lat="45.35938" lon="5.63838">
        <ele>517.44</ele>
        <time>2017-11-26T09:37:08Z</time>
      </trkpt>
      <trkpt lat="45.35938" lon="5.6384">
        <ele>517.68</ele>
        <time>2017-11-26T09:37:09Z</time>
      </trkpt>
      <trkpt lat="45.35938" lon="5.63843">
        <ele>517.95</ele>
        <time>2017-11-26T09:37:10Z</time>
      </trkpt>
      <trkpt lat="45.35941" lon="5.63849">
        <ele>519.54</ele>
        <time>2017-11-26T09:37:14Z</time>
      </trkpt>
      <trkpt lat="45.35952" lon="5.63866">
        <ele>522.56</ele>
        <time>2017-11-26T09:37:27Z</time>
      </trkpt>
      <trkpt lat="45.35971" lon="5.63885">
        <ele>524.43</ele>
        <time>2017-11-26T09:37:43Z</time>
      </trkpt>
      <trkpt lat="45.35975" lon="5.63889">
        <ele>524.6</ele>
        <time>2017-11-26T09:38:00Z</time>
      </trkpt>
      <trkpt lat="45.35978" lon="5.63891">
        <ele>524.45</ele>
        <time>2017-11-26T09:38:29Z</time>
      </trkpt>
      <trkpt lat="45.35994" lon="5.63901">
        <ele>524.66</ele>
        <time>2017-11-26T09:38:56Z</time>
      </trkpt>
      <trkpt lat="45.35995" lon="5.63903">
        <ele>524.68</ele>
        <time>2017-11-26T09:38:57Z</time>
      </trkpt>
      <trkpt lat="45.35997" lon="5.63905">
        <ele>524.71</ele>
        <time>2017-11-26T09:38:58Z</time>
      </trkpt>
      <trkpt lat="45.36021" lon="5.63926">
        <ele>525.51</ele>
        <time>2017-11-26T09:39:12Z</time>
      </trkpt>
      <trkpt lat="45.36048" lon="5.63948">
        <ele>525.41</ele>
        <time>2017-11-26T09:39:26Z</time>
      </trkpt>
      <trkpt lat="45.36078" lon="5.63966">
        <ele>524.23</ele>
        <time>2017-11-26T09:39:37Z</time>
      </trkpt>
      <trkpt lat="45.36092" lon="5.63972">
        <ele>523.85</ele>
        <time>2017-11-26T09:39:42Z</time>
      </trkpt>
      <trkpt lat="45.36096" lon="5.63974">
        <ele>523.78</ele>
        <time>2017-11-26T09:39:43Z</time>
      </trkpt>
      <trkpt lat="45.36098" lon="5.63976">
        <ele>523.71</ele>
        <time>2017-11-26T09:39:44Z</time>
      </trkpt>
      <trkpt lat="45.36102" lon="5.63978">
        <ele>523.61</ele>
        <time>2017-11-26T09:39:45Z</time>
      </trkpt>
      <trkpt lat="45.36105" lon="5.63981">
        <ele>523.5</ele>
        <time>2017-11-26T09:39:46Z</time>
      </trkpt>
      <trkpt lat="45.36108" lon="5.63986">
        <ele>523.25</ele>
        <time>2017-11-26T09:39:47Z</time>
      </trkpt>
      <trkpt lat="45.3611" lon="5.63991">
        <ele>522.9</ele>
        <time>2017-11-26T09:39:48Z</time>
      </trkpt>
      <trkpt lat="45.36113" lon="5.64003">
        <ele>522.05</ele>
        <time>2017-11-26T09:39:50Z</time>
      </trkpt>
      <trkpt lat="45.3612" lon="5.64015">
        <ele>521.17</ele>
        <time>2017-11-26T09:39:56Z</time>
      </trkpt>
      <trkpt lat="45.36126" lon="5.64038">
        <ele>521.39</ele>
        <time>2017-11-26T09:40:16Z</time>
      </trkpt>
      <trkpt lat="45.36134" lon="5.64065">
        <ele>523.46</ele>
        <time>2017-11-26T09:40:30Z</time>
      </trkpt>
      <trkpt lat="45.36135" lon="5.6409">
        <ele>526.68</ele>
        <time>2017-11-26T09:40:43Z</time>
      </trkpt>
      <trkpt lat="45.36141" lon="5.64113">
        <ele>529.72</ele>
        <time>2017-11-26T09:40:54Z</time>
      </trkpt>
      <trkpt lat="45.36147" lon="5.64131">
        <ele>532.2</ele>
        <time>2017-11-26T09:41:04Z</time>
      </trkpt>
      <trkpt lat="45.36151" lon="5.6414">
        <ele>532.77</ele>
        <time>2017-11-26T09:41:08Z</time>
      </trkpt>
      <trkpt lat="45.36166" lon="5.64157">
        <ele>532.51</ele>
        <time>2017-11-26T09:41:23Z</time>
      </trkpt>
      <trkpt lat="45.36179" lon="5.64172">
        <ele>532.09</ele>
        <time>2017-11-26T09:41:37Z</time>
      </trkpt>
      <trkpt lat="45.3618" lon="5.64174">
        <ele>532.05</ele>
        <time>2017-11-26T09:41:38Z</time>
      </trkpt>
      <trkpt lat="45.36184" lon="5.64178">
        <ele>531.97</ele>
        <time>2017-11-26T09:41:41Z</time>
      </trkpt>
      <trkpt lat="45.36203" lon="5.64214">
        <ele>531.74</ele>
        <time>2017-11-26T09:41:56Z</time>
      </trkpt>
      <trkpt lat="45.36219" lon="5.64242">
        <ele>533.26</ele>
        <time>2017-11-26T09:42:09Z</time>
      </trkpt>
      <trkpt lat="45.36227" lon="5.64252">
        <ele>533.08</ele>
        <time>2017-11-26T09:42:14Z</time>
      </trkpt>
      <trkpt lat="45.36241" lon="5.64265">
        <ele>532.28</ele>
        <time>2017-11-26T09:42:20Z</time>
      </trkpt>
      <trkpt lat="45.36262" lon="5.6432">
        <ele>529.59</ele>
        <time>2017-11-26T09:42:34Z</time>
      </trkpt>
      <trkpt lat="45.36269" lon="5.64332">
        <ele>529.12</ele>
        <time>2017-11-26T09:42:39Z</time>
      </trkpt>
      <trkpt lat="45.36275" lon="5.64346">
        <ele>528.91</ele>
        <time>2017-11-26T09:42:45Z</time>
      </trkpt>
      <trkpt lat="45.36288" lon="5.64392">
        <ele>528.05</ele>
        <time>2017-11-26T09:42:58Z</time>
      </trkpt>
      <trkpt lat="45.36288" lon="5.64396">
        <ele>528</ele>
        <time>2017-11-26T09:42:59Z</time>
      </trkpt>
      <trkpt lat="45.36284" lon="5.644">
        <ele>527.83</ele>
        <time>2017-11-26T09:43:04Z</time>
      </trkpt>
      <trkpt lat="45.36283" lon="5.64399">
        <ele>527.84</ele>
        <time>2017-11-26T09:43:05Z</time>
      </trkpt>
      <trkpt lat="45.36281" lon="5.64399">
        <ele>527.87</ele>
        <time>2017-11-26T09:43:06Z</time>
      </trkpt>
      <trkpt lat="45.36274" lon="5.64397">
        <ele>528.25</ele>
        <time>2017-11-26T09:43:11Z</time>
      </trkpt>
      <trkpt lat="45.36271" lon="5.64394">
        <ele>528.33</ele>
        <time>2017-11-26T09:43:13Z</time>
      </trkpt>
      <trkpt lat="45.3627" lon="5.64393">
        <ele>528.35</ele>
        <time>2017-11-26T09:43:14Z</time>
      </trkpt>
      <trkpt lat="45.36268" lon="5.64391">
        <ele>528.36</ele>
        <time>2017-11-26T09:43:15Z</time>
      </trkpt>
      <trkpt lat="45.36267" lon="5.6439">
        <ele>528.37</ele>
        <time>2017-11-26T09:43:16Z</time>
      </trkpt>
      <trkpt lat="45.36265" lon="5.64388">
        <ele>528.39</ele>
        <time>2017-11-26T09:43:17Z</time>
      </trkpt>
      <trkpt lat="45.36263" lon="5.64387">
        <ele>528.41</ele>
        <time>2017-11-26T09:43:18Z</time>
      </trkpt>
      <trkpt lat="45.36261" lon="5.64386">
        <ele>528.45</ele>
        <time>2017-11-26T09:43:19Z</time>
      </trkpt>
      <trkpt lat="45.3626" lon="5.64385">
        <ele>528.46</ele>
        <time>2017-11-26T09:43:20Z</time>
      </trkpt>
      <trkpt lat="45.36258" lon="5.64385">
        <ele>528.46</ele>
        <time>2017-11-26T09:43:21Z</time>
      </trkpt>
      <trkpt lat="45.36255" lon="5.64385">
        <ele>528.45</ele>
        <time>2017-11-26T09:43:22Z</time>
      </trkpt>
      <trkpt lat="45.36252" lon="5.64387">
        <ele>528.41</ele>
        <time>2017-11-26T09:43:23Z</time>
      </trkpt>
      <trkpt lat="45.36245" lon="5.64388">
        <ele>528.25</ele>
        <time>2017-11-26T09:43:26Z</time>
      </trkpt>
      <trkpt lat="45.36234" lon="5.64377">
        <ele>528.12</ele>
        <time>2017-11-26T09:43:33Z</time>
      </trkpt>
      <trkpt lat="45.36219" lon="5.64363">
        <ele>528.18</ele>
        <time>2017-11-26T09:43:41Z</time>
      </trkpt>
      <trkpt lat="45.36217" lon="5.64361">
        <ele>528.21</ele>
        <time>2017-11-26T09:43:42Z</time>
      </trkpt>
      <trkpt lat="45.36216" lon="5.64358">
        <ele>528.26</ele>
        <time>2017-11-26T09:43:43Z</time>
      </trkpt>
      <trkpt lat="45.36214" lon="5.64355">
        <ele>528.27</ele>
        <time>2017-11-26T09:43:44Z</time>
      </trkpt>
      <trkpt lat="45.36213" lon="5.64353">
        <ele>528.27</ele>
        <time>2017-11-26T09:43:45Z</time>
      </trkpt>
      <trkpt lat="45.36211" lon="5.64352">
        <ele>528.24</ele>
        <time>2017-11-26T09:43:46Z</time>
      </trkpt>
      <trkpt lat="45.36208" lon="5.6435">
        <ele>528.21</ele>
        <time>2017-11-26T09:43:47Z</time>
      </trkpt>
      <trkpt lat="45.36206" lon="5.64349">
        <ele>528.17</ele>
        <time>2017-11-26T09:43:48Z</time>
      </trkpt>
      <trkpt lat="45.36204" lon="5.64347">
        <ele>528.14</ele>
        <time>2017-11-26T09:43:49Z</time>
      </trkpt>
      <trkpt lat="45.36203" lon="5.64345">
        <ele>528.12</ele>
        <time>2017-11-26T09:43:50Z</time>
      </trkpt>
      <trkpt lat="45.36189" lon="5.64328">
        <ele>528.25</ele>
        <time>2017-11-26T09:43:58Z</time>
      </trkpt>
      <trkpt lat="45.36186" lon="5.64328">
        <ele>528.25</ele>
        <time>2017-11-26T09:43:59Z</time>
      </trkpt>
      <trkpt lat="45.36184" lon="5.64327">
        <ele>528.24</ele>
        <time>2017-11-26T09:44:00Z</time>
      </trkpt>
      <trkpt lat="45.36181" lon="5.64327">
        <ele>528.22</ele>
        <time>2017-11-26T09:44:01Z</time>
      </trkpt>
      <trkpt lat="45.36179" lon="5.64327">
        <ele>528.21</ele>
        <time>2017-11-26T09:44:02Z</time>
      </trkpt>
      <trkpt lat="45.36177" lon="5.64326">
        <ele>528.21</ele>
        <time>2017-11-26T09:44:03Z</time>
      </trkpt>
      <trkpt lat="45.36175" lon="5.64325">
        <ele>528.21</ele>
        <time>2017-11-26T09:44:04Z</time>
      </trkpt>
      <trkpt lat="45.36173" lon="5.64323">
        <ele>528.21</ele>
        <time>2017-11-26T09:44:05Z</time>
      </trkpt>
      <trkpt lat="45.36171" lon="5.64321">
        <ele>528.21</ele>
        <time>2017-11-26T09:44:06Z</time>
      </trkpt>
      <trkpt lat="45.36169" lon="5.6432">
        <ele>528.23</ele>
        <time>2017-11-26T09:44:07Z</time>
      </trkpt>
      <trkpt lat="45.36167" lon="5.64318">
        <ele>528.23</ele>
        <time>2017-11-26T09:44:08Z</time>
      </trkpt>
      <trkpt lat="45.36164" lon="5.64317">
        <ele>528.25</ele>
        <time>2017-11-26T09:44:09Z</time>
      </trkpt>
      <trkpt lat="45.36163" lon="5.64315">
        <ele>528.27</ele>
        <time>2017-11-26T09:44:10Z</time>
      </trkpt>
      <trkpt lat="45.36161" lon="5.64314">
        <ele>528.31</ele>
        <time>2017-11-26T09:44:11Z</time>
      </trkpt>
      <trkpt lat="45.3616" lon="5.64313">
        <ele>528.34</ele>
        <time>2017-11-26T09:44:12Z</time>
      </trkpt>
      <trkpt lat="45.36156" lon="5.64311">
        <ele>528.37</ele>
        <time>2017-11-26T09:44:14Z</time>
      </trkpt>
      <trkpt lat="45.36155" lon="5.6431">
        <ele>528.39</ele>
        <time>2017-11-26T09:44:15Z</time>
      </trkpt>
      <trkpt lat="45.36147" lon="5.64307">
        <ele>528.54</ele>
        <time>2017-11-26T09:44:19Z</time>
      </trkpt>
      <trkpt lat="45.36127" lon="5.64303">
        <ele>530.52</ele>
        <time>2017-11-26T09:44:30Z</time>
      </trkpt>
      <trkpt lat="45.36105" lon="5.64286">
        <ele>531.88</ele>
        <time>2017-11-26T09:44:47Z</time>
      </trkpt>
      <trkpt lat="45.36087" lon="5.6427">
        <ele>533.73</ele>
        <time>2017-11-26T09:44:58Z</time>
      </trkpt>
      <trkpt lat="45.36085" lon="5.64268">
        <ele>533.76</ele>
        <time>2017-11-26T09:44:59Z</time>
      </trkpt>
      <trkpt lat="45.36077" lon="5.64258">
        <ele>533.93</ele>
        <time>2017-11-26T09:45:04Z</time>
      </trkpt>
      <trkpt lat="45.36075" lon="5.64255">
        <ele>533.93</ele>
        <time>2017-11-26T09:45:05Z</time>
      </trkpt>
      <trkpt lat="45.36073" lon="5.64253">
        <ele>533.94</ele>
        <time>2017-11-26T09:45:06Z</time>
      </trkpt>
      <trkpt lat="45.36072" lon="5.6425">
        <ele>533.96</ele>
        <time>2017-11-26T09:45:07Z</time>
      </trkpt>
      <trkpt lat="45.36064" lon="5.64242">
        <ele>534.08</ele>
        <time>2017-11-26T09:45:12Z</time>
      </trkpt>
      <trkpt lat="45.36061" lon="5.6424">
        <ele>534.14</ele>
        <time>2017-11-26T09:45:13Z</time>
      </trkpt>
      <trkpt lat="45.36058" lon="5.64236">
        <ele>534.27</ele>
        <time>2017-11-26T09:45:15Z</time>
      </trkpt>
      <trkpt lat="45.36037" lon="5.64212">
        <ele>535.96</ele>
        <time>2017-11-26T09:45:28Z</time>
      </trkpt>
      <trkpt lat="45.36017" lon="5.64182">
        <ele>538.5</ele>
        <time>2017-11-26T09:45:43Z</time>
      </trkpt>
      <trkpt lat="45.36016" lon="5.6418">
        <ele>538.64</ele>
        <time>2017-11-26T09:45:44Z</time>
      </trkpt>
      <trkpt lat="45.36009" lon="5.6417">
        <ele>539.53</ele>
        <time>2017-11-26T09:46:02Z</time>
      </trkpt>
      <trkpt lat="45.36002" lon="5.64157">
        <ele>539.4</ele>
        <time>2017-11-26T09:46:12Z</time>
      </trkpt>
      <trkpt lat="45.36001" lon="5.64154">
        <ele>539.32</ele>
        <time>2017-11-26T09:46:13Z</time>
      </trkpt>
      <trkpt lat="45.36" lon="5.64151">
        <ele>539.22</ele>
        <time>2017-11-26T09:46:14Z</time>
      </trkpt>
      <trkpt lat="45.35998" lon="5.64148">
        <ele>539.08</ele>
        <time>2017-11-26T09:46:15Z</time>
      </trkpt>
      <trkpt lat="45.35996" lon="5.64145">
        <ele>538.95</ele>
        <time>2017-11-26T09:46:16Z</time>
      </trkpt>
      <trkpt lat="45.35985" lon="5.64124">
        <ele>538.17</ele>
        <time>2017-11-26T09:46:21Z</time>
      </trkpt>
      <trkpt lat="45.35972" lon="5.64112">
        <ele>537.65</ele>
        <time>2017-11-26T09:46:30Z</time>
      </trkpt>
      <trkpt lat="45.35971" lon="5.64109">
        <ele>537.79</ele>
        <time>2017-11-26T09:46:31Z</time>
      </trkpt>
      <trkpt lat="45.35952" lon="5.64067">
        <ele>534.96</ele>
        <time>2017-11-26T09:46:42Z</time>
      </trkpt>
      <trkpt lat="45.35932" lon="5.64034">
        <ele>531.7</ele>
        <time>2017-11-26T09:46:53Z</time>
      </trkpt>
      <trkpt lat="45.35924" lon="5.6402">
        <ele>530.4</ele>
        <time>2017-11-26T09:46:58Z</time>
      </trkpt>
      <trkpt lat="45.35922" lon="5.6402">
        <ele>530.04</ele>
        <time>2017-11-26T09:46:59Z</time>
      </trkpt>
      <trkpt lat="45.3592" lon="5.64021">
        <ele>529.93</ele>
        <time>2017-11-26T09:47:01Z</time>
      </trkpt>
      <trkpt lat="45.35897" lon="5.64023">
        <ele>532.61</ele>
        <time>2017-11-26T09:47:15Z</time>
      </trkpt>
      <trkpt lat="45.3588" lon="5.64023">
        <ele>535.67</ele>
        <time>2017-11-26T09:47:26Z</time>
      </trkpt>
      <trkpt lat="45.35865" lon="5.6402">
        <ele>538.81</ele>
        <time>2017-11-26T09:47:38Z</time>
      </trkpt>
      <trkpt lat="45.35858" lon="5.64012">
        <ele>540.32</ele>
        <time>2017-11-26T09:47:45Z</time>
      </trkpt>
      <trkpt lat="45.35843" lon="5.63981">
        <ele>539.93</ele>
        <time>2017-11-26T09:47:58Z</time>
      </trkpt>
      <trkpt lat="45.35831" lon="5.63966">
        <ele>540.96</ele>
        <time>2017-11-26T09:48:05Z</time>
      </trkpt>
      <trkpt lat="45.35814" lon="5.63951">
        <ele>541.81</ele>
        <time>2017-11-26T09:48:18Z</time>
      </trkpt>
      <trkpt lat="45.35801" lon="5.63916">
        <ele>541.25</ele>
        <time>2017-11-26T09:48:30Z</time>
      </trkpt>
      <trkpt lat="45.35792" lon="5.63906">
        <ele>540.53</ele>
        <time>2017-11-26T09:48:35Z</time>
      </trkpt>
      <trkpt lat="45.35779" lon="5.63867">
        <ele>537.24</ele>
        <time>2017-11-26T09:48:46Z</time>
      </trkpt>
      <trkpt lat="45.35775" lon="5.63855">
        <ele>536.52</ele>
        <time>2017-11-26T09:48:50Z</time>
      </trkpt>
      <trkpt lat="45.35771" lon="5.63848">
        <ele>536.32</ele>
        <time>2017-11-26T09:48:52Z</time>
      </trkpt>
      <trkpt lat="45.35752" lon="5.63833">
        <ele>535.89</ele>
        <time>2017-11-26T09:49:03Z</time>
      </trkpt>
      <trkpt lat="45.3575" lon="5.63832">
        <ele>535.89</ele>
        <time>2017-11-26T09:49:04Z</time>
      </trkpt>
      <trkpt lat="45.35741" lon="5.63825">
        <ele>536.02</ele>
        <time>2017-11-26T09:49:08Z</time>
      </trkpt>
      <trkpt lat="45.35725" lon="5.63802">
        <ele>536.79</ele>
        <time>2017-11-26T09:49:18Z</time>
      </trkpt>
      <trkpt lat="45.35724" lon="5.638">
        <ele>536.88</ele>
        <time>2017-11-26T09:49:19Z</time>
      </trkpt>
      <trkpt lat="45.35715" lon="5.63792">
        <ele>536.97</ele>
        <time>2017-11-26T09:49:25Z</time>
      </trkpt>
      <trkpt lat="45.35704" lon="5.63782">
        <ele>537.24</ele>
        <time>2017-11-26T09:49:48Z</time>
      </trkpt>
      <trkpt lat="45.357" lon="5.63771">
        <ele>537.2</ele>
        <time>2017-11-26T09:50:01Z</time>
      </trkpt>
      <trkpt lat="45.35693" lon="5.63757">
        <ele>537.52</ele>
        <time>2017-11-26T09:50:08Z</time>
      </trkpt>
      <trkpt lat="45.35674" lon="5.63733">
        <ele>537.88</ele>
        <time>2017-11-26T09:50:22Z</time>
      </trkpt>
      <trkpt lat="45.35672" lon="5.63731">
        <ele>537.87</ele>
        <time>2017-11-26T09:50:23Z</time>
      </trkpt>
      <trkpt lat="45.35654" lon="5.63708">
        <ele>538.68</ele>
        <time>2017-11-26T09:50:35Z</time>
      </trkpt>
      <trkpt lat="45.35645" lon="5.63704">
        <ele>538.93</ele>
        <time>2017-11-26T09:50:39Z</time>
      </trkpt>
      <trkpt lat="45.35635" lon="5.63697">
        <ele>539.41</ele>
        <time>2017-11-26T09:50:45Z</time>
      </trkpt>
      <trkpt lat="45.35628" lon="5.63688">
        <ele>539.45</ele>
        <time>2017-11-26T09:50:49Z</time>
      </trkpt>
      <trkpt lat="45.35624" lon="5.63677">
        <ele>539.23</ele>
        <time>2017-11-26T09:50:51Z</time>
      </trkpt>
      <trkpt lat="45.35612" lon="5.63652">
        <ele>536.26</ele>
        <time>2017-11-26T09:50:55Z</time>
      </trkpt>
      <trkpt lat="45.35607" lon="5.63651">
        <ele>535.09</ele>
        <time>2017-11-26T09:50:56Z</time>
      </trkpt>
      <trkpt lat="45.35602" lon="5.63649">
        <ele>534.04</ele>
        <time>2017-11-26T09:50:57Z</time>
      </trkpt>
      <trkpt lat="45.35597" lon="5.63647">
        <ele>533.31</ele>
        <time>2017-11-26T09:50:58Z</time>
      </trkpt>
      <trkpt lat="45.35593" lon="5.63646">
        <ele>532.82</ele>
        <time>2017-11-26T09:50:59Z</time>
      </trkpt>
      <trkpt lat="45.35589" lon="5.63644">
        <ele>532.56</ele>
        <time>2017-11-26T09:51:00Z</time>
      </trkpt>
      <trkpt lat="45.3558" lon="5.63634">
        <ele>532.93</ele>
        <time>2017-11-26T09:51:09Z</time>
      </trkpt>
      <trkpt lat="45.35559" lon="5.63618">
        <ele>533.17</ele>
        <time>2017-11-26T09:51:27Z</time>
      </trkpt>
      <trkpt lat="45.35529" lon="5.63595">
        <ele>534.07</ele>
        <time>2017-11-26T09:51:43Z</time>
      </trkpt>
      <trkpt lat="45.35502" lon="5.63581">
        <ele>535.07</ele>
        <time>2017-11-26T09:51:56Z</time>
      </trkpt>
      <trkpt lat="45.35494" lon="5.63577">
        <ele>535.18</ele>
        <time>2017-11-26T09:52:00Z</time>
      </trkpt>
      <trkpt lat="45.35492" lon="5.63576">
        <ele>535.19</ele>
        <time>2017-11-26T09:52:01Z</time>
      </trkpt>
      <trkpt lat="45.35466" lon="5.63559">
        <ele>535.72</ele>
        <time>2017-11-26T09:52:12Z</time>
      </trkpt>
      <trkpt lat="45.35441" lon="5.63552">
        <ele>536.23</ele>
        <time>2017-11-26T09:52:22Z</time>
      </trkpt>
      <trkpt lat="45.35439" lon="5.63552">
        <ele>536.28</ele>
        <time>2017-11-26T09:52:23Z</time>
      </trkpt>
      <trkpt lat="45.35437" lon="5.63552">
        <ele>536.32</ele>
        <time>2017-11-26T09:52:24Z</time>
      </trkpt>
      <trkpt lat="45.35405" lon="5.63545">
        <ele>537.44</ele>
        <time>2017-11-26T09:52:36Z</time>
      </trkpt>
      <trkpt lat="45.35381" lon="5.63538">
        <ele>538.96</ele>
        <time>2017-11-26T09:52:48Z</time>
      </trkpt>
      <trkpt lat="45.35361" lon="5.63519">
        <ele>539.51</ele>
        <time>2017-11-26T09:52:59Z</time>
      </trkpt>
      <trkpt lat="45.35346" lon="5.63505">
        <ele>540.65</ele>
        <time>2017-11-26T09:53:08Z</time>
      </trkpt>
      <trkpt lat="45.35344" lon="5.63503">
        <ele>540.67</ele>
        <time>2017-11-26T09:53:09Z</time>
      </trkpt>
      <trkpt lat="45.35342" lon="5.63501">
        <ele>540.65</ele>
        <time>2017-11-26T09:53:10Z</time>
      </trkpt>
      <trkpt lat="45.3534" lon="5.635">
        <ele>540.64</ele>
        <time>2017-11-26T09:53:11Z</time>
      </trkpt>
      <trkpt lat="45.35338" lon="5.63499">
        <ele>540.64</ele>
        <time>2017-11-26T09:53:12Z</time>
      </trkpt>
      <trkpt lat="45.35308" lon="5.63486">
        <ele>541.6</ele>
        <time>2017-11-26T09:53:26Z</time>
      </trkpt>
      <trkpt lat="45.35275" lon="5.63474">
        <ele>542.66</ele>
        <time>2017-11-26T09:53:39Z</time>
      </trkpt>
      <trkpt lat="45.35237" lon="5.63461">
        <ele>543.91</ele>
        <time>2017-11-26T09:53:54Z</time>
      </trkpt>
      <trkpt lat="45.35206" lon="5.63442">
        <ele>544.03</ele>
        <time>2017-11-26T09:54:06Z</time>
      </trkpt>
      <trkpt lat="45.35173" lon="5.63427">
        <ele>545.07</ele>
        <time>2017-11-26T09:54:19Z</time>
      </trkpt>
      <trkpt lat="45.35142" lon="5.63409">
        <ele>546.17</ele>
        <time>2017-11-26T09:54:31Z</time>
      </trkpt>
      <trkpt lat="45.35114" lon="5.63398">
        <ele>547.36</ele>
        <time>2017-11-26T09:54:45Z</time>
      </trkpt>
      <trkpt lat="45.35106" lon="5.63392">
        <ele>547.56</ele>
        <time>2017-11-26T09:54:50Z</time>
      </trkpt>
      <trkpt lat="45.35069" lon="5.63375">
        <ele>547.05</ele>
        <time>2017-11-26T09:55:02Z</time>
      </trkpt>
      <trkpt lat="45.35052" lon="5.63368">
        <ele>547.02</ele>
        <time>2017-11-26T09:55:08Z</time>
      </trkpt>
      <trkpt lat="45.35028" lon="5.6335">
        <ele>548.58</ele>
        <time>2017-11-26T09:55:20Z</time>
      </trkpt>
      <trkpt lat="45.35024" lon="5.63346">
        <ele>548.98</ele>
        <time>2017-11-26T09:55:22Z</time>
      </trkpt>
      <trkpt lat="45.35023" lon="5.63343">
        <ele>549.16</ele>
        <time>2017-11-26T09:55:23Z</time>
      </trkpt>
      <trkpt lat="45.35021" lon="5.6334">
        <ele>549.37</ele>
        <time>2017-11-26T09:55:24Z</time>
      </trkpt>
      <trkpt lat="45.35019" lon="5.63337">
        <ele>549.55</ele>
        <time>2017-11-26T09:55:25Z</time>
      </trkpt>
      <trkpt lat="45.35018" lon="5.63334">
        <ele>549.75</ele>
        <time>2017-11-26T09:55:26Z</time>
      </trkpt>
      <trkpt lat="45.35017" lon="5.63331">
        <ele>549.93</ele>
        <time>2017-11-26T09:55:27Z</time>
      </trkpt>
      <trkpt lat="45.35015" lon="5.63328">
        <ele>550.11</ele>
        <time>2017-11-26T09:55:28Z</time>
      </trkpt>
      <trkpt lat="45.34992" lon="5.63298">
        <ele>549.35</ele>
        <time>2017-11-26T09:55:38Z</time>
      </trkpt>
      <trkpt lat="45.34963" lon="5.63288">
        <ele>549.2</ele>
        <time>2017-11-26T09:55:47Z</time>
      </trkpt>
      <trkpt lat="45.3496" lon="5.63288">
        <ele>549.27</ele>
        <time>2017-11-26T09:55:48Z</time>
      </trkpt>
      <trkpt lat="45.34957" lon="5.63289">
        <ele>549.33</ele>
        <time>2017-11-26T09:55:49Z</time>
      </trkpt>
      <trkpt lat="45.34922" lon="5.63292">
        <ele>550.41</ele>
        <time>2017-11-26T09:56:00Z</time>
      </trkpt>
      <trkpt lat="45.34887" lon="5.63292">
        <ele>552.36</ele>
        <time>2017-11-26T09:56:14Z</time>
      </trkpt>
      <trkpt lat="45.34857" lon="5.63297">
        <ele>553.57</ele>
        <time>2017-11-26T09:56:26Z</time>
      </trkpt>
      <trkpt lat="45.34855" lon="5.63297">
        <ele>553.69</ele>
        <time>2017-11-26T09:56:27Z</time>
      </trkpt>
      <trkpt lat="45.34826" lon="5.63299">
        <ele>554.18</ele>
        <time>2017-11-26T09:56:38Z</time>
      </trkpt>
      <trkpt lat="45.34783" lon="5.63305">
        <ele>555.06</ele>
        <time>2017-11-26T09:56:54Z</time>
      </trkpt>
      <trkpt lat="45.34755" lon="5.63318">
        <ele>556.25</ele>
        <time>2017-11-26T09:57:07Z</time>
      </trkpt>
      <trkpt lat="45.34729" lon="5.63329">
        <ele>558.5</ele>
        <time>2017-11-26T09:57:21Z</time>
      </trkpt>
      <trkpt lat="45.34722" lon="5.6333">
        <ele>558.74</ele>
        <time>2017-11-26T09:57:45Z</time>
      </trkpt>
      <trkpt lat="45.34703" lon="5.63341">
        <ele>560.04</ele>
        <time>2017-11-26T09:57:58Z</time>
      </trkpt>
      <trkpt lat="45.34681" lon="5.63355">
        <ele>561.12</ele>
        <time>2017-11-26T09:58:11Z</time>
      </trkpt>
      <trkpt lat="45.34656" lon="5.63366">
        <ele>562.79</ele>
        <time>2017-11-26T09:58:24Z</time>
      </trkpt>
      <trkpt lat="45.34648" lon="5.63366">
        <ele>563.3</ele>
        <time>2017-11-26T09:58:28Z</time>
      </trkpt>
      <trkpt lat="45.34634" lon="5.63371">
        <ele>563.03</ele>
        <time>2017-11-26T09:58:34Z</time>
      </trkpt>
      <trkpt lat="45.34631" lon="5.63373">
        <ele>562.71</ele>
        <time>2017-11-26T09:58:35Z</time>
      </trkpt>
      <trkpt lat="45.34629" lon="5.63375">
        <ele>562.37</ele>
        <time>2017-11-26T09:58:36Z</time>
      </trkpt>
      <trkpt lat="45.34604" lon="5.63393">
        <ele>559.26</ele>
        <time>2017-11-26T09:58:44Z</time>
      </trkpt>
      <trkpt lat="45.34595" lon="5.634">
        <ele>556.29</ele>
        <time>2017-11-26T09:58:55Z</time>
      </trkpt>
      <trkpt lat="45.3459" lon="5.634">
        <ele>556.27</ele>
        <time>2017-11-26T09:59:19Z</time>
      </trkpt>
      <trkpt lat="45.34587" lon="5.63401">
        <ele>556.16</ele>
        <time>2017-11-26T09:59:24Z</time>
      </trkpt>
      <trkpt lat="45.34579" lon="5.63395">
        <ele>555.8</ele>
        <time>2017-11-26T09:59:28Z</time>
      </trkpt>
      <trkpt lat="45.34577" lon="5.63391">
        <ele>555.62</ele>
        <time>2017-11-26T09:59:29Z</time>
      </trkpt>
      <trkpt lat="45.34574" lon="5.63387">
        <ele>555.37</ele>
        <time>2017-11-26T09:59:30Z</time>
      </trkpt>
      <trkpt lat="45.34565" lon="5.63375">
        <ele>554.61</ele>
        <time>2017-11-26T09:59:33Z</time>
      </trkpt>
      <trkpt lat="45.34562" lon="5.63371">
        <ele>554.3</ele>
        <time>2017-11-26T09:59:34Z</time>
      </trkpt>
      <trkpt lat="45.34558" lon="5.63366">
        <ele>553.96</ele>
        <time>2017-11-26T09:59:35Z</time>
      </trkpt>
      <trkpt lat="45.34554" lon="5.63361">
        <ele>553.6</ele>
        <time>2017-11-26T09:59:36Z</time>
      </trkpt>
      <trkpt lat="45.3455" lon="5.63355">
        <ele>553.19</ele>
        <time>2017-11-26T09:59:37Z</time>
      </trkpt>
      <trkpt lat="45.34525" lon="5.63325">
        <ele>550.57</ele>
        <time>2017-11-26T09:59:42Z</time>
      </trkpt>
      <trkpt lat="45.34515" lon="5.63309">
        <ele>549.26</ele>
        <time>2017-11-26T09:59:44Z</time>
      </trkpt>
      <trkpt lat="45.34511" lon="5.633">
        <ele>548.57</ele>
        <time>2017-11-26T09:59:45Z</time>
      </trkpt>
      <trkpt lat="45.34508" lon="5.63291">
        <ele>547.93</ele>
        <time>2017-11-26T09:59:46Z</time>
      </trkpt>
      <trkpt lat="45.34506" lon="5.6328">
        <ele>547.35</ele>
        <time>2017-11-26T09:59:47Z</time>
      </trkpt>
      <trkpt lat="45.34506" lon="5.6327">
        <ele>546.74</ele>
        <time>2017-11-26T09:59:48Z</time>
      </trkpt>
      <trkpt lat="45.34507" lon="5.6326">
        <ele>546.11</ele>
        <time>2017-11-26T09:59:49Z</time>
      </trkpt>
      <trkpt lat="45.34509" lon="5.63251">
        <ele>545.48</ele>
        <time>2017-11-26T09:59:50Z</time>
      </trkpt>
      <trkpt lat="45.34512" lon="5.63244">
        <ele>544.83</ele>
        <time>2017-11-26T09:59:51Z</time>
      </trkpt>
      <trkpt lat="45.34515" lon="5.63239">
        <ele>544.2</ele>
        <time>2017-11-26T09:59:52Z</time>
      </trkpt>
      <trkpt lat="45.34518" lon="5.63234">
        <ele>543.61</ele>
        <time>2017-11-26T09:59:53Z</time>
      </trkpt>
      <trkpt lat="45.34521" lon="5.63228">
        <ele>543.1</ele>
        <time>2017-11-26T09:59:54Z</time>
      </trkpt>
      <trkpt lat="45.34523" lon="5.63224">
        <ele>542.6</ele>
        <time>2017-11-26T09:59:55Z</time>
      </trkpt>
      <trkpt lat="45.34523" lon="5.63222">
        <ele>541.35</ele>
        <time>2017-11-26T10:00:02Z</time>
      </trkpt>
      <trkpt lat="45.3452" lon="5.63226">
        <ele>541.46</ele>
        <time>2017-11-26T10:00:05Z</time>
      </trkpt>
      <trkpt lat="45.3452" lon="5.63227">
        <ele>541.47</ele>
        <time>2017-11-26T10:00:06Z</time>
      </trkpt>
      <trkpt lat="45.34516" lon="5.63229">
        <ele>541.63</ele>
        <time>2017-11-26T10:00:14Z</time>
      </trkpt>
      <trkpt lat="45.34515" lon="5.63227">
        <ele>541.63</ele>
        <time>2017-11-26T10:00:15Z</time>
      </trkpt>
      <trkpt lat="45.34514" lon="5.63225">
        <ele>541.61</ele>
        <time>2017-11-26T10:00:16Z</time>
      </trkpt>
      <trkpt lat="45.34513" lon="5.63222">
        <ele>541.53</ele>
        <time>2017-11-26T10:00:17Z</time>
      </trkpt>
      <trkpt lat="45.34513" lon="5.63219">
        <ele>541.4</ele>
        <time>2017-11-26T10:00:18Z</time>
      </trkpt>
      <trkpt lat="45.34512" lon="5.63215">
        <ele>541.21</ele>
        <time>2017-11-26T10:00:19Z</time>
      </trkpt>
      <trkpt lat="45.3451" lon="5.63212">
        <ele>541.04</ele>
        <time>2017-11-26T10:00:20Z</time>
      </trkpt>
      <trkpt lat="45.34481" lon="5.63151">
        <ele>537.69</ele>
        <time>2017-11-26T10:00:33Z</time>
      </trkpt>
      <trkpt lat="45.34464" lon="5.63121">
        <ele>534.8</ele>
        <time>2017-11-26T10:00:39Z</time>
      </trkpt>
      <trkpt lat="45.34461" lon="5.63114">
        <ele>534.28</ele>
        <time>2017-11-26T10:00:40Z</time>
      </trkpt>
      <trkpt lat="45.34452" lon="5.63093">
        <ele>532.14</ele>
        <time>2017-11-26T10:00:43Z</time>
      </trkpt>
      <trkpt lat="45.34448" lon="5.63088">
        <ele>531.15</ele>
        <time>2017-11-26T10:00:44Z</time>
      </trkpt>
      <trkpt lat="45.34433" lon="5.63066">
        <ele>527.74</ele>
        <time>2017-11-26T10:00:48Z</time>
      </trkpt>
      <trkpt lat="45.34414" lon="5.63045">
        <ele>524.19</ele>
        <time>2017-11-26T10:00:53Z</time>
      </trkpt>
      <trkpt lat="45.34401" lon="5.63035">
        <ele>520.9</ele>
        <time>2017-11-26T10:00:57Z</time>
      </trkpt>
      <trkpt lat="45.34387" lon="5.63021">
        <ele>517.64</ele>
        <time>2017-11-26T10:01:02Z</time>
      </trkpt>
      <trkpt lat="45.34376" lon="5.63009">
        <ele>513.99</ele>
        <time>2017-11-26T10:01:07Z</time>
      </trkpt>
      <trkpt lat="45.34372" lon="5.63005">
        <ele>512.61</ele>
        <time>2017-11-26T10:01:09Z</time>
      </trkpt>
      <trkpt lat="45.34372" lon="5.63001">
        <ele>511.94</ele>
        <time>2017-11-26T10:01:10Z</time>
      </trkpt>
      <trkpt lat="45.34372" lon="5.62997">
        <ele>511.29</ele>
        <time>2017-11-26T10:01:11Z</time>
      </trkpt>
      <trkpt lat="45.34371" lon="5.62993">
        <ele>510.66</ele>
        <time>2017-11-26T10:01:12Z</time>
      </trkpt>
      <trkpt lat="45.3437" lon="5.62987">
        <ele>510.01</ele>
        <time>2017-11-26T10:01:13Z</time>
      </trkpt>
      <trkpt lat="45.34368" lon="5.62982">
        <ele>509.27</ele>
        <time>2017-11-26T10:01:14Z</time>
      </trkpt>
      <trkpt lat="45.34367" lon="5.62977">
        <ele>508.53</ele>
        <time>2017-11-26T10:01:15Z</time>
      </trkpt>
      <trkpt lat="45.34366" lon="5.62972">
        <ele>507.75</ele>
        <time>2017-11-26T10:01:16Z</time>
      </trkpt>
      <trkpt lat="45.3436" lon="5.62956">
        <ele>504.29</ele>
        <time>2017-11-26T10:01:20Z</time>
      </trkpt>
      <trkpt lat="45.34353" lon="5.62941">
        <ele>501.29</ele>
        <time>2017-11-26T10:01:24Z</time>
      </trkpt>
      <trkpt lat="45.34342" lon="5.62928">
        <ele>497.66</ele>
        <time>2017-11-26T10:01:29Z</time>
      </trkpt>
      <trkpt lat="45.3433" lon="5.62912">
        <ele>494.1</ele>
        <time>2017-11-26T10:01:34Z</time>
      </trkpt>
      <trkpt lat="45.3432" lon="5.62893">
        <ele>490.45</ele>
        <time>2017-11-26T10:01:39Z</time>
      </trkpt>
      <trkpt lat="45.34317" lon="5.62887">
        <ele>487.4</ele>
        <time>2017-11-26T10:01:46Z</time>
      </trkpt>
      <trkpt lat="45.34315" lon="5.62884">
        <ele>487.08</ele>
        <time>2017-11-26T10:02:13Z</time>
      </trkpt>
      <trkpt lat="45.3431" lon="5.62877">
        <ele>486.99</ele>
        <time>2017-11-26T10:02:23Z</time>
      </trkpt>
      <trkpt lat="45.34308" lon="5.62874">
        <ele>486.94</ele>
        <time>2017-11-26T10:02:24Z</time>
      </trkpt>
      <trkpt lat="45.34304" lon="5.62869">
        <ele>486.68</ele>
        <time>2017-11-26T10:02:26Z</time>
      </trkpt>
      <trkpt lat="45.34302" lon="5.62867">
        <ele>486.48</ele>
        <time>2017-11-26T10:02:27Z</time>
      </trkpt>
      <trkpt lat="45.34299" lon="5.62866">
        <ele>486.21</ele>
        <time>2017-11-26T10:02:28Z</time>
      </trkpt>
      <trkpt lat="45.3428" lon="5.6286">
        <ele>483.25</ele>
        <time>2017-11-26T10:02:35Z</time>
      </trkpt>
      <trkpt lat="45.34275" lon="5.62857">
        <ele>482.24</ele>
        <time>2017-11-26T10:02:37Z</time>
      </trkpt>
      <trkpt lat="45.34261" lon="5.6284">
        <ele>477.87</ele>
        <time>2017-11-26T10:02:43Z</time>
      </trkpt>
      <trkpt lat="45.34258" lon="5.62837">
        <ele>476.88</ele>
        <time>2017-11-26T10:02:44Z</time>
      </trkpt>
      <trkpt lat="45.34244" lon="5.62839">
        <ele>472.17</ele>
        <time>2017-11-26T10:02:49Z</time>
      </trkpt>
      <trkpt lat="45.34233" lon="5.62847">
        <ele>469.01</ele>
        <time>2017-11-26T10:02:53Z</time>
      </trkpt>
      <trkpt lat="45.34223" lon="5.62851">
        <ele>465.31</ele>
        <time>2017-11-26T10:02:57Z</time>
      </trkpt>
      <trkpt lat="45.34214" lon="5.62851">
        <ele>462.93</ele>
        <time>2017-11-26T10:03:00Z</time>
      </trkpt>
      <trkpt lat="45.34211" lon="5.62841">
        <ele>459.38</ele>
        <time>2017-11-26T10:03:05Z</time>
      </trkpt>
      <trkpt lat="45.34201" lon="5.62828">
        <ele>454.29</ele>
        <time>2017-11-26T10:03:11Z</time>
      </trkpt>
      <trkpt lat="45.34199" lon="5.62825">
        <ele>453.45</ele>
        <time>2017-11-26T10:03:12Z</time>
      </trkpt>
      <trkpt lat="45.34191" lon="5.62811">
        <ele>448.93</ele>
        <time>2017-11-26T10:03:17Z</time>
      </trkpt>
      <trkpt lat="45.34185" lon="5.62802">
        <ele>445.49</ele>
        <time>2017-11-26T10:03:20Z</time>
      </trkpt>
      <trkpt lat="45.34178" lon="5.62791">
        <ele>442.3</ele>
        <time>2017-11-26T10:03:23Z</time>
      </trkpt>
      <trkpt lat="45.34171" lon="5.62781">
        <ele>439.28</ele>
        <time>2017-11-26T10:03:26Z</time>
      </trkpt>
      <trkpt lat="45.34165" lon="5.6277">
        <ele>435.52</ele>
        <time>2017-11-26T10:03:30Z</time>
      </trkpt>
      <trkpt lat="45.34165" lon="5.62766">
        <ele>434.67</ele>
        <time>2017-11-26T10:03:31Z</time>
      </trkpt>
      <trkpt lat="45.34167" lon="5.62761">
        <ele>432.98</ele>
        <time>2017-11-26T10:03:33Z</time>
      </trkpt>
      <trkpt lat="45.34168" lon="5.62759">
        <ele>432.01</ele>
        <time>2017-11-26T10:03:34Z</time>
      </trkpt>
      <trkpt lat="45.34168" lon="5.62757">
        <ele>431.06</ele>
        <time>2017-11-26T10:03:35Z</time>
      </trkpt>
      <trkpt lat="45.34167" lon="5.62755">
        <ele>430.37</ele>
        <time>2017-11-26T10:03:36Z</time>
      </trkpt>
      <trkpt lat="45.34164" lon="5.62754">
        <ele>429.69</ele>
        <time>2017-11-26T10:03:38Z</time>
      </trkpt>
      <trkpt lat="45.34163" lon="5.62754">
        <ele>428.99</ele>
        <time>2017-11-26T10:04:02Z</time>
      </trkpt>
      <trkpt lat="45.3416" lon="5.62755">
        <ele>428.89</ele>
        <time>2017-11-26T10:04:41Z</time>
      </trkpt>
      <trkpt lat="45.34162" lon="5.62755">
        <ele>428.84</ele>
        <time>2017-11-26T10:04:58Z</time>
      </trkpt>
      <trkpt lat="45.34162" lon="5.62755">
        <ele>428.84</ele>
        <time>2017-11-26T10:05:27Z</time>
      </trkpt>
      <trkpt lat="45.34162" lon="5.62753">
        <ele>428.84</ele>
        <time>2017-11-26T10:05:46Z</time>
      </trkpt>
      <trkpt lat="45.34161" lon="5.62753">
        <ele>428.84</ele>
        <time>2017-11-26T10:06:11Z</time>
      </trkpt>
      <trkpt lat="45.34159" lon="5.62753">
        <ele>428.84</ele>
        <time>2017-11-26T10:06:35Z</time>
      </trkpt>
      <trkpt lat="45.34156" lon="5.62749">
        <ele>428.84</ele>
        <time>2017-11-26T10:06:59Z</time>
      </trkpt>
      <trkpt lat="45.34129" lon="5.62763">
        <ele>425.98</ele>
        <time>2017-11-26T10:07:09Z</time>
      </trkpt>
      <trkpt lat="45.34127" lon="5.62768">
        <ele>425.3</ele>
        <time>2017-11-26T10:07:10Z</time>
      </trkpt>
      <trkpt lat="45.34124" lon="5.62774">
        <ele>424.56</ele>
        <time>2017-11-26T10:07:11Z</time>
      </trkpt>
      <trkpt lat="45.34118" lon="5.62792">
        <ele>422.21</ele>
        <time>2017-11-26T10:07:14Z</time>
      </trkpt>
      <trkpt lat="45.34117" lon="5.62799">
        <ele>421.44</ele>
        <time>2017-11-26T10:07:15Z</time>
      </trkpt>
      <trkpt lat="45.34118" lon="5.62832">
        <ele>418.91</ele>
        <time>2017-11-26T10:07:20Z</time>
      </trkpt>
      <trkpt lat="45.34118" lon="5.62838">
        <ele>418.6</ele>
        <time>2017-11-26T10:07:21Z</time>
      </trkpt>
      <trkpt lat="45.34119" lon="5.62843">
        <ele>418.28</ele>
        <time>2017-11-26T10:07:22Z</time>
      </trkpt>
      <trkpt lat="45.34115" lon="5.6288">
        <ele>415.06</ele>
        <time>2017-11-26T10:07:32Z</time>
      </trkpt>
      <trkpt lat="45.34106" lon="5.62899">
        <ele>412</ele>
        <time>2017-11-26T10:07:37Z</time>
      </trkpt>
      <trkpt lat="45.34095" lon="5.62909">
        <ele>408.32</ele>
        <time>2017-11-26T10:07:42Z</time>
      </trkpt>
      <trkpt lat="45.34092" lon="5.62909">
        <ele>407.53</ele>
        <time>2017-11-26T10:07:43Z</time>
      </trkpt>
      <trkpt lat="45.3409" lon="5.62908">
        <ele>406.68</ele>
        <time>2017-11-26T10:07:44Z</time>
      </trkpt>
      <trkpt lat="45.34088" lon="5.62907">
        <ele>405.79</ele>
        <time>2017-11-26T10:07:45Z</time>
      </trkpt>
      <trkpt lat="45.34086" lon="5.62905">
        <ele>404.9</ele>
        <time>2017-11-26T10:07:46Z</time>
      </trkpt>
      <trkpt lat="45.34084" lon="5.62903">
        <ele>404.12</ele>
        <time>2017-11-26T10:07:47Z</time>
      </trkpt>
      <trkpt lat="45.34079" lon="5.629">
        <ele>400.99</ele>
        <time>2017-11-26T10:07:50Z</time>
      </trkpt>
      <trkpt lat="45.34073" lon="5.6289">
        <ele>398.14</ele>
        <time>2017-11-26T10:07:54Z</time>
      </trkpt>
      <trkpt lat="45.34071" lon="5.62888">
        <ele>397.42</ele>
        <time>2017-11-26T10:07:55Z</time>
      </trkpt>
      <trkpt lat="45.34069" lon="5.62884">
        <ele>396.75</ele>
        <time>2017-11-26T10:07:56Z</time>
      </trkpt>
      <trkpt lat="45.34068" lon="5.6288">
        <ele>396.06</ele>
        <time>2017-11-26T10:07:57Z</time>
      </trkpt>
      <trkpt lat="45.34065" lon="5.62878">
        <ele>395.35</ele>
        <time>2017-11-26T10:07:58Z</time>
      </trkpt>
      <trkpt lat="45.34063" lon="5.62878">
        <ele>394.57</ele>
        <time>2017-11-26T10:07:59Z</time>
      </trkpt>
      <trkpt lat="45.34061" lon="5.62877">
        <ele>391.76</ele>
        <time>2017-11-26T10:08:04Z</time>
      </trkpt>
      <trkpt lat="45.34058" lon="5.62875">
        <ele>391.53</ele>
        <time>2017-11-26T10:08:19Z</time>
      </trkpt>
      <trkpt lat="45.34055" lon="5.62874">
        <ele>391.53</ele>
        <time>2017-11-26T10:08:20Z</time>
      </trkpt>
      <trkpt lat="45.34053" lon="5.62874">
        <ele>391.5</ele>
        <time>2017-11-26T10:08:21Z</time>
      </trkpt>
      <trkpt lat="45.3405" lon="5.62874">
        <ele>391.43</ele>
        <time>2017-11-26T10:08:22Z</time>
      </trkpt>
      <trkpt lat="45.34047" lon="5.62874">
        <ele>391.2</ele>
        <time>2017-11-26T10:08:23Z</time>
      </trkpt>
      <trkpt lat="45.34044" lon="5.62873">
        <ele>390.81</ele>
        <time>2017-11-26T10:08:24Z</time>
      </trkpt>
      <trkpt lat="45.34041" lon="5.62871">
        <ele>390.28</ele>
        <time>2017-11-26T10:08:25Z</time>
      </trkpt>
      <trkpt lat="45.34026" lon="5.6286">
        <ele>387.08</ele>
        <time>2017-11-26T10:08:30Z</time>
      </trkpt>
      <trkpt lat="45.34021" lon="5.62858">
        <ele>386.45</ele>
        <time>2017-11-26T10:08:31Z</time>
      </trkpt>
      <trkpt lat="45.34017" lon="5.62858">
        <ele>385.78</ele>
        <time>2017-11-26T10:08:32Z</time>
      </trkpt>
      <trkpt lat="45.34009" lon="5.6286">
        <ele>384.17</ele>
        <time>2017-11-26T10:08:34Z</time>
      </trkpt>
      <trkpt lat="45.34004" lon="5.62862">
        <ele>383.26</ele>
        <time>2017-11-26T10:08:35Z</time>
      </trkpt>
      <trkpt lat="45.33999" lon="5.62866">
        <ele>381.36</ele>
        <time>2017-11-26T10:08:36Z</time>
      </trkpt>
      <trkpt lat="45.33982" lon="5.6288">
        <ele>378.35</ele>
        <time>2017-11-26T10:08:39Z</time>
      </trkpt>
      <trkpt lat="45.33971" lon="5.62888">
        <ele>376.65</ele>
        <time>2017-11-26T10:08:41Z</time>
      </trkpt>
      <trkpt lat="45.33946" lon="5.62907">
        <ele>377.42</ele>
        <time>2017-11-26T10:08:51Z</time>
      </trkpt>
      <trkpt lat="45.33916" lon="5.6292">
        <ele>379.85</ele>
        <time>2017-11-26T10:09:07Z</time>
      </trkpt>
      <trkpt lat="45.33896" lon="5.62937">
        <ele>382.87</ele>
        <time>2017-11-26T10:09:24Z</time>
      </trkpt>
      <trkpt lat="45.33878" lon="5.62954">
        <ele>385.93</ele>
        <time>2017-11-26T10:09:42Z</time>
      </trkpt>
      <trkpt lat="45.33876" lon="5.62952">
        <ele>386.93</ele>
        <time>2017-11-26T10:09:53Z</time>
      </trkpt>
      <trkpt lat="45.33866" lon="5.62961">
        <ele>387.91</ele>
        <time>2017-11-26T10:10:12Z</time>
      </trkpt>
      <trkpt lat="45.33863" lon="5.62963">
        <ele>388.85</ele>
        <time>2017-11-26T10:10:16Z</time>
      </trkpt>
      <trkpt lat="45.33856" lon="5.62967">
        <ele>389.98</ele>
        <time>2017-11-26T10:10:23Z</time>
      </trkpt>
      <trkpt lat="45.33845" lon="5.6297">
        <ele>391.75</ele>
        <time>2017-11-26T10:10:33Z</time>
      </trkpt>
      <trkpt lat="45.33839" lon="5.6297">
        <ele>393.13</ele>
        <time>2017-11-26T10:10:39Z</time>
      </trkpt>
      <trkpt lat="45.33824" lon="5.62961">
        <ele>396.35</ele>
        <time>2017-11-26T10:10:53Z</time>
      </trkpt>
      <trkpt lat="45.33822" lon="5.6296">
        <ele>397.21</ele>
        <time>2017-11-26T10:11:10Z</time>
      </trkpt>
      <trkpt lat="45.33821" lon="5.62961">
        <ele>397.31</ele>
        <time>2017-11-26T10:11:35Z</time>
      </trkpt>
      <trkpt lat="45.33817" lon="5.62957">
        <ele>397.58</ele>
        <time>2017-11-26T10:11:54Z</time>
      </trkpt>
      <trkpt lat="45.33815" lon="5.62956">
        <ele>397.57</ele>
        <time>2017-11-26T10:11:55Z</time>
      </trkpt>
      <trkpt lat="45.33814" lon="5.62954">
        <ele>397.53</ele>
        <time>2017-11-26T10:11:56Z</time>
      </trkpt>
      <trkpt lat="45.33788" lon="5.6293">
        <ele>397.39</ele>
        <time>2017-11-26T10:12:09Z</time>
      </trkpt>
      <trkpt lat="45.33774" lon="5.62923">
        <ele>397.27</ele>
        <time>2017-11-26T10:12:13Z</time>
      </trkpt>
      <trkpt lat="45.3377" lon="5.62924">
        <ele>397.23</ele>
        <time>2017-11-26T10:12:14Z</time>
      </trkpt>
      <trkpt lat="45.33765" lon="5.62927">
        <ele>397.14</ele>
        <time>2017-11-26T10:12:15Z</time>
      </trkpt>
      <trkpt lat="45.3376" lon="5.62932">
        <ele>396.71</ele>
        <time>2017-11-26T10:12:16Z</time>
      </trkpt>
      <trkpt lat="45.33755" lon="5.62937">
        <ele>396.35</ele>
        <time>2017-11-26T10:12:17Z</time>
      </trkpt>
      <trkpt lat="45.33749" lon="5.62943">
        <ele>395.91</ele>
        <time>2017-11-26T10:12:18Z</time>
      </trkpt>
      <trkpt lat="45.33742" lon="5.62948">
        <ele>395.35</ele>
        <time>2017-11-26T10:12:19Z</time>
      </trkpt>
      <trkpt lat="45.33735" lon="5.62951">
        <ele>394.62</ele>
        <time>2017-11-26T10:12:20Z</time>
      </trkpt>
      <trkpt lat="45.33728" lon="5.62952">
        <ele>393.82</ele>
        <time>2017-11-26T10:12:21Z</time>
      </trkpt>
      <trkpt lat="45.33721" lon="5.62951">
        <ele>393.09</ele>
        <time>2017-11-26T10:12:22Z</time>
      </trkpt>
      <trkpt lat="45.33715" lon="5.62949">
        <ele>392.55</ele>
        <time>2017-11-26T10:12:23Z</time>
      </trkpt>
      <trkpt lat="45.33709" lon="5.62947">
        <ele>392.19</ele>
        <time>2017-11-26T10:12:24Z</time>
      </trkpt>
      <trkpt lat="45.33704" lon="5.62945">
        <ele>392.01</ele>
        <time>2017-11-26T10:12:25Z</time>
      </trkpt>
      <trkpt lat="45.33633" lon="5.62904">
        <ele>390.43</ele>
        <time>2017-11-26T10:12:39Z</time>
      </trkpt>
      <trkpt lat="45.33561" lon="5.6287">
        <ele>388.5</ele>
        <time>2017-11-26T10:12:53Z</time>
      </trkpt>
      <trkpt lat="45.33556" lon="5.6287">
        <ele>388.11</ele>
        <time>2017-11-26T10:12:54Z</time>
      </trkpt>
      <trkpt lat="45.3355" lon="5.62871">
        <ele>387.77</ele>
        <time>2017-11-26T10:12:55Z</time>
      </trkpt>
      <trkpt lat="45.33545" lon="5.62874">
        <ele>387.49</ele>
        <time>2017-11-26T10:12:56Z</time>
      </trkpt>
      <trkpt lat="45.3354" lon="5.6288">
        <ele>387.2</ele>
        <time>2017-11-26T10:12:57Z</time>
      </trkpt>
      <trkpt lat="45.33537" lon="5.62888">
        <ele>386.86</ele>
        <time>2017-11-26T10:12:58Z</time>
      </trkpt>
      <trkpt lat="45.33536" lon="5.62897">
        <ele>386.45</ele>
        <time>2017-11-26T10:12:59Z</time>
      </trkpt>
      <trkpt lat="45.33534" lon="5.62906">
        <ele>386.01</ele>
        <time>2017-11-26T10:13:00Z</time>
      </trkpt>
      <trkpt lat="45.33523" lon="5.6295">
        <ele>382.88</ele>
        <time>2017-11-26T10:13:06Z</time>
      </trkpt>
      <trkpt lat="45.33513" lon="5.62977">
        <ele>379.85</ele>
        <time>2017-11-26T10:13:12Z</time>
      </trkpt>
      <trkpt lat="45.33485" lon="5.63008">
        <ele>380.51</ele>
        <time>2017-11-26T10:13:27Z</time>
      </trkpt>
      <trkpt lat="45.33469" lon="5.63008">
        <ele>381.08</ele>
        <time>2017-11-26T10:13:39Z</time>
      </trkpt>
      <trkpt lat="45.33456" lon="5.63007">
        <ele>381.28</ele>
        <time>2017-11-26T10:14:00Z</time>
      </trkpt>
      <trkpt lat="45.33431" lon="5.6301">
        <ele>382.1</ele>
        <time>2017-11-26T10:14:13Z</time>
      </trkpt>
      <trkpt lat="45.33419" lon="5.63015">
        <ele>383.32</ele>
        <time>2017-11-26T10:14:20Z</time>
      </trkpt>
      <trkpt lat="45.3341" lon="5.63019">
        <ele>384.39</ele>
        <time>2017-11-26T10:14:27Z</time>
      </trkpt>
      <trkpt lat="45.334" lon="5.63018">
        <ele>385.39</ele>
        <time>2017-11-26T10:14:33Z</time>
      </trkpt>
      <trkpt lat="45.33382" lon="5.63013">
        <ele>388.59</ele>
        <time>2017-11-26T10:14:48Z</time>
      </trkpt>
      <trkpt lat="45.33364" lon="5.63007">
        <ele>391.66</ele>
        <time>2017-11-26T10:15:01Z</time>
      </trkpt>
      <trkpt lat="45.33345" lon="5.63004">
        <ele>394.92</ele>
        <time>2017-11-26T10:15:15Z</time>
      </trkpt>
      <trkpt lat="45.33331" lon="5.63007">
        <ele>398.13</ele>
        <time>2017-11-26T10:15:28Z</time>
      </trkpt>
      <trkpt lat="45.33322" lon="5.63012">
        <ele>401.35</ele>
        <time>2017-11-26T10:15:38Z</time>
      </trkpt>
      <trkpt lat="45.33308" lon="5.63015">
        <ele>404.42</ele>
        <time>2017-11-26T10:15:51Z</time>
      </trkpt>
      <trkpt lat="45.33291" lon="5.63017">
        <ele>407.64</ele>
        <time>2017-11-26T10:16:04Z</time>
      </trkpt>
      <trkpt lat="45.33286" lon="5.63018">
        <ele>408.42</ele>
        <time>2017-11-26T10:16:08Z</time>
      </trkpt>
      <trkpt lat="45.3327" lon="5.63018">
        <ele>410.82</ele>
        <time>2017-11-26T10:16:23Z</time>
      </trkpt>
      <trkpt lat="45.33247" lon="5.63011">
        <ele>412.61</ele>
        <time>2017-11-26T10:16:38Z</time>
      </trkpt>
      <trkpt lat="45.33215" lon="5.63011">
        <ele>414.39</ele>
        <time>2017-11-26T10:16:56Z</time>
      </trkpt>
      <trkpt lat="45.33188" lon="5.63012">
        <ele>416.57</ele>
        <time>2017-11-26T10:17:13Z</time>
      </trkpt>
      <trkpt lat="45.3317" lon="5.63012">
        <ele>419.09</ele>
        <time>2017-11-26T10:17:26Z</time>
      </trkpt>
      <trkpt lat="45.33154" lon="5.63012">
        <ele>422.28</ele>
        <time>2017-11-26T10:17:39Z</time>
      </trkpt>
      <trkpt lat="45.33137" lon="5.63011">
        <ele>425.54</ele>
        <time>2017-11-26T10:17:52Z</time>
      </trkpt>
      <trkpt lat="45.33131" lon="5.63012">
        <ele>427.49</ele>
        <time>2017-11-26T10:17:57Z</time>
      </trkpt>
      <trkpt lat="45.33119" lon="5.63011">
        <ele>430.63</ele>
        <time>2017-11-26T10:18:06Z</time>
      </trkpt>
      <trkpt lat="45.33107" lon="5.63012">
        <ele>433.76</ele>
        <time>2017-11-26T10:18:17Z</time>
      </trkpt>
      <trkpt lat="45.3309" lon="5.63017">
        <ele>436.85</ele>
        <time>2017-11-26T10:18:33Z</time>
      </trkpt>
      <trkpt lat="45.33077" lon="5.63026">
        <ele>440.01</ele>
        <time>2017-11-26T10:18:47Z</time>
      </trkpt>
      <trkpt lat="45.33076" lon="5.63027">
        <ele>440.23</ele>
        <time>2017-11-26T10:18:48Z</time>
      </trkpt>
      <trkpt lat="45.3307" lon="5.6303">
        <ele>441.5</ele>
        <time>2017-11-26T10:18:53Z</time>
      </trkpt>
      <trkpt lat="45.33068" lon="5.63032">
        <ele>442.04</ele>
        <time>2017-11-26T10:18:55Z</time>
      </trkpt>
      <trkpt lat="45.33061" lon="5.63036">
        <ele>443.62</ele>
        <time>2017-11-26T10:19:01Z</time>
      </trkpt>
      <trkpt lat="45.33051" lon="5.63042">
        <ele>446.19</ele>
        <time>2017-11-26T10:19:15Z</time>
      </trkpt>
      <trkpt lat="45.3305" lon="5.63039">
        <ele>446.6</ele>
        <time>2017-11-26T10:19:28Z</time>
      </trkpt>
      <trkpt lat="45.3305" lon="5.63038">
        <ele>446.79</ele>
        <time>2017-11-26T10:19:53Z</time>
      </trkpt>
      <trkpt lat="45.3305" lon="5.63036">
        <ele>446.84</ele>
        <time>2017-11-26T10:20:24Z</time>
      </trkpt>
      <trkpt lat="45.33047" lon="5.63035">
        <ele>446.91</ele>
        <time>2017-11-26T10:20:29Z</time>
      </trkpt>
      <trkpt lat="45.33034" lon="5.63042">
        <ele>447.07</ele>
        <time>2017-11-26T10:20:39Z</time>
      </trkpt>
      <trkpt lat="45.33021" lon="5.63045">
        <ele>447.92</ele>
        <time>2017-11-26T10:20:50Z</time>
      </trkpt>
      <trkpt lat="45.32996" lon="5.63054">
        <ele>450.51</ele>
        <time>2017-11-26T10:21:08Z</time>
      </trkpt>
      <trkpt lat="45.32994" lon="5.63055">
        <ele>450.88</ele>
        <time>2017-11-26T10:21:10Z</time>
      </trkpt>
      <trkpt lat="45.32975" lon="5.6306">
        <ele>453</ele>
        <time>2017-11-26T10:21:24Z</time>
      </trkpt>
      <trkpt lat="45.32949" lon="5.63068">
        <ele>454.86</ele>
        <time>2017-11-26T10:21:40Z</time>
      </trkpt>
      <trkpt lat="45.32921" lon="5.63072">
        <ele>456.02</ele>
        <time>2017-11-26T10:21:54Z</time>
      </trkpt>
      <trkpt lat="45.32895" lon="5.6308">
        <ele>456.11</ele>
        <time>2017-11-26T10:22:06Z</time>
      </trkpt>
      <trkpt lat="45.32863" lon="5.63084">
        <ele>456.44</ele>
        <time>2017-11-26T10:22:19Z</time>
      </trkpt>
      <trkpt lat="45.32827" lon="5.63082">
        <ele>457.08</ele>
        <time>2017-11-26T10:22:34Z</time>
      </trkpt>
      <trkpt lat="45.32803" lon="5.6309">
        <ele>457.31</ele>
        <time>2017-11-26T10:22:45Z</time>
      </trkpt>
      <trkpt lat="45.32774" lon="5.63088">
        <ele>459.51</ele>
        <time>2017-11-26T10:23:01Z</time>
      </trkpt>
      <trkpt lat="45.32748" lon="5.63069">
        <ele>461.89</ele>
        <time>2017-11-26T10:23:16Z</time>
      </trkpt>
      <trkpt lat="45.32719" lon="5.63055">
        <ele>463.23</ele>
        <time>2017-11-26T10:23:31Z</time>
      </trkpt>
      <trkpt lat="45.32688" lon="5.63053">
        <ele>465.35</ele>
        <time>2017-11-26T10:23:48Z</time>
      </trkpt>
      <trkpt lat="45.32662" lon="5.63056">
        <ele>467.78</ele>
        <time>2017-11-26T10:24:03Z</time>
      </trkpt>
      <trkpt lat="45.32646" lon="5.63055">
        <ele>468.54</ele>
        <time>2017-11-26T10:24:11Z</time>
      </trkpt>
      <trkpt lat="45.32645" lon="5.63055">
        <ele>468.65</ele>
        <time>2017-11-26T10:24:12Z</time>
      </trkpt>
      <trkpt lat="45.32643" lon="5.63055">
        <ele>468.77</ele>
        <time>2017-11-26T10:24:13Z</time>
      </trkpt>
      <trkpt lat="45.32641" lon="5.63054">
        <ele>468.9</ele>
        <time>2017-11-26T10:24:14Z</time>
      </trkpt>
      <trkpt lat="45.32639" lon="5.63054">
        <ele>469</ele>
        <time>2017-11-26T10:24:15Z</time>
      </trkpt>
      <trkpt lat="45.3261" lon="5.63035">
        <ele>468.63</ele>
        <time>2017-11-26T10:24:26Z</time>
      </trkpt>
      <trkpt lat="45.32577" lon="5.63022">
        <ele>468.82</ele>
        <time>2017-11-26T10:24:39Z</time>
      </trkpt>
      <trkpt lat="45.32555" lon="5.63014">
        <ele>470.9</ele>
        <time>2017-11-26T10:24:51Z</time>
      </trkpt>
      <trkpt lat="45.32552" lon="5.63014">
        <ele>471.15</ele>
        <time>2017-11-26T10:24:53Z</time>
      </trkpt>
      <trkpt lat="45.3255" lon="5.63013">
        <ele>471.27</ele>
        <time>2017-11-26T10:24:54Z</time>
      </trkpt>
      <trkpt lat="45.3254" lon="5.63012">
        <ele>472.24</ele>
        <time>2017-11-26T10:24:59Z</time>
      </trkpt>
      <trkpt lat="45.32538" lon="5.63011">
        <ele>472.41</ele>
        <time>2017-11-26T10:25:00Z</time>
      </trkpt>
      <trkpt lat="45.32536" lon="5.6301">
        <ele>472.59</ele>
        <time>2017-11-26T10:25:01Z</time>
      </trkpt>
      <trkpt lat="45.32534" lon="5.6301">
        <ele>472.82</ele>
        <time>2017-11-26T10:25:02Z</time>
      </trkpt>
      <trkpt lat="45.32532" lon="5.6301">
        <ele>473.01</ele>
        <time>2017-11-26T10:25:03Z</time>
      </trkpt>
      <trkpt lat="45.3253" lon="5.6301">
        <ele>473.18</ele>
        <time>2017-11-26T10:25:04Z</time>
      </trkpt>
      <trkpt lat="45.32498" lon="5.63012">
        <ele>474.11</ele>
        <time>2017-11-26T10:25:18Z</time>
      </trkpt>
      <trkpt lat="45.32471" lon="5.63018">
        <ele>474.87</ele>
        <time>2017-11-26T10:25:31Z</time>
      </trkpt>
      <trkpt lat="45.32435" lon="5.63027">
        <ele>474.98</ele>
        <time>2017-11-26T10:25:45Z</time>
      </trkpt>
      <trkpt lat="45.32398" lon="5.63027">
        <ele>475.37</ele>
        <time>2017-11-26T10:26:00Z</time>
      </trkpt>
      <trkpt lat="45.3237" lon="5.63027">
        <ele>476.73</ele>
        <time>2017-11-26T10:26:13Z</time>
      </trkpt>
      <trkpt lat="45.32347" lon="5.63026">
        <ele>478.57</ele>
        <time>2017-11-26T10:26:26Z</time>
      </trkpt>
      <trkpt lat="45.32325" lon="5.63026">
        <ele>480.53</ele>
        <time>2017-11-26T10:26:38Z</time>
      </trkpt>
      <trkpt lat="45.32309" lon="5.63027">
        <ele>482.57</ele>
        <time>2017-11-26T10:26:49Z</time>
      </trkpt>
      <trkpt lat="45.32293" lon="5.63022">
        <ele>484.78</ele>
        <time>2017-11-26T10:27:02Z</time>
      </trkpt>
      <trkpt lat="45.32275" lon="5.63018">
        <ele>487.81</ele>
        <time>2017-11-26T10:27:15Z</time>
      </trkpt>
      <trkpt lat="45.32255" lon="5.63012">
        <ele>490.99</ele>
        <time>2017-11-26T10:27:30Z</time>
      </trkpt>
      <trkpt lat="45.32239" lon="5.63001">
        <ele>494.12</ele>
        <time>2017-11-26T10:27:44Z</time>
      </trkpt>
      <trkpt lat="45.32238" lon="5.63">
        <ele>494.36</ele>
        <time>2017-11-26T10:27:45Z</time>
      </trkpt>
      <trkpt lat="45.32236" lon="5.63">
        <ele>494.66</ele>
        <time>2017-11-26T10:27:46Z</time>
      </trkpt>
      <trkpt lat="45.32235" lon="5.62999">
        <ele>494.95</ele>
        <time>2017-11-26T10:27:47Z</time>
      </trkpt>
      <trkpt lat="45.32233" lon="5.62998">
        <ele>495.2</ele>
        <time>2017-11-26T10:27:48Z</time>
      </trkpt>
      <trkpt lat="45.32232" lon="5.62998">
        <ele>495.4</ele>
        <time>2017-11-26T10:27:49Z</time>
      </trkpt>
      <trkpt lat="45.3223" lon="5.62998">
        <ele>495.57</ele>
        <time>2017-11-26T10:27:50Z</time>
      </trkpt>
      <trkpt lat="45.32228" lon="5.62998">
        <ele>495.73</ele>
        <time>2017-11-26T10:27:51Z</time>
      </trkpt>
      <trkpt lat="45.32226" lon="5.62997">
        <ele>495.93</ele>
        <time>2017-11-26T10:27:52Z</time>
      </trkpt>
      <trkpt lat="45.32202" lon="5.6299">
        <ele>498.96</ele>
        <time>2017-11-26T10:28:08Z</time>
      </trkpt>
      <trkpt lat="45.32177" lon="5.62984">
        <ele>501.85</ele>
        <time>2017-11-26T10:28:27Z</time>
      </trkpt>
      <trkpt lat="45.32155" lon="5.62983">
        <ele>504.88</ele>
        <time>2017-11-26T10:28:43Z</time>
      </trkpt>
      <trkpt lat="45.32146" lon="5.62985">
        <ele>505.49</ele>
        <time>2017-11-26T10:28:50Z</time>
      </trkpt>
      <trkpt lat="45.32145" lon="5.62985">
        <ele>505.59</ele>
        <time>2017-11-26T10:28:51Z</time>
      </trkpt>
      <trkpt lat="45.32125" lon="5.62995">
        <ele>507.15</ele>
        <time>2017-11-26T10:29:06Z</time>
      </trkpt>
      <trkpt lat="45.3212" lon="5.62997">
        <ele>507.51</ele>
        <time>2017-11-26T10:29:10Z</time>
      </trkpt>
      <trkpt lat="45.32117" lon="5.62998">
        <ele>507.7</ele>
        <time>2017-11-26T10:29:12Z</time>
      </trkpt>
      <trkpt lat="45.32115" lon="5.62999">
        <ele>507.81</ele>
        <time>2017-11-26T10:29:13Z</time>
      </trkpt>
      <trkpt lat="45.32114" lon="5.63">
        <ele>507.94</ele>
        <time>2017-11-26T10:29:14Z</time>
      </trkpt>
      <trkpt lat="45.32113" lon="5.63001">
        <ele>508.08</ele>
        <time>2017-11-26T10:29:15Z</time>
      </trkpt>
      <trkpt lat="45.32094" lon="5.63017">
        <ele>510.09</ele>
        <time>2017-11-26T10:29:29Z</time>
      </trkpt>
      <trkpt lat="45.32091" lon="5.63018">
        <ele>510.55</ele>
        <time>2017-11-26T10:29:31Z</time>
      </trkpt>
      <trkpt lat="45.32089" lon="5.63018">
        <ele>510.79</ele>
        <time>2017-11-26T10:29:32Z</time>
      </trkpt>
      <trkpt lat="45.32088" lon="5.63018">
        <ele>510.97</ele>
        <time>2017-11-26T10:29:33Z</time>
      </trkpt>
      <trkpt lat="45.32086" lon="5.63019">
        <ele>511.13</ele>
        <time>2017-11-26T10:29:34Z</time>
      </trkpt>
      <trkpt lat="45.32085" lon="5.63019">
        <ele>511.3</ele>
        <time>2017-11-26T10:29:35Z</time>
      </trkpt>
      <trkpt lat="45.32084" lon="5.63019">
        <ele>511.47</ele>
        <time>2017-11-26T10:29:36Z</time>
      </trkpt>
      <trkpt lat="45.32066" lon="5.63022">
        <ele>511.93</ele>
        <time>2017-11-26T10:29:47Z</time>
      </trkpt>
      <trkpt lat="45.32065" lon="5.63022">
        <ele>511.97</ele>
        <time>2017-11-26T10:29:48Z</time>
      </trkpt>
      <trkpt lat="45.32063" lon="5.63022">
        <ele>512.01</ele>
        <time>2017-11-26T10:29:49Z</time>
      </trkpt>
      <trkpt lat="45.32044" lon="5.63024">
        <ele>512.43</ele>
        <time>2017-11-26T10:30:04Z</time>
      </trkpt>
      <trkpt lat="45.32024" lon="5.63024">
        <ele>513.15</ele>
        <time>2017-11-26T10:30:16Z</time>
      </trkpt>
      <trkpt lat="45.32001" lon="5.63024">
        <ele>514.05</ele>
        <time>2017-11-26T10:30:30Z</time>
      </trkpt>
      <trkpt lat="45.31978" lon="5.63026">
        <ele>515.33</ele>
        <time>2017-11-26T10:30:44Z</time>
      </trkpt>
      <trkpt lat="45.31976" lon="5.63026">
        <ele>515.46</ele>
        <time>2017-11-26T10:30:45Z</time>
      </trkpt>
      <trkpt lat="45.31975" lon="5.63027">
        <ele>515.59</ele>
        <time>2017-11-26T10:30:46Z</time>
      </trkpt>
      <trkpt lat="45.31956" lon="5.6303">
        <ele>518.89</ele>
        <time>2017-11-26T10:31:00Z</time>
      </trkpt>
      <trkpt lat="45.3195" lon="5.6303">
        <ele>519.69</ele>
        <time>2017-11-26T10:31:04Z</time>
      </trkpt>
      <trkpt lat="45.31946" lon="5.6303">
        <ele>520.4</ele>
        <time>2017-11-26T10:31:07Z</time>
      </trkpt>
      <trkpt lat="45.31942" lon="5.6303">
        <ele>521.22</ele>
        <time>2017-11-26T10:31:10Z</time>
      </trkpt>
      <trkpt lat="45.31941" lon="5.6303">
        <ele>521.52</ele>
        <time>2017-11-26T10:31:11Z</time>
      </trkpt>
      <trkpt lat="45.31939" lon="5.6303">
        <ele>521.85</ele>
        <time>2017-11-26T10:31:12Z</time>
      </trkpt>
      <trkpt lat="45.31938" lon="5.6303">
        <ele>522.2</ele>
        <time>2017-11-26T10:31:13Z</time>
      </trkpt>
      <trkpt lat="45.31937" lon="5.6303">
        <ele>522.53</ele>
        <time>2017-11-26T10:31:14Z</time>
      </trkpt>
      <trkpt lat="45.31935" lon="5.63029">
        <ele>522.82</ele>
        <time>2017-11-26T10:31:15Z</time>
      </trkpt>
      <trkpt lat="45.31927" lon="5.63024">
        <ele>525.93</ele>
        <time>2017-11-26T10:31:24Z</time>
      </trkpt>
      <trkpt lat="45.31926" lon="5.63025">
        <ele>526.26</ele>
        <time>2017-11-26T10:31:25Z</time>
      </trkpt>
      <trkpt lat="45.31925" lon="5.63025">
        <ele>526.56</ele>
        <time>2017-11-26T10:31:26Z</time>
      </trkpt>
      <trkpt lat="45.31914" lon="5.63036">
        <ele>529.62</ele>
        <time>2017-11-26T10:31:39Z</time>
      </trkpt>
      <trkpt lat="45.31904" lon="5.63048">
        <ele>532.69</ele>
        <time>2017-11-26T10:31:51Z</time>
      </trkpt>
      <trkpt lat="45.31897" lon="5.63053">
        <ele>534.64</ele>
        <time>2017-11-26T10:31:59Z</time>
      </trkpt>
      <trkpt lat="45.31886" lon="5.63057">
        <ele>537.81</ele>
        <time>2017-11-26T10:32:10Z</time>
      </trkpt>
      <trkpt lat="45.3188" lon="5.63057">
        <ele>539.34</ele>
        <time>2017-11-26T10:32:16Z</time>
      </trkpt>
      <trkpt lat="45.31864" lon="5.63053">
        <ele>541.91</ele>
        <time>2017-11-26T10:32:30Z</time>
      </trkpt>
      <trkpt lat="45.31851" lon="5.63055">
        <ele>543.27</ele>
        <time>2017-11-26T10:32:45Z</time>
      </trkpt>
      <trkpt lat="45.31835" lon="5.63059">
        <ele>545.54</ele>
        <time>2017-11-26T10:33:01Z</time>
      </trkpt>
      <trkpt lat="45.31813" lon="5.63061">
        <ele>548.25</ele>
        <time>2017-11-26T10:33:19Z</time>
      </trkpt>
      <trkpt lat="45.31794" lon="5.63069">
        <ele>551.27</ele>
        <time>2017-11-26T10:33:35Z</time>
      </trkpt>
      <trkpt lat="45.31781" lon="5.63083">
        <ele>551.09</ele>
        <time>2017-11-26T10:33:44Z</time>
      </trkpt>
      <trkpt lat="45.31763" lon="5.63101">
        <ele>551.05</ele>
        <time>2017-11-26T10:33:56Z</time>
      </trkpt>
      <trkpt lat="45.31756" lon="5.63107">
        <ele>551.03</ele>
        <time>2017-11-26T10:34:00Z</time>
      </trkpt>
      <trkpt lat="45.31735" lon="5.63131">
        <ele>551.26</ele>
        <time>2017-11-26T10:34:13Z</time>
      </trkpt>
      <trkpt lat="45.31726" lon="5.63145">
        <ele>552.16</ele>
        <time>2017-11-26T10:34:21Z</time>
      </trkpt>
      <trkpt lat="45.31724" lon="5.63149">
        <ele>552.52</ele>
        <time>2017-11-26T10:34:23Z</time>
      </trkpt>
      <trkpt lat="45.31717" lon="5.63159">
        <ele>553.79</ele>
        <time>2017-11-26T10:34:29Z</time>
      </trkpt>
      <trkpt lat="45.317" lon="5.63182">
        <ele>556.13</ele>
        <time>2017-11-26T10:34:43Z</time>
      </trkpt>
      <trkpt lat="45.31681" lon="5.63208">
        <ele>557.94</ele>
        <time>2017-11-26T10:34:59Z</time>
      </trkpt>
      <trkpt lat="45.3166" lon="5.63225">
        <ele>559.95</ele>
        <time>2017-11-26T10:35:13Z</time>
      </trkpt>
      <trkpt lat="45.31646" lon="5.6324">
        <ele>562.04</ele>
        <time>2017-11-26T10:35:27Z</time>
      </trkpt>
      <trkpt lat="45.31641" lon="5.63253">
        <ele>562.9</ele>
        <time>2017-11-26T10:35:35Z</time>
      </trkpt>
      <trkpt lat="45.31634" lon="5.63265">
        <ele>563.8</ele>
        <time>2017-11-26T10:35:42Z</time>
      </trkpt>
      <trkpt lat="45.31622" lon="5.63285">
        <ele>566.1</ele>
        <time>2017-11-26T10:35:55Z</time>
      </trkpt>
      <trkpt lat="45.31612" lon="5.63302">
        <ele>568.3</ele>
        <time>2017-11-26T10:36:10Z</time>
      </trkpt>
      <trkpt lat="45.31611" lon="5.63306">
        <ele>568.83</ele>
        <time>2017-11-26T10:36:13Z</time>
      </trkpt>
      <trkpt lat="45.31597" lon="5.6333">
        <ele>570.42</ele>
        <time>2017-11-26T10:36:28Z</time>
      </trkpt>
      <trkpt lat="45.31586" lon="5.63346">
        <ele>572.68</ele>
        <time>2017-11-26T10:36:41Z</time>
      </trkpt>
      <trkpt lat="45.3157" lon="5.63365">
        <ele>575.89</ele>
        <time>2017-11-26T10:36:55Z</time>
      </trkpt>
      <trkpt lat="45.31566" lon="5.63367">
        <ele>577</ele>
        <time>2017-11-26T10:36:59Z</time>
      </trkpt>
      <trkpt lat="45.31554" lon="5.63374">
        <ele>580.33</ele>
        <time>2017-11-26T10:37:13Z</time>
      </trkpt>
      <trkpt lat="45.31545" lon="5.63374">
        <ele>581.54</ele>
        <time>2017-11-26T10:37:20Z</time>
      </trkpt>
      <trkpt lat="45.31526" lon="5.63373">
        <ele>584.16</ele>
        <time>2017-11-26T10:37:35Z</time>
      </trkpt>
      <trkpt lat="45.31511" lon="5.63384">
        <ele>586.58</ele>
        <time>2017-11-26T10:37:49Z</time>
      </trkpt>
      <trkpt lat="45.31497" lon="5.63394">
        <ele>589.47</ele>
        <time>2017-11-26T10:38:04Z</time>
      </trkpt>
      <trkpt lat="45.31487" lon="5.63407">
        <ele>592.6</ele>
        <time>2017-11-26T10:38:18Z</time>
      </trkpt>
      <trkpt lat="45.31472" lon="5.63422">
        <ele>595.22</ele>
        <time>2017-11-26T10:38:33Z</time>
      </trkpt>
      <trkpt lat="45.31457" lon="5.63436">
        <ele>598.14</ele>
        <time>2017-11-26T10:38:49Z</time>
      </trkpt>
      <trkpt lat="45.31443" lon="5.63445">
        <ele>600.7</ele>
        <time>2017-11-26T10:39:03Z</time>
      </trkpt>
      <trkpt lat="45.31427" lon="5.63457">
        <ele>603.52</ele>
        <time>2017-11-26T10:39:18Z</time>
      </trkpt>
      <trkpt lat="45.31413" lon="5.63471">
        <ele>606.49</ele>
        <time>2017-11-26T10:39:32Z</time>
      </trkpt>
      <trkpt lat="45.31403" lon="5.6349">
        <ele>608.69</ele>
        <time>2017-11-26T10:39:46Z</time>
      </trkpt>
      <trkpt lat="45.31387" lon="5.63514">
        <ele>610.11</ele>
        <time>2017-11-26T10:40:04Z</time>
      </trkpt>
      <trkpt lat="45.31382" lon="5.63518">
        <ele>610.49</ele>
        <time>2017-11-26T10:40:08Z</time>
      </trkpt>
      <trkpt lat="45.31371" lon="5.6354">
        <ele>611.44</ele>
        <time>2017-11-26T10:40:21Z</time>
      </trkpt>
      <trkpt lat="45.31375" lon="5.63543">
        <ele>612.39</ele>
        <time>2017-11-26T10:40:27Z</time>
      </trkpt>
      <trkpt lat="45.31385" lon="5.6353">
        <ele>614.02</ele>
        <time>2017-11-26T10:40:41Z</time>
      </trkpt>
      <trkpt lat="45.31398" lon="5.63515">
        <ele>616.99</ele>
        <time>2017-11-26T10:40:55Z</time>
      </trkpt>
      <trkpt lat="45.31412" lon="5.63507">
        <ele>620.36</ele>
        <time>2017-11-26T10:41:08Z</time>
      </trkpt>
      <trkpt lat="45.31428" lon="5.63498">
        <ele>623.43</ele>
        <time>2017-11-26T10:41:23Z</time>
      </trkpt>
      <trkpt lat="45.31442" lon="5.63496">
        <ele>626.5</ele>
        <time>2017-11-26T10:41:35Z</time>
      </trkpt>
      <trkpt lat="45.31448" lon="5.63497">
        <ele>627.89</ele>
        <time>2017-11-26T10:41:41Z</time>
      </trkpt>
      <trkpt lat="45.31444" lon="5.63508">
        <ele>629.34</ele>
        <time>2017-11-26T10:41:56Z</time>
      </trkpt>
      <trkpt lat="45.31444" lon="5.6351">
        <ele>629.22</ele>
        <time>2017-11-26T10:42:32Z</time>
      </trkpt>
      <trkpt lat="45.31443" lon="5.63507">
        <ele>629.07</ele>
        <time>2017-11-26T10:43:03Z</time>
      </trkpt>
      <trkpt lat="45.31442" lon="5.63507">
        <ele>629.07</ele>
        <time>2017-11-26T10:43:43Z</time>
      </trkpt>
      <trkpt lat="45.31441" lon="5.63508">
        <ele>629.07</ele>
        <time>2017-11-26T10:45:19Z</time>
      </trkpt>
      <trkpt lat="45.31441" lon="5.63506">
        <ele>629.07</ele>
        <time>2017-11-26T10:47:01Z</time>
      </trkpt>
      <trkpt lat="45.3144" lon="5.63506">
        <ele>629.07</ele>
        <time>2017-11-26T10:47:39Z</time>
      </trkpt>
      <trkpt lat="45.31442" lon="5.63509">
        <ele>629.07</ele>
        <time>2017-11-26T10:48:26Z</time>
      </trkpt>
      <trkpt lat="45.31443" lon="5.63507">
        <ele>629.07</ele>
        <time>2017-11-26T10:49:16Z</time>
      </trkpt>
      <trkpt lat="45.31443" lon="5.63509">
        <ele>629.07</ele>
        <time>2017-11-26T10:49:46Z</time>
      </trkpt>
      <trkpt lat="45.31443" lon="5.63515">
        <ele>629.07</ele>
        <time>2017-11-26T10:50:00Z</time>
      </trkpt>
      <trkpt lat="45.31442" lon="5.63544">
        <ele>629.05</ele>
        <time>2017-11-26T10:50:18Z</time>
      </trkpt>
      <trkpt lat="45.31432" lon="5.63572">
        <ele>629.77</ele>
        <time>2017-11-26T10:50:32Z</time>
      </trkpt>
      <trkpt lat="45.31411" lon="5.63615">
        <ele>630.09</ele>
        <time>2017-11-26T10:50:49Z</time>
      </trkpt>
      <trkpt lat="45.31377" lon="5.63678">
        <ele>628.97</ele>
        <time>2017-11-26T10:51:07Z</time>
      </trkpt>
      <trkpt lat="45.31343" lon="5.63756">
        <ele>628.58</ele>
        <time>2017-11-26T10:51:28Z</time>
      </trkpt>
      <trkpt lat="45.31323" lon="5.63801">
        <ele>629.67</ele>
        <time>2017-11-26T10:51:43Z</time>
      </trkpt>
      <trkpt lat="45.31312" lon="5.6383">
        <ele>630.08</ele>
        <time>2017-11-26T10:51:54Z</time>
      </trkpt>
      <trkpt lat="45.31312" lon="5.63832">
        <ele>630.21</ele>
        <time>2017-11-26T10:51:55Z</time>
      </trkpt>
      <trkpt lat="45.31313" lon="5.63834">
        <ele>630.34</ele>
        <time>2017-11-26T10:51:56Z</time>
      </trkpt>
      <trkpt lat="45.31317" lon="5.63838">
        <ele>631.09</ele>
        <time>2017-11-26T10:52:09Z</time>
      </trkpt>
      <trkpt lat="45.31317" lon="5.63835">
        <ele>631.15</ele>
        <time>2017-11-26T10:54:10Z</time>
      </trkpt>
      <trkpt lat="45.31316" lon="5.63838">
        <ele>631.15</ele>
        <time>2017-11-26T10:54:46Z</time>
      </trkpt>
      <trkpt lat="45.31319" lon="5.63853">
        <ele>631.15</ele>
        <time>2017-11-26T10:55:07Z</time>
      </trkpt>
      <trkpt lat="45.31328" lon="5.63885">
        <ele>629.38</ele>
        <time>2017-11-26T10:55:13Z</time>
      </trkpt>
      <trkpt lat="45.31331" lon="5.63906">
        <ele>627.75</ele>
        <time>2017-11-26T10:55:16Z</time>
      </trkpt>
      <trkpt lat="45.31336" lon="5.63947">
        <ele>624.16</ele>
        <time>2017-11-26T10:55:23Z</time>
      </trkpt>
      <trkpt lat="45.31345" lon="5.63975">
        <ele>621.06</ele>
        <time>2017-11-26T10:55:29Z</time>
      </trkpt>
      <trkpt lat="45.31351" lon="5.63994">
        <ele>617.49</ele>
        <time>2017-11-26T10:55:33Z</time>
      </trkpt>
      <trkpt lat="45.31351" lon="5.64014">
        <ele>614.3</ele>
        <time>2017-11-26T10:55:37Z</time>
      </trkpt>
      <trkpt lat="45.31352" lon="5.64041">
        <ele>610.71</ele>
        <time>2017-11-26T10:55:42Z</time>
      </trkpt>
      <trkpt lat="45.31355" lon="5.64064">
        <ele>607.39</ele>
        <time>2017-11-26T10:55:46Z</time>
      </trkpt>
      <trkpt lat="45.31359" lon="5.64085">
        <ele>604.14</ele>
        <time>2017-11-26T10:55:50Z</time>
      </trkpt>
      <trkpt lat="45.31361" lon="5.64119">
        <ele>600.43</ele>
        <time>2017-11-26T10:55:56Z</time>
      </trkpt>
      <trkpt lat="45.31355" lon="5.64147">
        <ele>596.9</ele>
        <time>2017-11-26T10:56:01Z</time>
      </trkpt>
      <trkpt lat="45.31348" lon="5.64169">
        <ele>593.72</ele>
        <time>2017-11-26T10:56:05Z</time>
      </trkpt>
      <trkpt lat="45.31342" lon="5.64195">
        <ele>590.57</ele>
        <time>2017-11-26T10:56:10Z</time>
      </trkpt>
      <trkpt lat="45.31328" lon="5.64218">
        <ele>587.44</ele>
        <time>2017-11-26T10:56:15Z</time>
      </trkpt>
      <trkpt lat="45.31316" lon="5.6424">
        <ele>583.9</ele>
        <time>2017-11-26T10:56:20Z</time>
      </trkpt>
      <trkpt lat="45.31307" lon="5.64253">
        <ele>580.4</ele>
        <time>2017-11-26T10:56:24Z</time>
      </trkpt>
      <trkpt lat="45.31305" lon="5.64257">
        <ele>579.65</ele>
        <time>2017-11-26T10:56:25Z</time>
      </trkpt>
      <trkpt lat="45.31304" lon="5.64261">
        <ele>579.01</ele>
        <time>2017-11-26T10:56:26Z</time>
      </trkpt>
      <trkpt lat="45.31304" lon="5.64265">
        <ele>578.43</ele>
        <time>2017-11-26T10:56:27Z</time>
      </trkpt>
      <trkpt lat="45.31305" lon="5.64285">
        <ele>575.31</ele>
        <time>2017-11-26T10:56:32Z</time>
      </trkpt>
      <trkpt lat="45.31312" lon="5.64312">
        <ele>571.72</ele>
        <time>2017-11-26T10:56:38Z</time>
      </trkpt>
      <trkpt lat="45.3132" lon="5.64337">
        <ele>568.54</ele>
        <time>2017-11-26T10:56:44Z</time>
      </trkpt>
      <trkpt lat="45.31318" lon="5.64365">
        <ele>565.54</ele>
        <time>2017-11-26T10:56:51Z</time>
      </trkpt>
      <trkpt lat="45.31312" lon="5.64407">
        <ele>562.64</ele>
        <time>2017-11-26T10:57:00Z</time>
      </trkpt>
      <trkpt lat="45.31312" lon="5.64417">
        <ele>562.35</ele>
        <time>2017-11-26T10:57:02Z</time>
      </trkpt>
      <trkpt lat="45.31313" lon="5.64458">
        <ele>559.14</ele>
        <time>2017-11-26T10:57:09Z</time>
      </trkpt>
      <trkpt lat="45.31314" lon="5.64463">
        <ele>558.21</ele>
        <time>2017-11-26T10:57:11Z</time>
      </trkpt>
      <trkpt lat="45.31315" lon="5.6447">
        <ele>557.63</ele>
        <time>2017-11-26T10:57:33Z</time>
      </trkpt>
      <trkpt lat="45.31316" lon="5.64472">
        <ele>557.62</ele>
        <time>2017-11-26T10:57:34Z</time>
      </trkpt>
      <trkpt lat="45.31317" lon="5.64475">
        <ele>557.61</ele>
        <time>2017-11-26T10:57:35Z</time>
      </trkpt>
      <trkpt lat="45.31318" lon="5.64478">
        <ele>557.56</ele>
        <time>2017-11-26T10:57:36Z</time>
      </trkpt>
      <trkpt lat="45.31318" lon="5.64482">
        <ele>557.33</ele>
        <time>2017-11-26T10:57:37Z</time>
      </trkpt>
      <trkpt lat="45.31317" lon="5.64522">
        <ele>554.05</ele>
        <time>2017-11-26T10:57:43Z</time>
      </trkpt>
      <trkpt lat="45.31317" lon="5.64535">
        <ele>550.88</ele>
        <time>2017-11-26T10:57:48Z</time>
      </trkpt>
      <trkpt lat="45.31336" lon="5.64581">
        <ele>548.45</ele>
        <time>2017-11-26T10:57:58Z</time>
      </trkpt>
      <trkpt lat="45.31339" lon="5.64588">
        <ele>547.97</ele>
        <time>2017-11-26T10:57:59Z</time>
      </trkpt>
      <trkpt lat="45.31343" lon="5.64594">
        <ele>547.45</ele>
        <time>2017-11-26T10:58:00Z</time>
      </trkpt>
      <trkpt lat="45.31361" lon="5.64623">
        <ele>544.24</ele>
        <time>2017-11-26T10:58:05Z</time>
      </trkpt>
      <trkpt lat="45.31366" lon="5.64627">
        <ele>543.63</ele>
        <time>2017-11-26T10:58:06Z</time>
      </trkpt>
      <trkpt lat="45.31376" lon="5.64636">
        <ele>542.33</ele>
        <time>2017-11-26T10:58:08Z</time>
      </trkpt>
      <trkpt lat="45.3138" lon="5.64641">
        <ele>541.66</ele>
        <time>2017-11-26T10:58:09Z</time>
      </trkpt>
      <trkpt lat="45.31384" lon="5.64648">
        <ele>540.92</ele>
        <time>2017-11-26T10:58:10Z</time>
      </trkpt>
      <trkpt lat="45.31389" lon="5.64656">
        <ele>540.04</ele>
        <time>2017-11-26T10:58:11Z</time>
      </trkpt>
      <trkpt lat="45.31394" lon="5.64663">
        <ele>539.05</ele>
        <time>2017-11-26T10:58:12Z</time>
      </trkpt>
      <trkpt lat="45.31405" lon="5.64676">
        <ele>536.83</ele>
        <time>2017-11-26T10:58:14Z</time>
      </trkpt>
      <trkpt lat="45.31411" lon="5.64681">
        <ele>535.61</ele>
        <time>2017-11-26T10:58:15Z</time>
      </trkpt>
      <trkpt lat="45.31415" lon="5.64688">
        <ele>534.37</ele>
        <time>2017-11-26T10:58:16Z</time>
      </trkpt>
      <trkpt lat="45.31421" lon="5.64695">
        <ele>533.16</ele>
        <time>2017-11-26T10:58:17Z</time>
      </trkpt>
      <trkpt lat="45.31426" lon="5.64703">
        <ele>532.09</ele>
        <time>2017-11-26T10:58:18Z</time>
      </trkpt>
      <trkpt lat="45.31432" lon="5.64712">
        <ele>531.1</ele>
        <time>2017-11-26T10:58:19Z</time>
      </trkpt>
      <trkpt lat="45.31438" lon="5.64721">
        <ele>530.18</ele>
        <time>2017-11-26T10:58:20Z</time>
      </trkpt>
      <trkpt lat="45.31463" lon="5.64765">
        <ele>526.44</ele>
        <time>2017-11-26T10:58:25Z</time>
      </trkpt>
      <trkpt lat="45.31468" lon="5.64772">
        <ele>525.99</ele>
        <time>2017-11-26T10:58:26Z</time>
      </trkpt>
      <trkpt lat="45.31473" lon="5.64778">
        <ele>525.69</ele>
        <time>2017-11-26T10:58:27Z</time>
      </trkpt>
      <trkpt lat="45.31478" lon="5.64783">
        <ele>525.49</ele>
        <time>2017-11-26T10:58:28Z</time>
      </trkpt>
      <trkpt lat="45.31483" lon="5.64788">
        <ele>525.28</ele>
        <time>2017-11-26T10:58:29Z</time>
      </trkpt>
      <trkpt lat="45.31486" lon="5.64793">
        <ele>524.99</ele>
        <time>2017-11-26T10:58:30Z</time>
      </trkpt>
      <trkpt lat="45.31488" lon="5.64797">
        <ele>524.49</ele>
        <time>2017-11-26T10:58:31Z</time>
      </trkpt>
      <trkpt lat="45.31489" lon="5.648">
        <ele>523.92</ele>
        <time>2017-11-26T10:58:32Z</time>
      </trkpt>
      <trkpt lat="45.31491" lon="5.64803">
        <ele>523.39</ele>
        <time>2017-11-26T10:58:33Z</time>
      </trkpt>
      <trkpt lat="45.31492" lon="5.64805">
        <ele>523.01</ele>
        <time>2017-11-26T10:58:34Z</time>
      </trkpt>
      <trkpt lat="45.31494" lon="5.64805">
        <ele>522.76</ele>
        <time>2017-11-26T10:58:35Z</time>
      </trkpt>
      <trkpt lat="45.31495" lon="5.64807">
        <ele>522.62</ele>
        <time>2017-11-26T10:58:36Z</time>
      </trkpt>
      <trkpt lat="45.31496" lon="5.64808">
        <ele>522.53</ele>
        <time>2017-11-26T10:58:37Z</time>
      </trkpt>
      <trkpt lat="45.31496" lon="5.6481">
        <ele>522.48</ele>
        <time>2017-11-26T10:58:38Z</time>
      </trkpt>
      <trkpt lat="45.31496" lon="5.64812">
        <ele>522.45</ele>
        <time>2017-11-26T10:58:39Z</time>
      </trkpt>
      <trkpt lat="45.31497" lon="5.64816">
        <ele>522.5</ele>
        <time>2017-11-26T10:58:41Z</time>
      </trkpt>
      <trkpt lat="45.31497" lon="5.64817">
        <ele>522.54</ele>
        <time>2017-11-26T10:58:42Z</time>
      </trkpt>
      <trkpt lat="45.31509" lon="5.64844">
        <ele>523.6</ele>
        <time>2017-11-26T10:58:55Z</time>
      </trkpt>
      <trkpt lat="45.31527" lon="5.64865">
        <ele>526.41</ele>
        <time>2017-11-26T10:59:10Z</time>
      </trkpt>
      <trkpt lat="45.31549" lon="5.64891">
        <ele>526.13</ele>
        <time>2017-11-26T10:59:25Z</time>
      </trkpt>
      <trkpt lat="45.31569" lon="5.64922">
        <ele>522.99</ele>
        <time>2017-11-26T10:59:34Z</time>
      </trkpt>
      <trkpt lat="45.3159" lon="5.64949">
        <ele>521.98</ele>
        <time>2017-11-26T10:59:48Z</time>
      </trkpt>
      <trkpt lat="45.31618" lon="5.64967">
        <ele>523.67</ele>
        <time>2017-11-26T11:00:05Z</time>
      </trkpt>
      <trkpt lat="45.31619" lon="5.64968">
        <ele>523.81</ele>
        <time>2017-11-26T11:00:06Z</time>
      </trkpt>
      <trkpt lat="45.3162" lon="5.64969">
        <ele>523.99</ele>
        <time>2017-11-26T11:00:07Z</time>
      </trkpt>
      <trkpt lat="45.31621" lon="5.64969">
        <ele>524.2</ele>
        <time>2017-11-26T11:00:08Z</time>
      </trkpt>
      <trkpt lat="45.31623" lon="5.6497">
        <ele>524.43</ele>
        <time>2017-11-26T11:00:09Z</time>
      </trkpt>
      <trkpt lat="45.31624" lon="5.64971">
        <ele>524.62</ele>
        <time>2017-11-26T11:00:10Z</time>
      </trkpt>
      <trkpt lat="45.31633" lon="5.64977">
        <ele>525.48</ele>
        <time>2017-11-26T11:00:17Z</time>
      </trkpt>
      <trkpt lat="45.31635" lon="5.64978">
        <ele>525.6</ele>
        <time>2017-11-26T11:00:18Z</time>
      </trkpt>
      <trkpt lat="45.31647" lon="5.6499">
        <ele>526.31</ele>
        <time>2017-11-26T11:00:27Z</time>
      </trkpt>
      <trkpt lat="45.31648" lon="5.64991">
        <ele>526.38</ele>
        <time>2017-11-26T11:00:28Z</time>
      </trkpt>
      <trkpt lat="45.31667" lon="5.65009">
        <ele>526.52</ele>
        <time>2017-11-26T11:00:40Z</time>
      </trkpt>
      <trkpt lat="45.31686" lon="5.65021">
        <ele>526.4</ele>
        <time>2017-11-26T11:00:53Z</time>
      </trkpt>
      <trkpt lat="45.31687" lon="5.65022">
        <ele>526.37</ele>
        <time>2017-11-26T11:00:54Z</time>
      </trkpt>
      <trkpt lat="45.31709" lon="5.6504">
        <ele>526.99</ele>
        <time>2017-11-26T11:01:08Z</time>
      </trkpt>
      <trkpt lat="45.31725" lon="5.65051">
        <ele>527.19</ele>
        <time>2017-11-26T11:01:17Z</time>
      </trkpt>
      <trkpt lat="45.31726" lon="5.65052">
        <ele>527.25</ele>
        <time>2017-11-26T11:01:18Z</time>
      </trkpt>
      <trkpt lat="45.31728" lon="5.65054">
        <ele>527.33</ele>
        <time>2017-11-26T11:01:19Z</time>
      </trkpt>
      <trkpt lat="45.3173" lon="5.65056">
        <ele>527.42</ele>
        <time>2017-11-26T11:01:20Z</time>
      </trkpt>
      <trkpt lat="45.31732" lon="5.65058">
        <ele>527.53</ele>
        <time>2017-11-26T11:01:21Z</time>
      </trkpt>
      <trkpt lat="45.31746" lon="5.65071">
        <ele>529.78</ele>
        <time>2017-11-26T11:01:30Z</time>
      </trkpt>
      <trkpt lat="45.31766" lon="5.65093">
        <ele>528.99</ele>
        <time>2017-11-26T11:01:39Z</time>
      </trkpt>
      <trkpt lat="45.31768" lon="5.65095">
        <ele>528.91</ele>
        <time>2017-11-26T11:01:40Z</time>
      </trkpt>
      <trkpt lat="45.31771" lon="5.65097">
        <ele>528.79</ele>
        <time>2017-11-26T11:01:41Z</time>
      </trkpt>
      <trkpt lat="45.31802" lon="5.65123">
        <ele>530.16</ele>
        <time>2017-11-26T11:01:55Z</time>
      </trkpt>
      <trkpt lat="45.31821" lon="5.6514">
        <ele>530.05</ele>
        <time>2017-11-26T11:02:04Z</time>
      </trkpt>
      <trkpt lat="45.31823" lon="5.65142">
        <ele>530.15</ele>
        <time>2017-11-26T11:02:05Z</time>
      </trkpt>
      <trkpt lat="45.31824" lon="5.65143">
        <ele>530.56</ele>
        <time>2017-11-26T11:02:06Z</time>
      </trkpt>
      <trkpt lat="45.31843" lon="5.65164">
        <ele>533.28</ele>
        <time>2017-11-26T11:02:17Z</time>
      </trkpt>
      <trkpt lat="45.31856" lon="5.65172">
        <ele>533.93</ele>
        <time>2017-11-26T11:02:23Z</time>
      </trkpt>
      <trkpt lat="45.31858" lon="5.65174">
        <ele>533.97</ele>
        <time>2017-11-26T11:02:24Z</time>
      </trkpt>
      <trkpt lat="45.3186" lon="5.65175">
        <ele>534.06</ele>
        <time>2017-11-26T11:02:25Z</time>
      </trkpt>
      <trkpt lat="45.31863" lon="5.65176">
        <ele>534.13</ele>
        <time>2017-11-26T11:02:26Z</time>
      </trkpt>
      <trkpt lat="45.31865" lon="5.65177">
        <ele>534.2</ele>
        <time>2017-11-26T11:02:27Z</time>
      </trkpt>
      <trkpt lat="45.31867" lon="5.65178">
        <ele>534.24</ele>
        <time>2017-11-26T11:02:28Z</time>
      </trkpt>
      <trkpt lat="45.31869" lon="5.65179">
        <ele>534.29</ele>
        <time>2017-11-26T11:02:29Z</time>
      </trkpt>
      <trkpt lat="45.31891" lon="5.65187">
        <ele>535.25</ele>
        <time>2017-11-26T11:02:38Z</time>
      </trkpt>
      <trkpt lat="45.31893" lon="5.65187">
        <ele>535.37</ele>
        <time>2017-11-26T11:02:39Z</time>
      </trkpt>
      <trkpt lat="45.31896" lon="5.65187">
        <ele>535.53</ele>
        <time>2017-11-26T11:02:40Z</time>
      </trkpt>
      <trkpt lat="45.31917" lon="5.65192">
        <ele>535.95</ele>
        <time>2017-11-26T11:02:50Z</time>
      </trkpt>
      <trkpt lat="45.31919" lon="5.65193">
        <ele>536.04</ele>
        <time>2017-11-26T11:02:51Z</time>
      </trkpt>
      <trkpt lat="45.31921" lon="5.65194">
        <ele>536.17</ele>
        <time>2017-11-26T11:02:52Z</time>
      </trkpt>
      <trkpt lat="45.31923" lon="5.65195">
        <ele>536.34</ele>
        <time>2017-11-26T11:02:53Z</time>
      </trkpt>
      <trkpt lat="45.31925" lon="5.65195">
        <ele>536.69</ele>
        <time>2017-11-26T11:02:54Z</time>
      </trkpt>
      <trkpt lat="45.31927" lon="5.65196">
        <ele>536.8</ele>
        <time>2017-11-26T11:02:55Z</time>
      </trkpt>
      <trkpt lat="45.31929" lon="5.65196">
        <ele>536.88</ele>
        <time>2017-11-26T11:02:56Z</time>
      </trkpt>
      <trkpt lat="45.31932" lon="5.65197">
        <ele>536.95</ele>
        <time>2017-11-26T11:02:57Z</time>
      </trkpt>
      <trkpt lat="45.31934" lon="5.65198">
        <ele>537.02</ele>
        <time>2017-11-26T11:02:58Z</time>
      </trkpt>
      <trkpt lat="45.31935" lon="5.65199">
        <ele>537.09</ele>
        <time>2017-11-26T11:02:59Z</time>
      </trkpt>
      <trkpt lat="45.31937" lon="5.65199">
        <ele>537.15</ele>
        <time>2017-11-26T11:03:00Z</time>
      </trkpt>
      <trkpt lat="45.3194" lon="5.652">
        <ele>537.19</ele>
        <time>2017-11-26T11:03:01Z</time>
      </trkpt>
      <trkpt lat="45.31943" lon="5.652">
        <ele>537.21</ele>
        <time>2017-11-26T11:03:02Z</time>
      </trkpt>
      <trkpt lat="45.31952" lon="5.65202">
        <ele>536.86</ele>
        <time>2017-11-26T11:03:05Z</time>
      </trkpt>
      <trkpt lat="45.31956" lon="5.65203">
        <ele>536.57</ele>
        <time>2017-11-26T11:03:06Z</time>
      </trkpt>
      <trkpt lat="45.3196" lon="5.65203">
        <ele>536.21</ele>
        <time>2017-11-26T11:03:07Z</time>
      </trkpt>
      <trkpt lat="45.31964" lon="5.65204">
        <ele>535.86</ele>
        <time>2017-11-26T11:03:08Z</time>
      </trkpt>
      <trkpt lat="45.31969" lon="5.65206">
        <ele>535.48</ele>
        <time>2017-11-26T11:03:09Z</time>
      </trkpt>
      <trkpt lat="45.31974" lon="5.65209">
        <ele>535.18</ele>
        <time>2017-11-26T11:03:10Z</time>
      </trkpt>
      <trkpt lat="45.31979" lon="5.65212">
        <ele>534.86</ele>
        <time>2017-11-26T11:03:11Z</time>
      </trkpt>
      <trkpt lat="45.31984" lon="5.65214">
        <ele>534.55</ele>
        <time>2017-11-26T11:03:12Z</time>
      </trkpt>
      <trkpt lat="45.31987" lon="5.65218">
        <ele>534.19</ele>
        <time>2017-11-26T11:03:13Z</time>
      </trkpt>
      <trkpt lat="45.31991" lon="5.6522">
        <ele>533.79</ele>
        <time>2017-11-26T11:03:14Z</time>
      </trkpt>
      <trkpt lat="45.31995" lon="5.65223">
        <ele>533.28</ele>
        <time>2017-11-26T11:03:15Z</time>
      </trkpt>
      <trkpt lat="45.31999" lon="5.65226">
        <ele>532.56</ele>
        <time>2017-11-26T11:03:16Z</time>
      </trkpt>
      <trkpt lat="45.32007" lon="5.65233">
        <ele>530.72</ele>
        <time>2017-11-26T11:03:18Z</time>
      </trkpt>
      <trkpt lat="45.32012" lon="5.65238">
        <ele>528.87</ele>
        <time>2017-11-26T11:03:19Z</time>
      </trkpt>
      <trkpt lat="45.32016" lon="5.65242">
        <ele>528</ele>
        <time>2017-11-26T11:03:20Z</time>
      </trkpt>
      <trkpt lat="45.32031" lon="5.65255">
        <ele>523.86</ele>
        <time>2017-11-26T11:03:24Z</time>
      </trkpt>
      <trkpt lat="45.32034" lon="5.6526">
        <ele>522.74</ele>
        <time>2017-11-26T11:03:25Z</time>
      </trkpt>
      <trkpt lat="45.32037" lon="5.65264">
        <ele>521.64</ele>
        <time>2017-11-26T11:03:26Z</time>
      </trkpt>
      <trkpt lat="45.3204" lon="5.65268">
        <ele>520.62</ele>
        <time>2017-11-26T11:03:27Z</time>
      </trkpt>
      <trkpt lat="45.32043" lon="5.65273">
        <ele>519.65</ele>
        <time>2017-11-26T11:03:28Z</time>
      </trkpt>
      <trkpt lat="45.32045" lon="5.65279">
        <ele>518.73</ele>
        <time>2017-11-26T11:03:29Z</time>
      </trkpt>
      <trkpt lat="45.32048" lon="5.65283">
        <ele>517.82</ele>
        <time>2017-11-26T11:03:30Z</time>
      </trkpt>
      <trkpt lat="45.3206" lon="5.65306">
        <ele>513.99</ele>
        <time>2017-11-26T11:03:34Z</time>
      </trkpt>
      <trkpt lat="45.32068" lon="5.65316">
        <ele>512.18</ele>
        <time>2017-11-26T11:03:36Z</time>
      </trkpt>
      <trkpt lat="45.32073" lon="5.65321">
        <ele>511.36</ele>
        <time>2017-11-26T11:03:37Z</time>
      </trkpt>
      <trkpt lat="45.32079" lon="5.65323">
        <ele>510.71</ele>
        <time>2017-11-26T11:03:38Z</time>
      </trkpt>
      <trkpt lat="45.32088" lon="5.6533">
        <ele>509.69</ele>
        <time>2017-11-26T11:03:40Z</time>
      </trkpt>
      <trkpt lat="45.32091" lon="5.65334">
        <ele>509.32</ele>
        <time>2017-11-26T11:03:41Z</time>
      </trkpt>
      <trkpt lat="45.32093" lon="5.65338">
        <ele>509.12</ele>
        <time>2017-11-26T11:03:42Z</time>
      </trkpt>
      <trkpt lat="45.32094" lon="5.65343">
        <ele>509.04</ele>
        <time>2017-11-26T11:03:43Z</time>
      </trkpt>
      <trkpt lat="45.32087" lon="5.65354">
        <ele>508.99</ele>
        <time>2017-11-26T11:03:50Z</time>
      </trkpt>
      <trkpt lat="45.32086" lon="5.65355">
        <ele>508.78</ele>
        <time>2017-11-26T11:04:31Z</time>
      </trkpt>
      <trkpt lat="45.32086" lon="5.65356">
        <ele>508.77</ele>
        <time>2017-11-26T11:04:48Z</time>
      </trkpt>
      <trkpt lat="45.32078" lon="5.65357">
        <ele>508.6</ele>
        <time>2017-11-26T11:04:52Z</time>
      </trkpt>
      <trkpt lat="45.32067" lon="5.65355">
        <ele>508.12</ele>
        <time>2017-11-26T11:04:55Z</time>
      </trkpt>
      <trkpt lat="45.32021" lon="5.6534">
        <ele>505.03</ele>
        <time>2017-11-26T11:05:03Z</time>
      </trkpt>
      <trkpt lat="45.31962" lon="5.65317">
        <ele>501.64</ele>
        <time>2017-11-26T11:05:11Z</time>
      </trkpt>
      <trkpt lat="45.31896" lon="5.65299">
        <ele>498.48</ele>
        <time>2017-11-26T11:05:20Z</time>
      </trkpt>
      <trkpt lat="45.31885" lon="5.65296">
        <ele>497.84</ele>
        <time>2017-11-26T11:05:22Z</time>
      </trkpt>
      <trkpt lat="45.3188" lon="5.65298">
        <ele>497.57</ele>
        <time>2017-11-26T11:05:23Z</time>
      </trkpt>
      <trkpt lat="45.31877" lon="5.65302">
        <ele>497.3</ele>
        <time>2017-11-26T11:05:24Z</time>
      </trkpt>
      <trkpt lat="45.31875" lon="5.65307">
        <ele>497.07</ele>
        <time>2017-11-26T11:05:25Z</time>
      </trkpt>
      <trkpt lat="45.31875" lon="5.65314">
        <ele>496.85</ele>
        <time>2017-11-26T11:05:26Z</time>
      </trkpt>
      <trkpt lat="45.31877" lon="5.6532">
        <ele>496.52</ele>
        <time>2017-11-26T11:05:27Z</time>
      </trkpt>
      <trkpt lat="45.3188" lon="5.65324">
        <ele>496.45</ele>
        <time>2017-11-26T11:05:28Z</time>
      </trkpt>
      <trkpt lat="45.31884" lon="5.65327">
        <ele>496.42</ele>
        <time>2017-11-26T11:05:29Z</time>
      </trkpt>
      <trkpt lat="45.31888" lon="5.65328">
        <ele>496.4</ele>
        <time>2017-11-26T11:05:30Z</time>
      </trkpt>
      <trkpt lat="45.31892" lon="5.65328">
        <ele>496.38</ele>
        <time>2017-11-26T11:05:31Z</time>
      </trkpt>
      <trkpt lat="45.31896" lon="5.65328">
        <ele>496.35</ele>
        <time>2017-11-26T11:05:32Z</time>
      </trkpt>
      <trkpt lat="45.31915" lon="5.65332">
        <ele>495.82</ele>
        <time>2017-11-26T11:05:37Z</time>
      </trkpt>
      <trkpt lat="45.31918" lon="5.65336">
        <ele>495.71</ele>
        <time>2017-11-26T11:05:38Z</time>
      </trkpt>
      <trkpt lat="45.3192" lon="5.6534">
        <ele>495.58</ele>
        <time>2017-11-26T11:05:39Z</time>
      </trkpt>
      <trkpt lat="45.31921" lon="5.65345">
        <ele>495.32</ele>
        <time>2017-11-26T11:05:40Z</time>
      </trkpt>
      <trkpt lat="45.31922" lon="5.65351">
        <ele>495.03</ele>
        <time>2017-11-26T11:05:41Z</time>
      </trkpt>
      <trkpt lat="45.31922" lon="5.65357">
        <ele>494.75</ele>
        <time>2017-11-26T11:05:42Z</time>
      </trkpt>
      <trkpt lat="45.31921" lon="5.65364">
        <ele>494.54</ele>
        <time>2017-11-26T11:05:43Z</time>
      </trkpt>
      <trkpt lat="45.3192" lon="5.65371">
        <ele>494.38</ele>
        <time>2017-11-26T11:05:44Z</time>
      </trkpt>
      <trkpt lat="45.31919" lon="5.65378">
        <ele>494.23</ele>
        <time>2017-11-26T11:05:45Z</time>
      </trkpt>
      <trkpt lat="45.31913" lon="5.65407">
        <ele>493.65</ele>
        <time>2017-11-26T11:05:49Z</time>
      </trkpt>
      <trkpt lat="45.31911" lon="5.65414">
        <ele>493.46</ele>
        <time>2017-11-26T11:05:50Z</time>
      </trkpt>
      <trkpt lat="45.31908" lon="5.65421">
        <ele>493.22</ele>
        <time>2017-11-26T11:05:51Z</time>
      </trkpt>
      <trkpt lat="45.31892" lon="5.65456">
        <ele>491.94</ele>
        <time>2017-11-26T11:05:57Z</time>
      </trkpt>
      <trkpt lat="45.3189" lon="5.65461">
        <ele>491.77</ele>
        <time>2017-11-26T11:05:58Z</time>
      </trkpt>
      <trkpt lat="45.31867" lon="5.65514">
        <ele>493.59</ele>
        <time>2017-11-26T11:06:13Z</time>
      </trkpt>
      <trkpt lat="45.31847" lon="5.65552">
        <ele>496.68</ele>
        <time>2017-11-26T11:06:29Z</time>
      </trkpt>
      <trkpt lat="45.31832" lon="5.65578">
        <ele>498.89</ele>
        <time>2017-11-26T11:06:43Z</time>
      </trkpt>
      <trkpt lat="45.31832" lon="5.6558">
        <ele>499.03</ele>
        <time>2017-11-26T11:06:44Z</time>
      </trkpt>
      <trkpt lat="45.31833" lon="5.65582">
        <ele>499.22</ele>
        <time>2017-11-26T11:06:45Z</time>
      </trkpt>
      <trkpt lat="45.31834" lon="5.65584">
        <ele>499.42</ele>
        <time>2017-11-26T11:06:46Z</time>
      </trkpt>
      <trkpt lat="45.31836" lon="5.65584">
        <ele>499.66</ele>
        <time>2017-11-26T11:06:47Z</time>
      </trkpt>
      <trkpt lat="45.31838" lon="5.65584">
        <ele>499.91</ele>
        <time>2017-11-26T11:06:48Z</time>
      </trkpt>
      <trkpt lat="45.3184" lon="5.65583">
        <ele>500.14</ele>
        <time>2017-11-26T11:06:49Z</time>
      </trkpt>
      <trkpt lat="45.31841" lon="5.65582">
        <ele>500.37</ele>
        <time>2017-11-26T11:06:50Z</time>
      </trkpt>
      <trkpt lat="45.31842" lon="5.65581">
        <ele>500.61</ele>
        <time>2017-11-26T11:06:51Z</time>
      </trkpt>
      <trkpt lat="45.31842" lon="5.65581">
        <ele>501.17</ele>
        <time>2017-11-26T11:06:58Z</time>
      </trkpt>
      <trkpt lat="45.31836" lon="5.65582">
        <ele>501.07</ele>
        <time>2017-11-26T11:07:06Z</time>
      </trkpt>
      <trkpt lat="45.31839" lon="5.6558">
        <ele>500.9</ele>
        <time>2017-11-26T11:07:14Z</time>
      </trkpt>
      <trkpt lat="45.31843" lon="5.65579">
        <ele>500.75</ele>
        <time>2017-11-26T11:07:27Z</time>
      </trkpt>
      <trkpt lat="45.31844" lon="5.65578">
        <ele>500.96</ele>
        <time>2017-11-26T11:07:45Z</time>
      </trkpt>
      <trkpt lat="45.31844" lon="5.65577">
        <ele>500.95</ele>
        <time>2017-11-26T11:08:19Z</time>
      </trkpt>
      <trkpt lat="45.31769" lon="5.65631">
        <ele>510.574524</ele>
        <time>2017-11-26T12:20:11Z</time>
      </trkpt>
      <trkpt lat="45.31764" lon="5.65822">
        <ele>539.191833</ele>
        <time>2017-11-26T12:20:12Z</time>
      </trkpt>
      <trkpt lat="45.31945" lon="5.65813">
        <ele>515.9</ele>
        <time>2017-11-26T12:20:27Z</time>
      </trkpt>
      <trkpt lat="45.31993" lon="5.65811">
        <ele>514.36</ele>
        <time>2017-11-26T12:20:41Z</time>
      </trkpt>
      <trkpt lat="45.32032" lon="5.65814">
        <ele>514.97</ele>
        <time>2017-11-26T12:20:55Z</time>
      </trkpt>
      <trkpt lat="45.32084" lon="5.65815">
        <ele>515.41</ele>
        <time>2017-11-26T12:21:15Z</time>
      </trkpt>
      <trkpt lat="45.32142" lon="5.6582">
        <ele>515.43</ele>
        <time>2017-11-26T12:21:32Z</time>
      </trkpt>
      <trkpt lat="45.32146" lon="5.6582">
        <ele>515.4</ele>
        <time>2017-11-26T12:21:33Z</time>
      </trkpt>
      <trkpt lat="45.32224" lon="5.6581">
        <ele>514.15</ele>
        <time>2017-11-26T12:21:52Z</time>
      </trkpt>
      <trkpt lat="45.32289" lon="5.65783">
        <ele>516.58</ele>
        <time>2017-11-26T12:22:12Z</time>
      </trkpt>
      <trkpt lat="45.32341" lon="5.65773">
        <ele>517.44</ele>
        <time>2017-11-26T12:22:28Z</time>
      </trkpt>
      <trkpt lat="45.32388" lon="5.65779">
        <ele>518.29</ele>
        <time>2017-11-26T12:22:43Z</time>
      </trkpt>
      <trkpt lat="45.32421" lon="5.65785">
        <ele>520.78</ele>
        <time>2017-11-26T12:22:57Z</time>
      </trkpt>
      <trkpt lat="45.3245" lon="5.65791">
        <ele>524.11</ele>
        <time>2017-11-26T12:23:12Z</time>
      </trkpt>
      <trkpt lat="45.32474" lon="5.6579">
        <ele>526.72</ele>
        <time>2017-11-26T12:23:27Z</time>
      </trkpt>
      <trkpt lat="45.325" lon="5.65788">
        <ele>529.57</ele>
        <time>2017-11-26T12:23:42Z</time>
      </trkpt>
      <trkpt lat="45.32531" lon="5.65784">
        <ele>532.52</ele>
        <time>2017-11-26T12:24:00Z</time>
      </trkpt>
      <trkpt lat="45.3256" lon="5.65786">
        <ele>535.49</ele>
        <time>2017-11-26T12:24:17Z</time>
      </trkpt>
      <trkpt lat="45.32581" lon="5.65794">
        <ele>537.94</ele>
        <time>2017-11-26T12:24:31Z</time>
      </trkpt>
      <trkpt lat="45.32589" lon="5.65809">
        <ele>539.9</ele>
        <time>2017-11-26T12:24:45Z</time>
      </trkpt>
      <trkpt lat="45.32595" lon="5.65829">
        <ele>542.9</ele>
        <time>2017-11-26T12:24:59Z</time>
      </trkpt>
      <trkpt lat="45.32599" lon="5.65853">
        <ele>545.42</ele>
        <time>2017-11-26T12:25:14Z</time>
      </trkpt>
      <trkpt lat="45.32602" lon="5.65859">
        <ele>545.56</ele>
        <time>2017-11-26T12:25:17Z</time>
      </trkpt>
      <trkpt lat="45.3261" lon="5.65878">
        <ele>547.88</ele>
        <time>2017-11-26T12:25:31Z</time>
      </trkpt>
      <trkpt lat="45.32621" lon="5.65895">
        <ele>550.47</ele>
        <time>2017-11-26T12:25:46Z</time>
      </trkpt>
      <trkpt lat="45.32629" lon="5.65911">
        <ele>553.27</ele>
        <time>2017-11-26T12:26:00Z</time>
      </trkpt>
      <trkpt lat="45.32638" lon="5.65931">
        <ele>556.41</ele>
        <time>2017-11-26T12:26:15Z</time>
      </trkpt>
      <trkpt lat="45.32646" lon="5.65951">
        <ele>559.46</ele>
        <time>2017-11-26T12:26:29Z</time>
      </trkpt>
      <trkpt lat="45.32653" lon="5.65974">
        <ele>562.04</ele>
        <time>2017-11-26T12:26:45Z</time>
      </trkpt>
      <trkpt lat="45.32647" lon="5.65992">
        <ele>565.19</ele>
        <time>2017-11-26T12:26:59Z</time>
      </trkpt>
      <trkpt lat="45.32641" lon="5.66011">
        <ele>568.23</ele>
        <time>2017-11-26T12:27:13Z</time>
      </trkpt>
      <trkpt lat="45.32637" lon="5.6603">
        <ele>571.19</ele>
        <time>2017-11-26T12:27:27Z</time>
      </trkpt>
      <trkpt lat="45.32637" lon="5.66031">
        <ele>571.32</ele>
        <time>2017-11-26T12:27:28Z</time>
      </trkpt>
      <trkpt lat="45.32637" lon="5.66059">
        <ele>573.1</ele>
        <time>2017-11-26T12:27:45Z</time>
      </trkpt>
      <trkpt lat="45.32637" lon="5.6607">
        <ele>573.93</ele>
        <time>2017-11-26T12:27:53Z</time>
      </trkpt>
      <trkpt lat="45.32642" lon="5.66078">
        <ele>574.95</ele>
        <time>2017-11-26T12:28:01Z</time>
      </trkpt>
      <trkpt lat="45.32651" lon="5.66079">
        <ele>576.41</ele>
        <time>2017-11-26T12:28:15Z</time>
      </trkpt>
      <trkpt lat="45.32652" lon="5.6608">
        <ele>576.52</ele>
        <time>2017-11-26T12:28:40Z</time>
      </trkpt>
      <trkpt lat="45.32656" lon="5.6608">
        <ele>576.79</ele>
        <time>2017-11-26T12:29:23Z</time>
      </trkpt>
      <trkpt lat="45.32682" lon="5.66087">
        <ele>577.74</ele>
        <time>2017-11-26T12:29:43Z</time>
      </trkpt>
      <trkpt lat="45.32707" lon="5.66099">
        <ele>579.44</ele>
        <time>2017-11-26T12:29:59Z</time>
      </trkpt>
      <trkpt lat="45.32734" lon="5.66084">
        <ele>580.63</ele>
        <time>2017-11-26T12:30:14Z</time>
      </trkpt>
      <trkpt lat="45.32758" lon="5.66043">
        <ele>582.24</ele>
        <time>2017-11-26T12:30:32Z</time>
      </trkpt>
      <trkpt lat="45.32764" lon="5.6603">
        <ele>581.72</ele>
        <time>2017-11-26T12:30:44Z</time>
      </trkpt>
      <trkpt lat="45.32764" lon="5.66026">
        <ele>581.8</ele>
        <time>2017-11-26T12:30:52Z</time>
      </trkpt>
      <trkpt lat="45.32765" lon="5.66024">
        <ele>581.82</ele>
        <time>2017-11-26T12:30:53Z</time>
      </trkpt>
      <trkpt lat="45.32766" lon="5.66022">
        <ele>581.82</ele>
        <time>2017-11-26T12:30:54Z</time>
      </trkpt>
      <trkpt lat="45.32768" lon="5.66019">
        <ele>581.78</ele>
        <time>2017-11-26T12:30:55Z</time>
      </trkpt>
      <trkpt lat="45.32771" lon="5.66016">
        <ele>581.75</ele>
        <time>2017-11-26T12:30:56Z</time>
      </trkpt>
      <trkpt lat="45.32816" lon="5.65977">
        <ele>581.09</ele>
        <time>2017-11-26T12:31:12Z</time>
      </trkpt>
      <trkpt lat="45.32855" lon="5.65939">
        <ele>581.27</ele>
        <time>2017-11-26T12:31:28Z</time>
      </trkpt>
      <trkpt lat="45.32906" lon="5.65889">
        <ele>582.16</ele>
        <time>2017-11-26T12:31:48Z</time>
      </trkpt>
      <trkpt lat="45.32944" lon="5.6584">
        <ele>582.52</ele>
        <time>2017-11-26T12:32:05Z</time>
      </trkpt>
      <trkpt lat="45.32979" lon="5.65832">
        <ele>582.63</ele>
        <time>2017-11-26T12:32:16Z</time>
      </trkpt>
      <trkpt lat="45.3301" lon="5.65799">
        <ele>582.69</ele>
        <time>2017-11-26T12:32:30Z</time>
      </trkpt>
      <trkpt lat="45.33034" lon="5.65769">
        <ele>583.25</ele>
        <time>2017-11-26T12:32:42Z</time>
      </trkpt>
      <trkpt lat="45.33077" lon="5.65781">
        <ele>583.92</ele>
        <time>2017-11-26T12:32:57Z</time>
      </trkpt>
      <trkpt lat="45.33103" lon="5.65776">
        <ele>585.73</ele>
        <time>2017-11-26T12:33:11Z</time>
      </trkpt>
      <trkpt lat="45.33121" lon="5.65767">
        <ele>588.5</ele>
        <time>2017-11-26T12:33:24Z</time>
      </trkpt>
      <trkpt lat="45.33143" lon="5.65755">
        <ele>590.81</ele>
        <time>2017-11-26T12:33:37Z</time>
      </trkpt>
      <trkpt lat="45.33168" lon="5.65731">
        <ele>593.88</ele>
        <time>2017-11-26T12:33:53Z</time>
      </trkpt>
      <trkpt lat="45.33186" lon="5.65705">
        <ele>596.81</ele>
        <time>2017-11-26T12:34:10Z</time>
      </trkpt>
      <trkpt lat="45.33203" lon="5.65681">
        <ele>599.59</ele>
        <time>2017-11-26T12:34:26Z</time>
      </trkpt>
      <trkpt lat="45.33217" lon="5.65664">
        <ele>602.39</ele>
        <time>2017-11-26T12:34:39Z</time>
      </trkpt>
      <trkpt lat="45.33237" lon="5.65648">
        <ele>605.45</ele>
        <time>2017-11-26T12:34:54Z</time>
      </trkpt>
      <trkpt lat="45.33266" lon="5.65645">
        <ele>608.27</ele>
        <time>2017-11-26T12:35:10Z</time>
      </trkpt>
      <trkpt lat="45.33314" lon="5.65658">
        <ele>610.32</ele>
        <time>2017-11-26T12:35:33Z</time>
      </trkpt>
      <trkpt lat="45.33358" lon="5.65675">
        <ele>612.14</ele>
        <time>2017-11-26T12:35:54Z</time>
      </trkpt>
      <trkpt lat="45.33396" lon="5.65679">
        <ele>613.9</ele>
        <time>2017-11-26T12:36:12Z</time>
      </trkpt>
      <trkpt lat="45.33431" lon="5.65687">
        <ele>615.85</ele>
        <time>2017-11-26T12:36:29Z</time>
      </trkpt>
      <trkpt lat="45.33462" lon="5.65697">
        <ele>618.74</ele>
        <time>2017-11-26T12:36:45Z</time>
      </trkpt>
      <trkpt lat="45.33501" lon="5.65716">
        <ele>620.87</ele>
        <time>2017-11-26T12:37:04Z</time>
      </trkpt>
      <trkpt lat="45.33536" lon="5.65726">
        <ele>622.11</ele>
        <time>2017-11-26T12:37:20Z</time>
      </trkpt>
      <trkpt lat="45.33565" lon="5.65728">
        <ele>624.36</ele>
        <time>2017-11-26T12:37:35Z</time>
      </trkpt>
      <trkpt lat="45.33598" lon="5.65731">
        <ele>626.18</ele>
        <time>2017-11-26T12:37:51Z</time>
      </trkpt>
      <trkpt lat="45.33623" lon="5.65732">
        <ele>627.43</ele>
        <time>2017-11-26T12:38:03Z</time>
      </trkpt>
      <trkpt lat="45.33637" lon="5.65725">
        <ele>628.59</ele>
        <time>2017-11-26T12:38:11Z</time>
      </trkpt>
      <trkpt lat="45.33639" lon="5.65726">
        <ele>628.73</ele>
        <time>2017-11-26T12:38:12Z</time>
      </trkpt>
      <trkpt lat="45.33641" lon="5.65727">
        <ele>628.88</ele>
        <time>2017-11-26T12:38:13Z</time>
      </trkpt>
      <trkpt lat="45.33643" lon="5.65728">
        <ele>629.03</ele>
        <time>2017-11-26T12:38:14Z</time>
      </trkpt>
      <trkpt lat="45.33645" lon="5.6573">
        <ele>629.11</ele>
        <time>2017-11-26T12:38:15Z</time>
      </trkpt>
      <trkpt lat="45.33678" lon="5.65743">
        <ele>628.17</ele>
        <time>2017-11-26T12:38:29Z</time>
      </trkpt>
      <trkpt lat="45.33711" lon="5.65755">
        <ele>628.54</ele>
        <time>2017-11-26T12:38:46Z</time>
      </trkpt>
      <trkpt lat="45.33731" lon="5.65766">
        <ele>629.82</ele>
        <time>2017-11-26T12:39:01Z</time>
      </trkpt>
      <trkpt lat="45.33748" lon="5.65767">
        <ele>632.22</ele>
        <time>2017-11-26T12:39:15Z</time>
      </trkpt>
      <trkpt lat="45.3375" lon="5.65767">
        <ele>632.73</ele>
        <time>2017-11-26T12:39:17Z</time>
      </trkpt>
      <trkpt lat="45.33752" lon="5.65767">
        <ele>633.01</ele>
        <time>2017-11-26T12:39:18Z</time>
      </trkpt>
      <trkpt lat="45.33753" lon="5.65767">
        <ele>633.19</ele>
        <time>2017-11-26T12:39:19Z</time>
      </trkpt>
      <trkpt lat="45.33756" lon="5.65767">
        <ele>633.44</ele>
        <time>2017-11-26T12:39:21Z</time>
      </trkpt>
      <trkpt lat="45.33758" lon="5.65767">
        <ele>633.54</ele>
        <time>2017-11-26T12:39:22Z</time>
      </trkpt>
      <trkpt lat="45.33759" lon="5.65767">
        <ele>633.63</ele>
        <time>2017-11-26T12:39:23Z</time>
      </trkpt>
      <trkpt lat="45.33762" lon="5.65768">
        <ele>633.82</ele>
        <time>2017-11-26T12:39:25Z</time>
      </trkpt>
      <trkpt lat="45.33777" lon="5.65771">
        <ele>635.71</ele>
        <time>2017-11-26T12:39:38Z</time>
      </trkpt>
      <trkpt lat="45.33796" lon="5.65779">
        <ele>637.99</ele>
        <time>2017-11-26T12:39:54Z</time>
      </trkpt>
      <trkpt lat="45.33814" lon="5.65787">
        <ele>640.47</ele>
        <time>2017-11-26T12:40:11Z</time>
      </trkpt>
      <trkpt lat="45.33829" lon="5.65792">
        <ele>643.41</ele>
        <time>2017-11-26T12:40:27Z</time>
      </trkpt>
      <trkpt lat="45.3384" lon="5.65803">
        <ele>646.42</ele>
        <time>2017-11-26T12:40:41Z</time>
      </trkpt>
      <trkpt lat="45.33846" lon="5.6582">
        <ele>649.11</ele>
        <time>2017-11-26T12:40:54Z</time>
      </trkpt>
      <trkpt lat="45.33858" lon="5.6584">
        <ele>651.68</ele>
        <time>2017-11-26T12:41:09Z</time>
      </trkpt>
      <trkpt lat="45.33861" lon="5.65846">
        <ele>652.14</ele>
        <time>2017-11-26T12:41:13Z</time>
      </trkpt>
      <trkpt lat="45.33862" lon="5.65848">
        <ele>652.25</ele>
        <time>2017-11-26T12:41:14Z</time>
      </trkpt>
      <trkpt lat="45.33865" lon="5.65855">
        <ele>652.59</ele>
        <time>2017-11-26T12:41:18Z</time>
      </trkpt>
      <trkpt lat="45.33866" lon="5.65856">
        <ele>652.64</ele>
        <time>2017-11-26T12:41:19Z</time>
      </trkpt>
      <trkpt lat="45.33872" lon="5.65862">
        <ele>652.89</ele>
        <time>2017-11-26T12:41:32Z</time>
      </trkpt>
      <trkpt lat="45.33874" lon="5.65864">
        <ele>652.76</ele>
        <time>2017-11-26T12:42:07Z</time>
      </trkpt>
      <trkpt lat="45.33876" lon="5.65866">
        <ele>652.75</ele>
        <time>2017-11-26T12:42:10Z</time>
      </trkpt>
      <trkpt lat="45.33888" lon="5.65883">
        <ele>653.1</ele>
        <time>2017-11-26T12:42:23Z</time>
      </trkpt>
      <trkpt lat="45.33904" lon="5.65894">
        <ele>655.44</ele>
        <time>2017-11-26T12:42:37Z</time>
      </trkpt>
      <trkpt lat="45.33922" lon="5.65907">
        <ele>658.31</ele>
        <time>2017-11-26T12:42:53Z</time>
      </trkpt>
      <trkpt lat="45.33925" lon="5.65909">
        <ele>658.41</ele>
        <time>2017-11-26T12:42:55Z</time>
      </trkpt>
      <trkpt lat="45.33927" lon="5.6591">
        <ele>658.4</ele>
        <time>2017-11-26T12:42:56Z</time>
      </trkpt>
      <trkpt lat="45.33928" lon="5.65911">
        <ele>658.4</ele>
        <time>2017-11-26T12:42:57Z</time>
      </trkpt>
      <trkpt lat="45.3393" lon="5.65912">
        <ele>658.4</ele>
        <time>2017-11-26T12:42:58Z</time>
      </trkpt>
      <trkpt lat="45.33932" lon="5.65913">
        <ele>658.4</ele>
        <time>2017-11-26T12:42:59Z</time>
      </trkpt>
      <trkpt lat="45.33934" lon="5.65913">
        <ele>658.37</ele>
        <time>2017-11-26T12:43:00Z</time>
      </trkpt>
      <trkpt lat="45.33936" lon="5.65914">
        <ele>658.32</ele>
        <time>2017-11-26T12:43:01Z</time>
      </trkpt>
      <trkpt lat="45.3396" lon="5.65921">
        <ele>656.21</ele>
        <time>2017-11-26T12:43:11Z</time>
      </trkpt>
      <trkpt lat="45.33987" lon="5.65932">
        <ele>654.71</ele>
        <time>2017-11-26T12:43:22Z</time>
      </trkpt>
      <trkpt lat="45.34013" lon="5.65947">
        <ele>654.83</ele>
        <time>2017-11-26T12:43:33Z</time>
      </trkpt>
      <trkpt lat="45.34021" lon="5.65951">
        <ele>655.23</ele>
        <time>2017-11-26T12:43:37Z</time>
      </trkpt>
      <trkpt lat="45.34041" lon="5.65959">
        <ele>657.16</ele>
        <time>2017-11-26T12:43:50Z</time>
      </trkpt>
      <trkpt lat="45.34067" lon="5.65966">
        <ele>660.15</ele>
        <time>2017-11-26T12:44:05Z</time>
      </trkpt>
      <trkpt lat="45.34082" lon="5.65966">
        <ele>660.61</ele>
        <time>2017-11-26T12:44:14Z</time>
      </trkpt>
      <trkpt lat="45.34085" lon="5.65965">
        <ele>660.63</ele>
        <time>2017-11-26T12:44:15Z</time>
      </trkpt>
      <trkpt lat="45.34087" lon="5.65964">
        <ele>660.65</ele>
        <time>2017-11-26T12:44:16Z</time>
      </trkpt>
      <trkpt lat="45.34113" lon="5.65961">
        <ele>660.13</ele>
        <time>2017-11-26T12:44:28Z</time>
      </trkpt>
      <trkpt lat="45.34139" lon="5.65978">
        <ele>659.87</ele>
        <time>2017-11-26T12:44:40Z</time>
      </trkpt>
      <trkpt lat="45.3415" lon="5.65988">
        <ele>660.13</ele>
        <time>2017-11-26T12:44:46Z</time>
      </trkpt>
      <trkpt lat="45.34192" lon="5.6601">
        <ele>658.67</ele>
        <time>2017-11-26T12:44:59Z</time>
      </trkpt>
      <trkpt lat="45.34234" lon="5.66037">
        <ele>656.37</ele>
        <time>2017-11-26T12:45:09Z</time>
      </trkpt>
      <trkpt lat="45.34276" lon="5.66064">
        <ele>654.59</ele>
        <time>2017-11-26T12:45:20Z</time>
      </trkpt>
      <trkpt lat="45.34329" lon="5.66085">
        <ele>652.14</ele>
        <time>2017-11-26T12:45:33Z</time>
      </trkpt>
      <trkpt lat="45.3435" lon="5.66078">
        <ele>652.3</ele>
        <time>2017-11-26T12:45:42Z</time>
      </trkpt>
      <trkpt lat="45.34351" lon="5.66076">
        <ele>652.48</ele>
        <time>2017-11-26T12:45:43Z</time>
      </trkpt>
      <trkpt lat="45.34352" lon="5.66075">
        <ele>652.64</ele>
        <time>2017-11-26T12:45:44Z</time>
      </trkpt>
      <trkpt lat="45.34372" lon="5.66054">
        <ele>653.28</ele>
        <time>2017-11-26T12:45:55Z</time>
      </trkpt>
      <trkpt lat="45.3439" lon="5.66032">
        <ele>653.8</ele>
        <time>2017-11-26T12:46:05Z</time>
      </trkpt>
      <trkpt lat="45.34395" lon="5.66029">
        <ele>653.73</ele>
        <time>2017-11-26T12:46:08Z</time>
      </trkpt>
      <trkpt lat="45.34397" lon="5.66027">
        <ele>653.72</ele>
        <time>2017-11-26T12:46:09Z</time>
      </trkpt>
      <trkpt lat="45.34399" lon="5.66025">
        <ele>653.71</ele>
        <time>2017-11-26T12:46:10Z</time>
      </trkpt>
      <trkpt lat="45.34401" lon="5.66023">
        <ele>653.72</ele>
        <time>2017-11-26T12:46:11Z</time>
      </trkpt>
      <trkpt lat="45.34403" lon="5.66021">
        <ele>653.71</ele>
        <time>2017-11-26T12:46:12Z</time>
      </trkpt>
      <trkpt lat="45.34417" lon="5.66009">
        <ele>653.88</ele>
        <time>2017-11-26T12:46:20Z</time>
      </trkpt>
      <trkpt lat="45.34422" lon="5.66006">
        <ele>653.95</ele>
        <time>2017-11-26T12:46:22Z</time>
      </trkpt>
      <trkpt lat="45.34424" lon="5.66004">
        <ele>653.96</ele>
        <time>2017-11-26T12:46:23Z</time>
      </trkpt>
      <trkpt lat="45.34426" lon="5.66002">
        <ele>653.96</ele>
        <time>2017-11-26T12:46:24Z</time>
      </trkpt>
      <trkpt lat="45.34428" lon="5.66">
        <ele>653.95</ele>
        <time>2017-11-26T12:46:25Z</time>
      </trkpt>
      <trkpt lat="45.34431" lon="5.65998">
        <ele>653.85</ele>
        <time>2017-11-26T12:46:26Z</time>
      </trkpt>
      <trkpt lat="45.34455" lon="5.65989">
        <ele>653.61</ele>
        <time>2017-11-26T12:46:35Z</time>
      </trkpt>
      <trkpt lat="45.34495" lon="5.65975">
        <ele>653.03</ele>
        <time>2017-11-26T12:46:47Z</time>
      </trkpt>
      <trkpt lat="45.34521" lon="5.6597">
        <ele>653.39</ele>
        <time>2017-11-26T12:46:56Z</time>
      </trkpt>
      <trkpt lat="45.3455" lon="5.65971">
        <ele>652.69</ele>
        <time>2017-11-26T12:47:07Z</time>
      </trkpt>
      <trkpt lat="45.34571" lon="5.65977">
        <ele>651.06</ele>
        <time>2017-11-26T12:47:12Z</time>
      </trkpt>
      <trkpt lat="45.34611" lon="5.65996">
        <ele>647.98</ele>
        <time>2017-11-26T12:47:19Z</time>
      </trkpt>
      <trkpt lat="45.34617" lon="5.66001">
        <ele>647.41</ele>
        <time>2017-11-26T12:47:20Z</time>
      </trkpt>
      <trkpt lat="45.34637" lon="5.66019">
        <ele>645.56</ele>
        <time>2017-11-26T12:47:24Z</time>
      </trkpt>
      <trkpt lat="45.34647" lon="5.66029">
        <ele>644.83</ele>
        <time>2017-11-26T12:47:26Z</time>
      </trkpt>
      <trkpt lat="45.34652" lon="5.66033">
        <ele>644.52</ele>
        <time>2017-11-26T12:47:27Z</time>
      </trkpt>
      <trkpt lat="45.34658" lon="5.66035">
        <ele>644.29</ele>
        <time>2017-11-26T12:47:28Z</time>
      </trkpt>
      <trkpt lat="45.34672" lon="5.66042">
        <ele>643.51</ele>
        <time>2017-11-26T12:47:31Z</time>
      </trkpt>
      <trkpt lat="45.34681" lon="5.66045">
        <ele>642.93</ele>
        <time>2017-11-26T12:47:33Z</time>
      </trkpt>
      <trkpt lat="45.34686" lon="5.66047">
        <ele>642.76</ele>
        <time>2017-11-26T12:47:34Z</time>
      </trkpt>
      <trkpt lat="45.3469" lon="5.66049">
        <ele>642.63</ele>
        <time>2017-11-26T12:47:35Z</time>
      </trkpt>
      <trkpt lat="45.34693" lon="5.66053">
        <ele>642.53</ele>
        <time>2017-11-26T12:47:36Z</time>
      </trkpt>
      <trkpt lat="45.34697" lon="5.66056">
        <ele>642.45</ele>
        <time>2017-11-26T12:47:37Z</time>
      </trkpt>
      <trkpt lat="45.34706" lon="5.66062">
        <ele>641.93</ele>
        <time>2017-11-26T12:47:39Z</time>
      </trkpt>
      <trkpt lat="45.34726" lon="5.66074">
        <ele>641.08</ele>
        <time>2017-11-26T12:47:43Z</time>
      </trkpt>
      <trkpt lat="45.34739" lon="5.66081">
        <ele>640.57</ele>
        <time>2017-11-26T12:47:46Z</time>
      </trkpt>
      <trkpt lat="45.34756" lon="5.66086">
        <ele>640.16</ele>
        <time>2017-11-26T12:47:50Z</time>
      </trkpt>
      <trkpt lat="45.34806" lon="5.66103">
        <ele>641.99</ele>
        <time>2017-11-26T12:48:06Z</time>
      </trkpt>
      <trkpt lat="45.34855" lon="5.66109">
        <ele>642.76</ele>
        <time>2017-11-26T12:48:22Z</time>
      </trkpt>
      <trkpt lat="45.34868" lon="5.66114">
        <ele>642.19</ele>
        <time>2017-11-26T12:48:25Z</time>
      </trkpt>
      <trkpt lat="45.34884" lon="5.66124">
        <ele>640.97</ele>
        <time>2017-11-26T12:48:28Z</time>
      </trkpt>
      <trkpt lat="45.34889" lon="5.66129">
        <ele>640.57</ele>
        <time>2017-11-26T12:48:29Z</time>
      </trkpt>
      <trkpt lat="45.34919" lon="5.66161">
        <ele>638.28</ele>
        <time>2017-11-26T12:48:35Z</time>
      </trkpt>
      <trkpt lat="45.34971" lon="5.66219">
        <ele>636.7</ele>
        <time>2017-11-26T12:48:49Z</time>
      </trkpt>
      <trkpt lat="45.34974" lon="5.66222">
        <ele>636.77</ele>
        <time>2017-11-26T12:48:51Z</time>
      </trkpt>
      <trkpt lat="45.34976" lon="5.66222">
        <ele>636.81</ele>
        <time>2017-11-26T12:48:52Z</time>
      </trkpt>
      <trkpt lat="45.35016" lon="5.66206">
        <ele>636.95</ele>
        <time>2017-11-26T12:49:05Z</time>
      </trkpt>
      <trkpt lat="45.35044" lon="5.66181">
        <ele>636.59</ele>
        <time>2017-11-26T12:49:16Z</time>
      </trkpt>
      <trkpt lat="45.35047" lon="5.66182">
        <ele>636.53</ele>
        <time>2017-11-26T12:49:17Z</time>
      </trkpt>
      <trkpt lat="45.35051" lon="5.66184">
        <ele>636.47</ele>
        <time>2017-11-26T12:49:18Z</time>
      </trkpt>
      <trkpt lat="45.35054" lon="5.66187">
        <ele>636.36</ele>
        <time>2017-11-26T12:49:19Z</time>
      </trkpt>
      <trkpt lat="45.35058" lon="5.6619">
        <ele>636.21</ele>
        <time>2017-11-26T12:49:20Z</time>
      </trkpt>
      <trkpt lat="45.35094" lon="5.66224">
        <ele>634.26</ele>
        <time>2017-11-26T12:49:29Z</time>
      </trkpt>
      <trkpt lat="45.35098" lon="5.6623">
        <ele>633.99</ele>
        <time>2017-11-26T12:49:30Z</time>
      </trkpt>
      <trkpt lat="45.35101" lon="5.66236">
        <ele>633.71</ele>
        <time>2017-11-26T12:49:31Z</time>
      </trkpt>
      <trkpt lat="45.35103" lon="5.66242">
        <ele>633.47</ele>
        <time>2017-11-26T12:49:32Z</time>
      </trkpt>
      <trkpt lat="45.35105" lon="5.6625">
        <ele>633.29</ele>
        <time>2017-11-26T12:49:33Z</time>
      </trkpt>
      <trkpt lat="45.35105" lon="5.66258">
        <ele>633.18</ele>
        <time>2017-11-26T12:49:34Z</time>
      </trkpt>
      <trkpt lat="45.35104" lon="5.66265">
        <ele>633.06</ele>
        <time>2017-11-26T12:49:35Z</time>
      </trkpt>
      <trkpt lat="45.35104" lon="5.66272">
        <ele>632.88</ele>
        <time>2017-11-26T12:49:36Z</time>
      </trkpt>
      <trkpt lat="45.35102" lon="5.6628">
        <ele>632.6</ele>
        <time>2017-11-26T12:49:37Z</time>
      </trkpt>
      <trkpt lat="45.351" lon="5.66287">
        <ele>632.3</ele>
        <time>2017-11-26T12:49:38Z</time>
      </trkpt>
      <trkpt lat="45.35099" lon="5.66294">
        <ele>632.08</ele>
        <time>2017-11-26T12:49:39Z</time>
      </trkpt>
      <trkpt lat="45.35099" lon="5.66303">
        <ele>631.8</ele>
        <time>2017-11-26T12:49:40Z</time>
      </trkpt>
      <trkpt lat="45.35102" lon="5.66311">
        <ele>631.52</ele>
        <time>2017-11-26T12:49:41Z</time>
      </trkpt>
      <trkpt lat="45.35107" lon="5.66316">
        <ele>631.02</ele>
        <time>2017-11-26T12:49:42Z</time>
      </trkpt>
      <trkpt lat="45.35112" lon="5.66319">
        <ele>630.42</ele>
        <time>2017-11-26T12:49:43Z</time>
      </trkpt>
      <trkpt lat="45.35117" lon="5.6632">
        <ele>630.01</ele>
        <time>2017-11-26T12:49:44Z</time>
      </trkpt>
      <trkpt lat="45.35121" lon="5.6632">
        <ele>629.81</ele>
        <time>2017-11-26T12:49:45Z</time>
      </trkpt>
      <trkpt lat="45.35124" lon="5.66319">
        <ele>629.7</ele>
        <time>2017-11-26T12:49:46Z</time>
      </trkpt>
      <trkpt lat="45.35127" lon="5.66317">
        <ele>629.75</ele>
        <time>2017-11-26T12:49:47Z</time>
      </trkpt>
      <trkpt lat="45.35129" lon="5.66316">
        <ele>629.97</ele>
        <time>2017-11-26T12:49:48Z</time>
      </trkpt>
      <trkpt lat="45.35131" lon="5.66313">
        <ele>630.23</ele>
        <time>2017-11-26T12:49:49Z</time>
      </trkpt>
      <trkpt lat="45.35132" lon="5.66311">
        <ele>630.5</ele>
        <time>2017-11-26T12:49:50Z</time>
      </trkpt>
      <trkpt lat="45.35154" lon="5.66291">
        <ele>633.51</ele>
        <time>2017-11-26T12:50:05Z</time>
      </trkpt>
      <trkpt lat="45.35172" lon="5.66275">
        <ele>636.55</ele>
        <time>2017-11-26T12:50:17Z</time>
      </trkpt>
      <trkpt lat="45.35178" lon="5.66267">
        <ele>637.74</ele>
        <time>2017-11-26T12:50:24Z</time>
      </trkpt>
      <trkpt lat="45.35178" lon="5.66265">
        <ele>637.93</ele>
        <time>2017-11-26T12:50:25Z</time>
      </trkpt>
      <trkpt lat="45.35179" lon="5.66264">
        <ele>638.08</ele>
        <time>2017-11-26T12:50:26Z</time>
      </trkpt>
      <trkpt lat="45.3518" lon="5.66265">
        <ele>638.2</ele>
        <time>2017-11-26T12:50:27Z</time>
      </trkpt>
      <trkpt lat="45.35182" lon="5.66265">
        <ele>638.4</ele>
        <time>2017-11-26T12:50:28Z</time>
      </trkpt>
      <trkpt lat="45.35183" lon="5.66264">
        <ele>638.4</ele>
        <time>2017-11-26T12:50:29Z</time>
      </trkpt>
      <trkpt lat="45.35184" lon="5.66263">
        <ele>638.76</ele>
        <time>2017-11-26T12:50:30Z</time>
      </trkpt>
      <trkpt lat="45.35184" lon="5.66261">
        <ele>638.96</ele>
        <time>2017-11-26T12:50:31Z</time>
      </trkpt>
      <trkpt lat="45.35184" lon="5.66259">
        <ele>639.15</ele>
        <time>2017-11-26T12:50:32Z</time>
      </trkpt>
      <trkpt lat="45.35185" lon="5.66258">
        <ele>639.32</ele>
        <time>2017-11-26T12:50:33Z</time>
      </trkpt>
      <trkpt lat="45.35186" lon="5.66256">
        <ele>639.47</ele>
        <time>2017-11-26T12:50:34Z</time>
      </trkpt>
      <trkpt lat="45.35186" lon="5.66255">
        <ele>639.6</ele>
        <time>2017-11-26T12:50:35Z</time>
      </trkpt>
      <trkpt lat="45.35187" lon="5.66254">
        <ele>639.71</ele>
        <time>2017-11-26T12:50:36Z</time>
      </trkpt>
      <trkpt lat="45.35199" lon="5.6625">
        <ele>641.12</ele>
        <time>2017-11-26T12:50:48Z</time>
      </trkpt>
      <trkpt lat="45.35199" lon="5.66248">
        <ele>641.21</ele>
        <time>2017-11-26T12:50:49Z</time>
      </trkpt>
      <trkpt lat="45.35198" lon="5.66239">
        <ele>641.83</ele>
        <time>2017-11-26T12:50:54Z</time>
      </trkpt>
      <trkpt lat="45.35201" lon="5.66236">
        <ele>642.3</ele>
        <time>2017-11-26T12:50:57Z</time>
      </trkpt>
      <trkpt lat="45.35204" lon="5.66234">
        <ele>642.99</ele>
        <time>2017-11-26T12:51:00Z</time>
      </trkpt>
      <trkpt lat="45.35206" lon="5.66213">
        <ele>646.25</ele>
        <time>2017-11-26T12:51:14Z</time>
      </trkpt>
      <trkpt lat="45.3521" lon="5.66198">
        <ele>648.38</ele>
        <time>2017-11-26T12:51:24Z</time>
      </trkpt>
      <trkpt lat="45.35218" lon="5.66189">
        <ele>650.39</ele>
        <time>2017-11-26T12:51:32Z</time>
      </trkpt>
      <trkpt lat="45.35228" lon="5.6619">
        <ele>653.87</ele>
        <time>2017-11-26T12:51:44Z</time>
      </trkpt>
      <trkpt lat="45.35238" lon="5.66186">
        <ele>654.79</ele>
        <time>2017-11-26T12:52:02Z</time>
      </trkpt>
      <trkpt lat="45.35249" lon="5.66175">
        <ele>654.79</ele>
        <time>2017-11-26T12:52:19Z</time>
      </trkpt>
      <trkpt lat="45.35252" lon="5.66173">
        <ele>654.79</ele>
        <time>2017-11-26T12:52:21Z</time>
      </trkpt>
      <trkpt lat="45.3526" lon="5.66165">
        <ele>657.96</ele>
        <time>2017-11-26T12:52:27Z</time>
      </trkpt>
      <trkpt lat="45.35272" lon="5.6615">
        <ele>660.73</ele>
        <time>2017-11-26T12:52:37Z</time>
      </trkpt>
      <trkpt lat="45.35289" lon="5.66134">
        <ele>663.63</ele>
        <time>2017-11-26T12:52:55Z</time>
      </trkpt>
      <trkpt lat="45.35297" lon="5.66129">
        <ele>664.86</ele>
        <time>2017-11-26T12:53:07Z</time>
      </trkpt>
      <trkpt lat="45.35301" lon="5.66126">
        <ele>665.49</ele>
        <time>2017-11-26T12:53:11Z</time>
      </trkpt>
      <trkpt lat="45.35317" lon="5.66123">
        <ele>667.92</ele>
        <time>2017-11-26T12:53:27Z</time>
      </trkpt>
      <trkpt lat="45.35331" lon="5.66123">
        <ele>669.71</ele>
        <time>2017-11-26T12:53:40Z</time>
      </trkpt>
      <trkpt lat="45.35346" lon="5.66121">
        <ele>671.24</ele>
        <time>2017-11-26T12:53:54Z</time>
      </trkpt>
      <trkpt lat="45.35363" lon="5.66113">
        <ele>672.76</ele>
        <time>2017-11-26T12:54:10Z</time>
      </trkpt>
      <trkpt lat="45.35371" lon="5.66114">
        <ele>673.8</ele>
        <time>2017-11-26T12:54:25Z</time>
      </trkpt>
      <trkpt lat="45.35373" lon="5.66115">
        <ele>674.03</ele>
        <time>2017-11-26T12:54:41Z</time>
      </trkpt>
      <trkpt lat="45.35375" lon="5.66116">
        <ele>674.01</ele>
        <time>2017-11-26T12:54:48Z</time>
      </trkpt>
      <trkpt lat="45.3538" lon="5.66119">
        <ele>674.15</ele>
        <time>2017-11-26T12:54:52Z</time>
      </trkpt>
      <trkpt lat="45.35414" lon="5.66131">
        <ele>675.48</ele>
        <time>2017-11-26T12:55:12Z</time>
      </trkpt>
      <trkpt lat="45.35445" lon="5.66139">
        <ele>675.71</ele>
        <time>2017-11-26T12:55:26Z</time>
      </trkpt>
      <trkpt lat="45.35449" lon="5.66139">
        <ele>675.75</ele>
        <time>2017-11-26T12:55:28Z</time>
      </trkpt>
      <trkpt lat="45.35451" lon="5.66138">
        <ele>675.74</ele>
        <time>2017-11-26T12:55:29Z</time>
      </trkpt>
      <trkpt lat="45.35454" lon="5.66137">
        <ele>675.73</ele>
        <time>2017-11-26T12:55:30Z</time>
      </trkpt>
      <trkpt lat="45.35482" lon="5.66136">
        <ele>677.04</ele>
        <time>2017-11-26T12:55:44Z</time>
      </trkpt>
      <trkpt lat="45.35493" lon="5.66137">
        <ele>677.85</ele>
        <time>2017-11-26T12:55:51Z</time>
      </trkpt>
      <trkpt lat="45.35495" lon="5.66137">
        <ele>677.76</ele>
        <time>2017-11-26T12:55:52Z</time>
      </trkpt>
      <trkpt lat="45.35497" lon="5.66137">
        <ele>677.63</ele>
        <time>2017-11-26T12:55:53Z</time>
      </trkpt>
      <trkpt lat="45.355" lon="5.66137">
        <ele>677.42</ele>
        <time>2017-11-26T12:55:54Z</time>
      </trkpt>
      <trkpt lat="45.35503" lon="5.66138">
        <ele>677.16</ele>
        <time>2017-11-26T12:55:55Z</time>
      </trkpt>
      <trkpt lat="45.35505" lon="5.66137">
        <ele>676.81</ele>
        <time>2017-11-26T12:55:56Z</time>
      </trkpt>
      <trkpt lat="45.35508" lon="5.66137">
        <ele>676.48</ele>
        <time>2017-11-26T12:55:57Z</time>
      </trkpt>
      <trkpt lat="45.35539" lon="5.66144">
        <ele>673.74</ele>
        <time>2017-11-26T12:56:05Z</time>
      </trkpt>
      <trkpt lat="45.3558" lon="5.66154">
        <ele>671.94</ele>
        <time>2017-11-26T12:56:17Z</time>
      </trkpt>
      <trkpt lat="45.35615" lon="5.66157">
        <ele>670.32</ele>
        <time>2017-11-26T12:56:27Z</time>
      </trkpt>
      <trkpt lat="45.35656" lon="5.66158">
        <ele>667.81</ele>
        <time>2017-11-26T12:56:35Z</time>
      </trkpt>
      <trkpt lat="45.35681" lon="5.66167">
        <ele>665.53</ele>
        <time>2017-11-26T12:56:40Z</time>
      </trkpt>
      <trkpt lat="45.35713" lon="5.6618">
        <ele>665.52</ele>
        <time>2017-11-26T12:56:51Z</time>
      </trkpt>
      <trkpt lat="45.35736" lon="5.66186">
        <ele>668.05</ele>
        <time>2017-11-26T12:57:02Z</time>
      </trkpt>
      <trkpt lat="45.35745" lon="5.66186">
        <ele>668.85</ele>
        <time>2017-11-26T12:57:06Z</time>
      </trkpt>
      <trkpt lat="45.3578" lon="5.66189">
        <ele>667.33</ele>
        <time>2017-11-26T12:57:16Z</time>
      </trkpt>
      <trkpt lat="45.35801" lon="5.66188">
        <ele>667.3</ele>
        <time>2017-11-26T12:57:25Z</time>
      </trkpt>
      <trkpt lat="45.35821" lon="5.66163">
        <ele>667.51</ele>
        <time>2017-11-26T12:57:36Z</time>
      </trkpt>
      <trkpt lat="45.35823" lon="5.66161">
        <ele>667.64</ele>
        <time>2017-11-26T12:57:37Z</time>
      </trkpt>
      <trkpt lat="45.35832" lon="5.66139">
        <ele>668.51</ele>
        <time>2017-11-26T12:57:45Z</time>
      </trkpt>
      <trkpt lat="45.3584" lon="5.66115">
        <ele>669.94</ele>
        <time>2017-11-26T12:57:56Z</time>
      </trkpt>
      <trkpt lat="45.35841" lon="5.66108">
        <ele>670.46</ele>
        <time>2017-11-26T12:57:59Z</time>
      </trkpt>
      <trkpt lat="45.35844" lon="5.66098">
        <ele>671.32</ele>
        <time>2017-11-26T12:58:03Z</time>
      </trkpt>
      <trkpt lat="45.35852" lon="5.66061">
        <ele>673.67</ele>
        <time>2017-11-26T12:58:21Z</time>
      </trkpt>
      <trkpt lat="45.35853" lon="5.66058">
        <ele>673.95</ele>
        <time>2017-11-26T12:58:23Z</time>
      </trkpt>
      <trkpt lat="45.35856" lon="5.66041">
        <ele>675.71</ele>
        <time>2017-11-26T12:58:33Z</time>
      </trkpt>
      <trkpt lat="45.35854" lon="5.66028">
        <ele>676.26</ele>
        <time>2017-11-26T12:58:39Z</time>
      </trkpt>
      <trkpt lat="45.35853" lon="5.66021">
        <ele>676.26</ele>
        <time>2017-11-26T12:58:42Z</time>
      </trkpt>
      <trkpt lat="45.35847" lon="5.65998">
        <ele>677.79</ele>
        <time>2017-11-26T12:58:54Z</time>
      </trkpt>
      <trkpt lat="45.35847" lon="5.65987">
        <ele>678.81</ele>
        <time>2017-11-26T12:59:00Z</time>
      </trkpt>
      <trkpt lat="45.35848" lon="5.65982">
        <ele>679.22</ele>
        <time>2017-11-26T12:59:02Z</time>
      </trkpt>
      <trkpt lat="45.35858" lon="5.65968">
        <ele>679.27</ele>
        <time>2017-11-26T12:59:11Z</time>
      </trkpt>
      <trkpt lat="45.3586" lon="5.65963">
        <ele>679.06</ele>
        <time>2017-11-26T12:59:13Z</time>
      </trkpt>
      <trkpt lat="45.35861" lon="5.65961">
        <ele>678.93</ele>
        <time>2017-11-26T12:59:14Z</time>
      </trkpt>
      <trkpt lat="45.35862" lon="5.65959">
        <ele>678.81</ele>
        <time>2017-11-26T12:59:15Z</time>
      </trkpt>
      <trkpt lat="45.35863" lon="5.65956">
        <ele>678.71</ele>
        <time>2017-11-26T12:59:16Z</time>
      </trkpt>
      <trkpt lat="45.35863" lon="5.6595">
        <ele>677.72</ele>
        <time>2017-11-26T12:59:33Z</time>
      </trkpt>
      <trkpt lat="45.35862" lon="5.65944">
        <ele>677.06</ele>
        <time>2017-11-26T13:00:31Z</time>
      </trkpt>
      <trkpt lat="45.35863" lon="5.65944">
        <ele>677.06</ele>
        <time>2017-11-26T13:00:57Z</time>
      </trkpt>
      <trkpt lat="45.35863" lon="5.65944">
        <ele>677.06</ele>
        <time>2017-11-26T13:02:23Z</time>
      </trkpt>
      <trkpt lat="45.35862" lon="5.65941">
        <ele>677.06</ele>
        <time>2017-11-26T13:05:51Z</time>
      </trkpt>
      <trkpt lat="45.35863" lon="5.65941">
        <ele>677.06</ele>
        <time>2017-11-26T13:06:38Z</time>
      </trkpt>
      <trkpt lat="45.35862" lon="5.65939">
        <ele>677.06</ele>
        <time>2017-11-26T13:07:09Z</time>
      </trkpt>
      <trkpt lat="45.35863" lon="5.65936">
        <ele>677.06</ele>
        <time>2017-11-26T13:07:18Z</time>
      </trkpt>
      <trkpt lat="45.35863" lon="5.65934">
        <ele>677.06</ele>
        <time>2017-11-26T13:07:19Z</time>
      </trkpt>
      <trkpt lat="45.35866" lon="5.6592">
        <ele>677.1</ele>
        <time>2017-11-26T13:07:26Z</time>
      </trkpt>
      <trkpt lat="45.35866" lon="5.65918">
        <ele>677.14</ele>
        <time>2017-11-26T13:07:27Z</time>
      </trkpt>
      <trkpt lat="45.35866" lon="5.65917">
        <ele>677.23</ele>
        <time>2017-11-26T13:07:28Z</time>
      </trkpt>
      <trkpt lat="45.35866" lon="5.65915">
        <ele>677.3</ele>
        <time>2017-11-26T13:07:29Z</time>
      </trkpt>
      <trkpt lat="45.35866" lon="5.65914">
        <ele>677.37</ele>
        <time>2017-11-26T13:07:30Z</time>
      </trkpt>
      <trkpt lat="45.35865" lon="5.65912">
        <ele>677.41</ele>
        <time>2017-11-26T13:07:31Z</time>
      </trkpt>
      <trkpt lat="45.35865" lon="5.6591">
        <ele>677.47</ele>
        <time>2017-11-26T13:07:32Z</time>
      </trkpt>
      <trkpt lat="45.35863" lon="5.65894">
        <ele>678.03</ele>
        <time>2017-11-26T13:07:48Z</time>
      </trkpt>
      <trkpt lat="45.35863" lon="5.65893">
        <ele>677.89</ele>
        <time>2017-11-26T13:07:56Z</time>
      </trkpt>
      <trkpt lat="45.35864" lon="5.65892">
        <ele>677.88</ele>
        <time>2017-11-26T13:07:57Z</time>
      </trkpt>
      <trkpt lat="45.35889" lon="5.65878">
        <ele>677.42</ele>
        <time>2017-11-26T13:08:09Z</time>
      </trkpt>
      <trkpt lat="45.35928" lon="5.65846">
        <ele>675.71</ele>
        <time>2017-11-26T13:08:24Z</time>
      </trkpt>
      <trkpt lat="45.35966" lon="5.6581">
        <ele>675.98</ele>
        <time>2017-11-26T13:08:43Z</time>
      </trkpt>
      <trkpt lat="45.35986" lon="5.6579">
        <ele>677.21</ele>
        <time>2017-11-26T13:08:58Z</time>
      </trkpt>
      <trkpt lat="45.35998" lon="5.65778">
        <ele>679.98</ele>
        <time>2017-11-26T13:09:11Z</time>
      </trkpt>
      <trkpt lat="45.36003" lon="5.65777">
        <ele>681</ele>
        <time>2017-11-26T13:09:15Z</time>
      </trkpt>
      <trkpt lat="45.36006" lon="5.65776">
        <ele>681.35</ele>
        <time>2017-11-26T13:09:17Z</time>
      </trkpt>
      <trkpt lat="45.36017" lon="5.65775">
        <ele>683.03</ele>
        <time>2017-11-26T13:09:26Z</time>
      </trkpt>
      <trkpt lat="45.36032" lon="5.65762">
        <ele>684.42</ele>
        <time>2017-11-26T13:09:41Z</time>
      </trkpt>
      <trkpt lat="45.36042" lon="5.65744">
        <ele>687.55</ele>
        <time>2017-11-26T13:09:55Z</time>
      </trkpt>
      <trkpt lat="45.36053" lon="5.65727">
        <ele>689.16</ele>
        <time>2017-11-26T13:10:10Z</time>
      </trkpt>
      <trkpt lat="45.3606" lon="5.65725">
        <ele>688.74</ele>
        <time>2017-11-26T13:10:15Z</time>
      </trkpt>
      <trkpt lat="45.36065" lon="5.65725">
        <ele>687.97</ele>
        <time>2017-11-26T13:10:18Z</time>
      </trkpt>
      <trkpt lat="45.36079" lon="5.65707">
        <ele>686.87</ele>
        <time>2017-11-26T13:10:27Z</time>
      </trkpt>
      <trkpt lat="45.36089" lon="5.65698">
        <ele>687.23</ele>
        <time>2017-11-26T13:10:35Z</time>
      </trkpt>
      <trkpt lat="45.36095" lon="5.65693">
        <ele>687.11</ele>
        <time>2017-11-26T13:10:38Z</time>
      </trkpt>
      <trkpt lat="45.36109" lon="5.65676">
        <ele>686.41</ele>
        <time>2017-11-26T13:10:45Z</time>
      </trkpt>
      <trkpt lat="45.36114" lon="5.65647">
        <ele>687.39</ele>
        <time>2017-11-26T13:10:59Z</time>
      </trkpt>
      <trkpt lat="45.36113" lon="5.65632">
        <ele>688.7</ele>
        <time>2017-11-26T13:11:08Z</time>
      </trkpt>
      <trkpt lat="45.36117" lon="5.65627">
        <ele>689.48</ele>
        <time>2017-11-26T13:11:13Z</time>
      </trkpt>
      <trkpt lat="45.36141" lon="5.65619">
        <ele>688.1</ele>
        <time>2017-11-26T13:11:25Z</time>
      </trkpt>
      <trkpt lat="45.36167" lon="5.65624">
        <ele>686.75</ele>
        <time>2017-11-26T13:11:37Z</time>
      </trkpt>
      <trkpt lat="45.36199" lon="5.65631">
        <ele>686.09</ele>
        <time>2017-11-26T13:11:48Z</time>
      </trkpt>
      <trkpt lat="45.36227" lon="5.65628">
        <ele>684.84</ele>
        <time>2017-11-26T13:11:57Z</time>
      </trkpt>
      <trkpt lat="45.36242" lon="5.65624">
        <ele>684.92</ele>
        <time>2017-11-26T13:12:02Z</time>
      </trkpt>
      <trkpt lat="45.36266" lon="5.65633">
        <ele>687.46</ele>
        <time>2017-11-26T13:12:11Z</time>
      </trkpt>
      <trkpt lat="45.3628" lon="5.65637">
        <ele>687.67</ele>
        <time>2017-11-26T13:12:17Z</time>
      </trkpt>
      <trkpt lat="45.36303" lon="5.65632">
        <ele>688.37</ele>
        <time>2017-11-26T13:12:29Z</time>
      </trkpt>
      <trkpt lat="45.36314" lon="5.6563">
        <ele>688.74</ele>
        <time>2017-11-26T13:12:34Z</time>
      </trkpt>
      <trkpt lat="45.36327" lon="5.65624">
        <ele>688.92</ele>
        <time>2017-11-26T13:12:40Z</time>
      </trkpt>
      <trkpt lat="45.3634" lon="5.65621">
        <ele>688.63</ele>
        <time>2017-11-26T13:12:46Z</time>
      </trkpt>
      <trkpt lat="45.36367" lon="5.65596">
        <ele>688.74</ele>
        <time>2017-11-26T13:12:58Z</time>
      </trkpt>
      <trkpt lat="45.36398" lon="5.656">
        <ele>687.39</ele>
        <time>2017-11-26T13:13:09Z</time>
      </trkpt>
      <trkpt lat="45.36418" lon="5.65605">
        <ele>686.19</ele>
        <time>2017-11-26T13:13:15Z</time>
      </trkpt>
      <trkpt lat="45.36421" lon="5.65607">
        <ele>686</ele>
        <time>2017-11-26T13:13:16Z</time>
      </trkpt>
      <trkpt lat="45.36424" lon="5.65609">
        <ele>685.82</ele>
        <time>2017-11-26T13:13:17Z</time>
      </trkpt>
      <trkpt lat="45.36428" lon="5.65611">
        <ele>685.67</ele>
        <time>2017-11-26T13:13:18Z</time>
      </trkpt>
      <trkpt lat="45.36431" lon="5.65613">
        <ele>685.39</ele>
        <time>2017-11-26T13:13:19Z</time>
      </trkpt>
      <trkpt lat="45.36449" lon="5.65615">
        <ele>684.15</ele>
        <time>2017-11-26T13:13:23Z</time>
      </trkpt>
      <trkpt lat="45.36452" lon="5.65614">
        <ele>683.86</ele>
        <time>2017-11-26T13:13:24Z</time>
      </trkpt>
      <trkpt lat="45.36455" lon="5.65612">
        <ele>682.97</ele>
        <time>2017-11-26T13:13:25Z</time>
      </trkpt>
      <trkpt lat="45.36458" lon="5.65608">
        <ele>682.55</ele>
        <time>2017-11-26T13:13:26Z</time>
      </trkpt>
      <trkpt lat="45.36462" lon="5.65605">
        <ele>682.2</ele>
        <time>2017-11-26T13:13:27Z</time>
      </trkpt>
      <trkpt lat="45.36489" lon="5.65587">
        <ele>682.27</ele>
        <time>2017-11-26T13:13:37Z</time>
      </trkpt>
      <trkpt lat="45.36496" lon="5.65576">
        <ele>682.48</ele>
        <time>2017-11-26T13:13:42Z</time>
      </trkpt>
      <trkpt lat="45.36498" lon="5.65574">
        <ele>682.44</ele>
        <time>2017-11-26T13:13:43Z</time>
      </trkpt>
      <trkpt lat="45.365" lon="5.65572">
        <ele>682.42</ele>
        <time>2017-11-26T13:13:44Z</time>
      </trkpt>
      <trkpt lat="45.36526" lon="5.65532">
        <ele>683.01</ele>
        <time>2017-11-26T13:13:59Z</time>
      </trkpt>
      <trkpt lat="45.36557" lon="5.6551">
        <ele>681.5</ele>
        <time>2017-11-26T13:14:11Z</time>
      </trkpt>
      <trkpt lat="45.36577" lon="5.65456">
        <ele>678.86</ele>
        <time>2017-11-26T13:14:21Z</time>
      </trkpt>
      <trkpt lat="45.36582" lon="5.65417">
        <ele>675.54</ele>
        <time>2017-11-26T13:14:30Z</time>
      </trkpt>
      <trkpt lat="45.36574" lon="5.65372">
        <ele>673.84</ele>
        <time>2017-11-26T13:14:39Z</time>
      </trkpt>
      <trkpt lat="45.36571" lon="5.6536">
        <ele>675.98</ele>
        <time>2017-11-26T13:14:44Z</time>
      </trkpt>
      <trkpt lat="45.36564" lon="5.65341">
        <ele>677.21</ele>
        <time>2017-11-26T13:14:52Z</time>
      </trkpt>
      <trkpt lat="45.36562" lon="5.65334">
        <ele>677.2</ele>
        <time>2017-11-26T13:15:12Z</time>
      </trkpt>
      <trkpt lat="45.36563" lon="5.65331">
        <ele>676.84</ele>
        <time>2017-11-26T13:15:54Z</time>
      </trkpt>
      <trkpt lat="45.36565" lon="5.65328">
        <ele>676.75</ele>
        <time>2017-11-26T13:15:58Z</time>
      </trkpt>
      <trkpt lat="45.36569" lon="5.65315">
        <ele>674.91</ele>
        <time>2017-11-26T13:16:04Z</time>
      </trkpt>
      <trkpt lat="45.36571" lon="5.65304">
        <ele>671.36</ele>
        <time>2017-11-26T13:16:09Z</time>
      </trkpt>
      <trkpt lat="45.36571" lon="5.65293">
        <ele>667.75</ele>
        <time>2017-11-26T13:16:13Z</time>
      </trkpt>
      <trkpt lat="45.36573" lon="5.65287">
        <ele>666.14</ele>
        <time>2017-11-26T13:16:15Z</time>
      </trkpt>
      <trkpt lat="45.3657" lon="5.65271">
        <ele>661.15</ele>
        <time>2017-11-26T13:16:20Z</time>
      </trkpt>
      <trkpt lat="45.36572" lon="5.65252">
        <ele>657.41</ele>
        <time>2017-11-26T13:16:24Z</time>
      </trkpt>
      <trkpt lat="45.36573" lon="5.65246">
        <ele>656.6</ele>
        <time>2017-11-26T13:16:25Z</time>
      </trkpt>
      <trkpt lat="45.36575" lon="5.65232">
        <ele>655.35</ele>
        <time>2017-11-26T13:16:28Z</time>
      </trkpt>
      <trkpt lat="45.3658" lon="5.65212">
        <ele>653.92</ele>
        <time>2017-11-26T13:16:39Z</time>
      </trkpt>
      <trkpt lat="45.36583" lon="5.65206">
        <ele>653.6</ele>
        <time>2017-11-26T13:17:02Z</time>
      </trkpt>
      <trkpt lat="45.36586" lon="5.65205">
        <ele>653.54</ele>
        <time>2017-11-26T13:17:04Z</time>
      </trkpt>
      <trkpt lat="45.36594" lon="5.65208">
        <ele>652.95</ele>
        <time>2017-11-26T13:17:08Z</time>
      </trkpt>
      <trkpt lat="45.36612" lon="5.65223">
        <ele>649.22</ele>
        <time>2017-11-26T13:17:16Z</time>
      </trkpt>
      <trkpt lat="45.36621" lon="5.65235">
        <ele>645.78</ele>
        <time>2017-11-26T13:17:20Z</time>
      </trkpt>
      <trkpt lat="45.36631" lon="5.65247">
        <ele>642.17</ele>
        <time>2017-11-26T13:17:24Z</time>
      </trkpt>
      <trkpt lat="45.3664" lon="5.6526">
        <ele>638.93</ele>
        <time>2017-11-26T13:17:28Z</time>
      </trkpt>
      <trkpt lat="45.36642" lon="5.65264">
        <ele>637.31</ele>
        <time>2017-11-26T13:17:29Z</time>
      </trkpt>
      <trkpt lat="45.36655" lon="5.65274">
        <ele>633.37</ele>
        <time>2017-11-26T13:17:34Z</time>
      </trkpt>
      <trkpt lat="45.36666" lon="5.65263">
        <ele>629.98</ele>
        <time>2017-11-26T13:17:39Z</time>
      </trkpt>
      <trkpt lat="45.36666" lon="5.6526">
        <ele>629.36</ele>
        <time>2017-11-26T13:17:40Z</time>
      </trkpt>
      <trkpt lat="45.36666" lon="5.65258">
        <ele>628.73</ele>
        <time>2017-11-26T13:17:41Z</time>
      </trkpt>
      <trkpt lat="45.36666" lon="5.65255">
        <ele>628.1</ele>
        <time>2017-11-26T13:17:42Z</time>
      </trkpt>
      <trkpt lat="45.36667" lon="5.65252">
        <ele>627.53</ele>
        <time>2017-11-26T13:17:43Z</time>
      </trkpt>
      <trkpt lat="45.3667" lon="5.65243">
        <ele>624.14</ele>
        <time>2017-11-26T13:17:49Z</time>
      </trkpt>
      <trkpt lat="45.36672" lon="5.65237">
        <ele>622.11</ele>
        <time>2017-11-26T13:18:15Z</time>
      </trkpt>
      <trkpt lat="45.36672" lon="5.65235">
        <ele>622.03</ele>
        <time>2017-11-26T13:18:38Z</time>
      </trkpt>
      <trkpt lat="45.36673" lon="5.65235">
        <ele>618.98</ele>
        <time>2017-11-26T13:19:01Z</time>
      </trkpt>
      <trkpt lat="45.36673" lon="5.65235">
        <ele>620.5</ele>
        <time>2017-11-26T13:19:02Z</time>
      </trkpt>
      <trkpt lat="45.36671" lon="5.65238">
        <ele>622.08</ele>
        <time>2017-11-26T13:19:42Z</time>
      </trkpt>
      <trkpt lat="45.3667" lon="5.65232">
        <ele>622.08</ele>
        <time>2017-11-26T13:19:56Z</time>
      </trkpt>
      <trkpt lat="45.36669" lon="5.65227">
        <ele>622.08</ele>
        <time>2017-11-26T13:19:58Z</time>
      </trkpt>
      <trkpt lat="45.36668" lon="5.65223">
        <ele>621.72</ele>
        <time>2017-11-26T13:19:59Z</time>
      </trkpt>
      <trkpt lat="45.36667" lon="5.65219">
        <ele>621.07</ele>
        <time>2017-11-26T13:20:00Z</time>
      </trkpt>
      <trkpt lat="45.36666" lon="5.65215">
        <ele>620.17</ele>
        <time>2017-11-26T13:20:01Z</time>
      </trkpt>
      <trkpt lat="45.36665" lon="5.65212">
        <ele>619.33</ele>
        <time>2017-11-26T13:20:02Z</time>
      </trkpt>
      <trkpt lat="45.36664" lon="5.6521">
        <ele>618.57</ele>
        <time>2017-11-26T13:20:03Z</time>
      </trkpt>
      <trkpt lat="45.36663" lon="5.65206">
        <ele>617.94</ele>
        <time>2017-11-26T13:20:04Z</time>
      </trkpt>
      <trkpt lat="45.36661" lon="5.65202">
        <ele>617.4</ele>
        <time>2017-11-26T13:20:05Z</time>
      </trkpt>
      <trkpt lat="45.3666" lon="5.65197">
        <ele>616.74</ele>
        <time>2017-11-26T13:20:06Z</time>
      </trkpt>
      <trkpt lat="45.36657" lon="5.65192">
        <ele>615.91</ele>
        <time>2017-11-26T13:20:07Z</time>
      </trkpt>
      <trkpt lat="45.36655" lon="5.65188">
        <ele>615.02</ele>
        <time>2017-11-26T13:20:08Z</time>
      </trkpt>
      <trkpt lat="45.36653" lon="5.65185">
        <ele>614.25</ele>
        <time>2017-11-26T13:20:09Z</time>
      </trkpt>
      <trkpt lat="45.36651" lon="5.65182">
        <ele>613.59</ele>
        <time>2017-11-26T13:20:10Z</time>
      </trkpt>
      <trkpt lat="45.3665" lon="5.65179">
        <ele>613.04</ele>
        <time>2017-11-26T13:20:11Z</time>
      </trkpt>
      <trkpt lat="45.36648" lon="5.65175">
        <ele>612.42</ele>
        <time>2017-11-26T13:20:12Z</time>
      </trkpt>
      <trkpt lat="45.36646" lon="5.65171">
        <ele>611.78</ele>
        <time>2017-11-26T13:20:13Z</time>
      </trkpt>
      <trkpt lat="45.36645" lon="5.65167">
        <ele>611.1</ele>
        <time>2017-11-26T13:20:14Z</time>
      </trkpt>
      <trkpt lat="45.36644" lon="5.65163">
        <ele>610.41</ele>
        <time>2017-11-26T13:20:15Z</time>
      </trkpt>
      <trkpt lat="45.36643" lon="5.6516">
        <ele>609.75</ele>
        <time>2017-11-26T13:20:16Z</time>
      </trkpt>
      <trkpt lat="45.36641" lon="5.65155">
        <ele>609.03</ele>
        <time>2017-11-26T13:20:17Z</time>
      </trkpt>
      <trkpt lat="45.36634" lon="5.65137">
        <ele>605.23</ele>
        <time>2017-11-26T13:20:21Z</time>
      </trkpt>
      <trkpt lat="45.36629" lon="5.65127">
        <ele>603.21</ele>
        <time>2017-11-26T13:20:24Z</time>
      </trkpt>
      <trkpt lat="45.36627" lon="5.65124">
        <ele>602.74</ele>
        <time>2017-11-26T13:20:25Z</time>
      </trkpt>
      <trkpt lat="45.36625" lon="5.6512">
        <ele>602.27</ele>
        <time>2017-11-26T13:20:26Z</time>
      </trkpt>
      <trkpt lat="45.36624" lon="5.65117">
        <ele>601.66</ele>
        <time>2017-11-26T13:20:27Z</time>
      </trkpt>
      <trkpt lat="45.36623" lon="5.65114">
        <ele>600.9</ele>
        <time>2017-11-26T13:20:28Z</time>
      </trkpt>
      <trkpt lat="45.36622" lon="5.65111">
        <ele>600.06</ele>
        <time>2017-11-26T13:20:29Z</time>
      </trkpt>
      <trkpt lat="45.36614" lon="5.65099">
        <ele>596.63</ele>
        <time>2017-11-26T13:20:33Z</time>
      </trkpt>
      <trkpt lat="45.36611" lon="5.65091">
        <ele>595.05</ele>
        <time>2017-11-26T13:20:35Z</time>
      </trkpt>
      <trkpt lat="45.36609" lon="5.65086">
        <ele>594.33</ele>
        <time>2017-11-26T13:20:36Z</time>
      </trkpt>
      <trkpt lat="45.36607" lon="5.65082">
        <ele>593.68</ele>
        <time>2017-11-26T13:20:37Z</time>
      </trkpt>
      <trkpt lat="45.36595" lon="5.65056">
        <ele>590.03</ele>
        <time>2017-11-26T13:20:42Z</time>
      </trkpt>
      <trkpt lat="45.36588" lon="5.65043">
        <ele>586.49</ele>
        <time>2017-11-26T13:20:45Z</time>
      </trkpt>
      <trkpt lat="45.36582" lon="5.65028">
        <ele>583.37</ele>
        <time>2017-11-26T13:20:49Z</time>
      </trkpt>
      <trkpt lat="45.36574" lon="5.65008">
        <ele>580.21</ele>
        <time>2017-11-26T13:20:53Z</time>
      </trkpt>
      <trkpt lat="45.36566" lon="5.64988">
        <ele>576.35</ele>
        <time>2017-11-26T13:20:57Z</time>
      </trkpt>
      <trkpt lat="45.36557" lon="5.6496">
        <ele>572.66</ele>
        <time>2017-11-26T13:21:02Z</time>
      </trkpt>
      <trkpt lat="45.3654" lon="5.6493">
        <ele>568.67</ele>
        <time>2017-11-26T13:21:09Z</time>
      </trkpt>
      <trkpt lat="45.36527" lon="5.64905">
        <ele>565.21</ele>
        <time>2017-11-26T13:21:15Z</time>
      </trkpt>
      <trkpt lat="45.36513" lon="5.6488">
        <ele>561.79</ele>
        <time>2017-11-26T13:21:21Z</time>
      </trkpt>
      <trkpt lat="45.36511" lon="5.64876">
        <ele>559.1</ele>
        <time>2017-11-26T13:21:34Z</time>
      </trkpt>
      <trkpt lat="45.36503" lon="5.64866">
        <ele>558.77</ele>
        <time>2017-11-26T13:22:11Z</time>
      </trkpt>
      <trkpt lat="45.36501" lon="5.64863">
        <ele>558.67</ele>
        <time>2017-11-26T13:22:12Z</time>
      </trkpt>
      <trkpt lat="45.36495" lon="5.64842">
        <ele>555.19</ele>
        <time>2017-11-26T13:22:18Z</time>
      </trkpt>
      <trkpt lat="45.36492" lon="5.64829">
        <ele>552.17</ele>
        <time>2017-11-26T13:22:22Z</time>
      </trkpt>
      <trkpt lat="45.36487" lon="5.64806">
        <ele>548.7</ele>
        <time>2017-11-26T13:22:28Z</time>
      </trkpt>
      <trkpt lat="45.36485" lon="5.64787">
        <ele>545</ele>
        <time>2017-11-26T13:22:33Z</time>
      </trkpt>
      <trkpt lat="45.36482" lon="5.64772">
        <ele>541.52</ele>
        <time>2017-11-26T13:22:37Z</time>
      </trkpt>
      <trkpt lat="45.36479" lon="5.64757">
        <ele>537.85</ele>
        <time>2017-11-26T13:22:42Z</time>
      </trkpt>
      <trkpt lat="45.36473" lon="5.6474">
        <ele>533.5</ele>
        <time>2017-11-26T13:22:47Z</time>
      </trkpt>
      <trkpt lat="45.3647" lon="5.64726">
        <ele>530.02</ele>
        <time>2017-11-26T13:22:51Z</time>
      </trkpt>
      <trkpt lat="45.36466" lon="5.64708">
        <ele>526.43</ele>
        <time>2017-11-26T13:22:55Z</time>
      </trkpt>
      <trkpt lat="45.36462" lon="5.64696">
        <ele>523.19</ele>
        <time>2017-11-26T13:22:58Z</time>
      </trkpt>
      <trkpt lat="45.36459" lon="5.64682">
        <ele>519.98</ele>
        <time>2017-11-26T13:23:01Z</time>
      </trkpt>
      <trkpt lat="45.36461" lon="5.64663">
        <ele>516.36</ele>
        <time>2017-11-26T13:23:05Z</time>
      </trkpt>
      <trkpt lat="45.36463" lon="5.64643">
        <ele>512.93</ele>
        <time>2017-11-26T13:23:10Z</time>
      </trkpt>
      <trkpt lat="45.36464" lon="5.64638">
        <ele>511.48</ele>
        <time>2017-11-26T13:23:12Z</time>
      </trkpt>
      <trkpt lat="45.36464" lon="5.64624">
        <ele>508.23</ele>
        <time>2017-11-26T13:23:23Z</time>
      </trkpt>
      <trkpt lat="45.36463" lon="5.6462">
        <ele>508.11</ele>
        <time>2017-11-26T13:24:03Z</time>
      </trkpt>
      <trkpt lat="45.36462" lon="5.64619">
        <ele>507.87</ele>
        <time>2017-11-26T13:24:32Z</time>
      </trkpt>
      <trkpt lat="45.36464" lon="5.64618">
        <ele>507.87</ele>
        <time>2017-11-26T13:25:01Z</time>
      </trkpt>
      <trkpt lat="45.36469" lon="5.64624">
        <ele>507.87</ele>
        <time>2017-11-26T13:25:05Z</time>
      </trkpt>
      <trkpt lat="45.3648" lon="5.64656">
        <ele>509.57</ele>
        <time>2017-11-26T13:25:20Z</time>
      </trkpt>
      <trkpt lat="45.36494" lon="5.6468">
        <ele>511.01</ele>
        <time>2017-11-26T13:25:33Z</time>
      </trkpt>
      <trkpt lat="45.36504" lon="5.64692">
        <ele>511.39</ele>
        <time>2017-11-26T13:25:41Z</time>
      </trkpt>
      <trkpt lat="45.36527" lon="5.64719">
        <ele>513.45</ele>
        <time>2017-11-26T13:25:58Z</time>
      </trkpt>
      <trkpt lat="45.36546" lon="5.64747">
        <ele>514.22</ele>
        <time>2017-11-26T13:26:11Z</time>
      </trkpt>
      <trkpt lat="45.36571" lon="5.64782">
        <ele>513.01</ele>
        <time>2017-11-26T13:26:22Z</time>
      </trkpt>
      <trkpt lat="45.3659" lon="5.64801">
        <ele>512.44</ele>
        <time>2017-11-26T13:26:31Z</time>
      </trkpt>
      <trkpt lat="45.36618" lon="5.64822">
        <ele>513.5</ele>
        <time>2017-11-26T13:26:43Z</time>
      </trkpt>
      <trkpt lat="45.36635" lon="5.64845">
        <ele>509.61</ele>
        <time>2017-11-26T13:26:53Z</time>
      </trkpt>
      <trkpt lat="45.36645" lon="5.64855">
        <ele>506.59</ele>
        <time>2017-11-26T13:26:57Z</time>
      </trkpt>
      <trkpt lat="45.36657" lon="5.64866">
        <ele>502.65</ele>
        <time>2017-11-26T13:27:01Z</time>
      </trkpt>
      <trkpt lat="45.36668" lon="5.64872">
        <ele>499.79</ele>
        <time>2017-11-26T13:27:04Z</time>
      </trkpt>
      <trkpt lat="45.36673" lon="5.64874">
        <ele>499.1</ele>
        <time>2017-11-26T13:27:05Z</time>
      </trkpt>
      <trkpt lat="45.36678" lon="5.64875">
        <ele>498.44</ele>
        <time>2017-11-26T13:27:06Z</time>
      </trkpt>
      <trkpt lat="45.36682" lon="5.64877">
        <ele>497.77</ele>
        <time>2017-11-26T13:27:07Z</time>
      </trkpt>
      <trkpt lat="45.36687" lon="5.64878">
        <ele>497.06</ele>
        <time>2017-11-26T13:27:08Z</time>
      </trkpt>
      <trkpt lat="45.36691" lon="5.64881">
        <ele>496.37</ele>
        <time>2017-11-26T13:27:09Z</time>
      </trkpt>
      <trkpt lat="45.36695" lon="5.64884">
        <ele>495.81</ele>
        <time>2017-11-26T13:27:10Z</time>
      </trkpt>
      <trkpt lat="45.36699" lon="5.64888">
        <ele>495.37</ele>
        <time>2017-11-26T13:27:11Z</time>
      </trkpt>
      <trkpt lat="45.36703" lon="5.64891">
        <ele>495.1</ele>
        <time>2017-11-26T13:27:12Z</time>
      </trkpt>
      <trkpt lat="45.36707" lon="5.64893">
        <ele>494.85</ele>
        <time>2017-11-26T13:27:13Z</time>
      </trkpt>
      <trkpt lat="45.36712" lon="5.64894">
        <ele>494.6</ele>
        <time>2017-11-26T13:27:14Z</time>
      </trkpt>
      <trkpt lat="45.36716" lon="5.64895">
        <ele>494.34</ele>
        <time>2017-11-26T13:27:15Z</time>
      </trkpt>
      <trkpt lat="45.36758" lon="5.64906">
        <ele>491.74</ele>
        <time>2017-11-26T13:27:27Z</time>
      </trkpt>
      <trkpt lat="45.36765" lon="5.64907">
        <ele>489.9</ele>
        <time>2017-11-26T13:27:29Z</time>
      </trkpt>
      <trkpt lat="45.36767" lon="5.64909">
        <ele>489.01</ele>
        <time>2017-11-26T13:27:30Z</time>
      </trkpt>
      <trkpt lat="45.36775" lon="5.64914">
        <ele>485.04</ele>
        <time>2017-11-26T13:27:34Z</time>
      </trkpt>
      <trkpt lat="45.36784" lon="5.64921">
        <ele>482</ele>
        <time>2017-11-26T13:27:37Z</time>
      </trkpt>
      <trkpt lat="45.36795" lon="5.64929">
        <ele>478.86</ele>
        <time>2017-11-26T13:27:40Z</time>
      </trkpt>
      <trkpt lat="45.36808" lon="5.64936">
        <ele>475.19</ele>
        <time>2017-11-26T13:27:43Z</time>
      </trkpt>
      <trkpt lat="45.36816" lon="5.64944">
        <ele>473.35</ele>
        <time>2017-11-26T13:27:45Z</time>
      </trkpt>
      <trkpt lat="45.36819" lon="5.64947">
        <ele>472.45</ele>
        <time>2017-11-26T13:27:46Z</time>
      </trkpt>
      <trkpt lat="45.36824" lon="5.64951">
        <ele>471.65</ele>
        <time>2017-11-26T13:27:47Z</time>
      </trkpt>
      <trkpt lat="45.36833" lon="5.64958">
        <ele>470.27</ele>
        <time>2017-11-26T13:27:49Z</time>
      </trkpt>
      <trkpt lat="45.36837" lon="5.64962">
        <ele>469.58</ele>
        <time>2017-11-26T13:27:50Z</time>
      </trkpt>
      <trkpt lat="45.36857" lon="5.6498">
        <ele>466.36</ele>
        <time>2017-11-26T13:27:54Z</time>
      </trkpt>
      <trkpt lat="45.36862" lon="5.64985">
        <ele>465.33</ele>
        <time>2017-11-26T13:27:55Z</time>
      </trkpt>
      <trkpt lat="45.36866" lon="5.6499">
        <ele>464.22</ele>
        <time>2017-11-26T13:27:56Z</time>
      </trkpt>
      <trkpt lat="45.36871" lon="5.64994">
        <ele>463.15</ele>
        <time>2017-11-26T13:27:57Z</time>
      </trkpt>
      <trkpt lat="45.36876" lon="5.64999">
        <ele>462.26</ele>
        <time>2017-11-26T13:27:58Z</time>
      </trkpt>
      <trkpt lat="45.36881" lon="5.65005">
        <ele>461.41</ele>
        <time>2017-11-26T13:27:59Z</time>
      </trkpt>
      <trkpt lat="45.36886" lon="5.65011">
        <ele>460.55</ele>
        <time>2017-11-26T13:28:00Z</time>
      </trkpt>
      <trkpt lat="45.36891" lon="5.65018">
        <ele>459.69</ele>
        <time>2017-11-26T13:28:01Z</time>
      </trkpt>
      <trkpt lat="45.369" lon="5.65033">
        <ele>458.43</ele>
        <time>2017-11-26T13:28:03Z</time>
      </trkpt>
      <trkpt lat="45.36902" lon="5.65039">
        <ele>457.92</ele>
        <time>2017-11-26T13:28:04Z</time>
      </trkpt>
      <trkpt lat="45.36908" lon="5.65055">
        <ele>459.92</ele>
        <time>2017-11-26T13:28:13Z</time>
      </trkpt>
      <trkpt lat="45.36912" lon="5.65072">
        <ele>463.15</ele>
        <time>2017-11-26T13:28:21Z</time>
      </trkpt>
      <trkpt lat="45.36915" lon="5.65103">
        <ele>466.04</ele>
        <time>2017-11-26T13:28:37Z</time>
      </trkpt>
      <trkpt lat="45.36934" lon="5.65144">
        <ele>465.72</ele>
        <time>2017-11-26T13:28:52Z</time>
      </trkpt>
      <trkpt lat="45.36956" lon="5.65163">
        <ele>463.64</ele>
        <time>2017-11-26T13:28:59Z</time>
      </trkpt>
      <trkpt lat="45.36961" lon="5.65166">
        <ele>463.15</ele>
        <time>2017-11-26T13:29:00Z</time>
      </trkpt>
      <trkpt lat="45.36965" lon="5.65168">
        <ele>462.65</ele>
        <time>2017-11-26T13:29:01Z</time>
      </trkpt>
      <trkpt lat="45.36992" lon="5.65189">
        <ele>459.26</ele>
        <time>2017-11-26T13:29:08Z</time>
      </trkpt>
      <trkpt lat="45.36995" lon="5.65192">
        <ele>458.91</ele>
        <time>2017-11-26T13:29:09Z</time>
      </trkpt>
      <trkpt lat="45.36999" lon="5.65196">
        <ele>458.65</ele>
        <time>2017-11-26T13:29:10Z</time>
      </trkpt>
      <trkpt lat="45.37002" lon="5.652">
        <ele>458.48</ele>
        <time>2017-11-26T13:29:11Z</time>
      </trkpt>
      <trkpt lat="45.37006" lon="5.65204">
        <ele>458.32</ele>
        <time>2017-11-26T13:29:12Z</time>
      </trkpt>
      <trkpt lat="45.37009" lon="5.65207">
        <ele>458.04</ele>
        <time>2017-11-26T13:29:13Z</time>
      </trkpt>
      <trkpt lat="45.37013" lon="5.65211">
        <ele>457.64</ele>
        <time>2017-11-26T13:29:14Z</time>
      </trkpt>
      <trkpt lat="45.37016" lon="5.65214">
        <ele>457.14</ele>
        <time>2017-11-26T13:29:15Z</time>
      </trkpt>
      <trkpt lat="45.37019" lon="5.65217">
        <ele>456.61</ele>
        <time>2017-11-26T13:29:16Z</time>
      </trkpt>
      <trkpt lat="45.37022" lon="5.65219">
        <ele>455.99</ele>
        <time>2017-11-26T13:29:17Z</time>
      </trkpt>
      <trkpt lat="45.37026" lon="5.65222">
        <ele>455.28</ele>
        <time>2017-11-26T13:29:18Z</time>
      </trkpt>
      <trkpt lat="45.37029" lon="5.65223">
        <ele>453.96</ele>
        <time>2017-11-26T13:29:19Z</time>
      </trkpt>
      <trkpt lat="45.37033" lon="5.65222">
        <ele>453.43</ele>
        <time>2017-11-26T13:29:20Z</time>
      </trkpt>
      <trkpt lat="45.37035" lon="5.65221">
        <ele>452.93</ele>
        <time>2017-11-26T13:29:21Z</time>
      </trkpt>
      <trkpt lat="45.37038" lon="5.65221">
        <ele>450.79</ele>
        <time>2017-11-26T13:29:33Z</time>
      </trkpt>
      <trkpt lat="45.37044" lon="5.6522">
        <ele>450.67</ele>
        <time>2017-11-26T13:29:46Z</time>
      </trkpt>
      <trkpt lat="45.37047" lon="5.65219">
        <ele>450.58</ele>
        <time>2017-11-26T13:29:47Z</time>
      </trkpt>
      <trkpt lat="45.3705" lon="5.65216">
        <ele>450.47</ele>
        <time>2017-11-26T13:29:48Z</time>
      </trkpt>
      <trkpt lat="45.37052" lon="5.65214">
        <ele>450.28</ele>
        <time>2017-11-26T13:29:49Z</time>
      </trkpt>
      <trkpt lat="45.37054" lon="5.65213">
        <ele>450.04</ele>
        <time>2017-11-26T13:29:50Z</time>
      </trkpt>
      <trkpt lat="45.37056" lon="5.65211">
        <ele>449.83</ele>
        <time>2017-11-26T13:29:51Z</time>
      </trkpt>
      <trkpt lat="45.37057" lon="5.65209">
        <ele>449.68</ele>
        <time>2017-11-26T13:29:52Z</time>
      </trkpt>
      <trkpt lat="45.37059" lon="5.65206">
        <ele>449.58</ele>
        <time>2017-11-26T13:29:53Z</time>
      </trkpt>
      <trkpt lat="45.37061" lon="5.65203">
        <ele>449.51</ele>
        <time>2017-11-26T13:29:54Z</time>
      </trkpt>
      <trkpt lat="45.37064" lon="5.652">
        <ele>449.4</ele>
        <time>2017-11-26T13:29:55Z</time>
      </trkpt>
      <trkpt lat="45.37071" lon="5.65192">
        <ele>448.95</ele>
        <time>2017-11-26T13:29:57Z</time>
      </trkpt>
      <trkpt lat="45.37073" lon="5.65187">
        <ele>448.65</ele>
        <time>2017-11-26T13:29:58Z</time>
      </trkpt>
      <trkpt lat="45.37075" lon="5.65184">
        <ele>448.2</ele>
        <time>2017-11-26T13:29:59Z</time>
      </trkpt>
      <trkpt lat="45.3709" lon="5.65165">
        <ele>444.76</ele>
        <time>2017-11-26T13:30:04Z</time>
      </trkpt>
      <trkpt lat="45.37107" lon="5.65152">
        <ele>441.29</ele>
        <time>2017-11-26T13:30:08Z</time>
      </trkpt>
      <trkpt lat="45.37112" lon="5.6515">
        <ele>440.47</ele>
        <time>2017-11-26T13:30:09Z</time>
      </trkpt>
      <trkpt lat="45.37121" lon="5.65146">
        <ele>438.28</ele>
        <time>2017-11-26T13:30:11Z</time>
      </trkpt>
      <trkpt lat="45.37124" lon="5.65142">
        <ele>437.07</ele>
        <time>2017-11-26T13:30:12Z</time>
      </trkpt>
      <trkpt lat="45.37135" lon="5.6513">
        <ele>433.62</ele>
        <time>2017-11-26T13:30:15Z</time>
      </trkpt>
      <trkpt lat="45.37146" lon="5.65121">
        <ele>430.52</ele>
        <time>2017-11-26T13:30:18Z</time>
      </trkpt>
      <trkpt lat="45.3716" lon="5.65107">
        <ele>426.77</ele>
        <time>2017-11-26T13:30:22Z</time>
      </trkpt>
      <trkpt lat="45.37171" lon="5.65097">
        <ele>424.26</ele>
        <time>2017-11-26T13:30:25Z</time>
      </trkpt>
      <trkpt lat="45.37188" lon="5.65085">
        <ele>421.02</ele>
        <time>2017-11-26T13:30:29Z</time>
      </trkpt>
      <trkpt lat="45.37198" lon="5.65078">
        <ele>419.5</ele>
        <time>2017-11-26T13:30:31Z</time>
      </trkpt>
      <trkpt lat="45.37216" lon="5.65063">
        <ele>416.23</ele>
        <time>2017-11-26T13:30:35Z</time>
      </trkpt>
      <trkpt lat="45.37246" lon="5.65044">
        <ele>413.52</ele>
        <time>2017-11-26T13:30:47Z</time>
      </trkpt>
      <trkpt lat="45.37272" lon="5.65022">
        <ele>413.34</ele>
        <time>2017-11-26T13:31:01Z</time>
      </trkpt>
      <trkpt lat="45.37306" lon="5.64995">
        <ele>413.78</ele>
        <time>2017-11-26T13:31:18Z</time>
      </trkpt>
      <trkpt lat="45.37338" lon="5.64969">
        <ele>413.53</ele>
        <time>2017-11-26T13:31:34Z</time>
      </trkpt>
      <trkpt lat="45.3737" lon="5.64936">
        <ele>411.27</ele>
        <time>2017-11-26T13:31:46Z</time>
      </trkpt>
      <trkpt lat="45.37378" lon="5.64927">
        <ele>410.45</ele>
        <time>2017-11-26T13:31:48Z</time>
      </trkpt>
      <trkpt lat="45.37382" lon="5.64922">
        <ele>410.15</ele>
        <time>2017-11-26T13:31:49Z</time>
      </trkpt>
      <trkpt lat="45.37385" lon="5.64918">
        <ele>409.87</ele>
        <time>2017-11-26T13:31:50Z</time>
      </trkpt>
      <trkpt lat="45.37388" lon="5.64916">
        <ele>409.6</ele>
        <time>2017-11-26T13:31:51Z</time>
      </trkpt>
      <trkpt lat="45.37391" lon="5.64914">
        <ele>409.42</ele>
        <time>2017-11-26T13:31:52Z</time>
      </trkpt>
      <trkpt lat="45.37393" lon="5.64913">
        <ele>409.32</ele>
        <time>2017-11-26T13:31:53Z</time>
      </trkpt>
      <trkpt lat="45.37394" lon="5.64913">
        <ele>409.27</ele>
        <time>2017-11-26T13:31:54Z</time>
      </trkpt>
      <trkpt lat="45.37421" lon="5.64895">
        <ele>409.45</ele>
        <time>2017-11-26T13:32:08Z</time>
      </trkpt>
      <trkpt lat="45.37453" lon="5.64883">
        <ele>409.33</ele>
        <time>2017-11-26T13:32:24Z</time>
      </trkpt>
      <trkpt lat="45.37474" lon="5.64868">
        <ele>409.16</ele>
        <time>2017-11-26T13:32:35Z</time>
      </trkpt>
      <trkpt lat="45.37499" lon="5.64827">
        <ele>406.05</ele>
        <time>2017-11-26T13:32:47Z</time>
      </trkpt>
      <trkpt lat="45.3751" lon="5.64813">
        <ele>404.31</ele>
        <time>2017-11-26T13:32:51Z</time>
      </trkpt>
      <trkpt lat="45.37513" lon="5.64808">
        <ele>403.8</ele>
        <time>2017-11-26T13:32:52Z</time>
      </trkpt>
      <trkpt lat="45.37515" lon="5.64802">
        <ele>403.22</ele>
        <time>2017-11-26T13:32:53Z</time>
      </trkpt>
      <trkpt lat="45.37517" lon="5.64795">
        <ele>402.53</ele>
        <time>2017-11-26T13:32:54Z</time>
      </trkpt>
      <trkpt lat="45.37518" lon="5.64787">
        <ele>401.7</ele>
        <time>2017-11-26T13:32:55Z</time>
      </trkpt>
      <trkpt lat="45.37519" lon="5.64778">
        <ele>400.75</ele>
        <time>2017-11-26T13:32:56Z</time>
      </trkpt>
      <trkpt lat="45.37522" lon="5.64752">
        <ele>397.44</ele>
        <time>2017-11-26T13:32:59Z</time>
      </trkpt>
      <trkpt lat="45.37523" lon="5.64734">
        <ele>394.36</ele>
        <time>2017-11-26T13:33:01Z</time>
      </trkpt>
      <trkpt lat="45.37522" lon="5.64697">
        <ele>391.33</ele>
        <time>2017-11-26T13:33:06Z</time>
      </trkpt>
      <trkpt lat="45.37521" lon="5.64659">
        <ele>388.65</ele>
        <time>2017-11-26T13:33:12Z</time>
      </trkpt>
      <trkpt lat="45.37524" lon="5.64625">
        <ele>388.92</ele>
        <time>2017-11-26T13:33:22Z</time>
      </trkpt>
      <trkpt lat="45.37525" lon="5.64622">
        <ele>388.93</ele>
        <time>2017-11-26T13:33:23Z</time>
      </trkpt>
      <trkpt lat="45.37525" lon="5.6462">
        <ele>388.98</ele>
        <time>2017-11-26T13:33:24Z</time>
      </trkpt>
      <trkpt lat="45.37525" lon="5.64618">
        <ele>389.01</ele>
        <time>2017-11-26T13:33:25Z</time>
      </trkpt>
      <trkpt lat="45.37525" lon="5.64615">
        <ele>389.04</ele>
        <time>2017-11-26T13:33:26Z</time>
      </trkpt>
      <trkpt lat="45.37525" lon="5.64613">
        <ele>389.07</ele>
        <time>2017-11-26T13:33:27Z</time>
      </trkpt>
      <trkpt lat="45.37523" lon="5.64593">
        <ele>389.95</ele>
        <time>2017-11-26T13:33:37Z</time>
      </trkpt>
      <trkpt lat="45.37522" lon="5.64591">
        <ele>390.17</ele>
        <time>2017-11-26T13:33:38Z</time>
      </trkpt>
      <trkpt lat="45.3752" lon="5.64589">
        <ele>390.76</ele>
        <time>2017-11-26T13:33:41Z</time>
      </trkpt>
      <trkpt lat="45.37508" lon="5.64585">
        <ele>393.79</ele>
        <time>2017-11-26T13:33:52Z</time>
      </trkpt>
      <trkpt lat="45.37509" lon="5.64583">
        <ele>395.14</ele>
        <time>2017-11-26T13:34:07Z</time>
      </trkpt>
      <trkpt lat="45.37519" lon="5.64581">
        <ele>396.93</ele>
        <time>2017-11-26T13:34:24Z</time>
      </trkpt>
      <trkpt lat="45.37529" lon="5.64577">
        <ele>400.06</ele>
        <time>2017-11-26T13:34:41Z</time>
      </trkpt>
      <trkpt lat="45.37533" lon="5.64574">
        <ele>401.36</ele>
        <time>2017-11-26T13:34:50Z</time>
      </trkpt>
      <trkpt lat="45.37539" lon="5.64566">
        <ele>404.6</ele>
        <time>2017-11-26T13:35:08Z</time>
      </trkpt>
      <trkpt lat="45.37547" lon="5.64554">
        <ele>407.89</ele>
        <time>2017-11-26T13:35:25Z</time>
      </trkpt>
      <trkpt lat="45.37543" lon="5.64547">
        <ele>410.76</ele>
        <time>2017-11-26T13:35:43Z</time>
      </trkpt>
      <trkpt lat="45.37543" lon="5.64542">
        <ele>413.64</ele>
        <time>2017-11-26T13:35:59Z</time>
      </trkpt>
      <trkpt lat="45.37557" lon="5.64544">
        <ele>415.55</ele>
        <time>2017-11-26T13:36:15Z</time>
      </trkpt>
      <trkpt lat="45.37571" lon="5.64542">
        <ele>418.07</ele>
        <time>2017-11-26T13:36:30Z</time>
      </trkpt>
      <trkpt lat="45.37573" lon="5.64542">
        <ele>418.44</ele>
        <time>2017-11-26T13:36:32Z</time>
      </trkpt>
      <trkpt lat="45.37587" lon="5.64541">
        <ele>420.45</ele>
        <time>2017-11-26T13:36:44Z</time>
      </trkpt>
      <trkpt lat="45.37601" lon="5.6454">
        <ele>423.66</ele>
        <time>2017-11-26T13:36:57Z</time>
      </trkpt>
      <trkpt lat="45.37614" lon="5.64533">
        <ele>426.78</ele>
        <time>2017-11-26T13:37:09Z</time>
      </trkpt>
      <trkpt lat="45.37621" lon="5.6453">
        <ele>428.85</ele>
        <time>2017-11-26T13:37:17Z</time>
      </trkpt>
      <trkpt lat="45.37625" lon="5.64528">
        <ele>429.42</ele>
        <time>2017-11-26T13:37:20Z</time>
      </trkpt>
      <trkpt lat="45.37638" lon="5.64522">
        <ele>432.32</ele>
        <time>2017-11-26T13:37:36Z</time>
      </trkpt>
      <trkpt lat="45.37637" lon="5.64522">
        <ele>432.8</ele>
        <time>2017-11-26T13:38:11Z</time>
      </trkpt>
      <trkpt lat="45.37652" lon="5.64525">
        <ele>433.04</ele>
        <time>2017-11-26T13:38:22Z</time>
      </trkpt>
      <trkpt lat="45.3769" lon="5.64545">
        <ele>434.51</ele>
        <time>2017-11-26T13:38:40Z</time>
      </trkpt>
      <trkpt lat="45.37729" lon="5.64584">
        <ele>436.26</ele>
        <time>2017-11-26T13:39:02Z</time>
      </trkpt>
      <trkpt lat="45.37764" lon="5.64618">
        <ele>438.29</ele>
        <time>2017-11-26T13:39:21Z</time>
      </trkpt>
      <trkpt lat="45.37803" lon="5.64658">
        <ele>439.68</ele>
        <time>2017-11-26T13:39:39Z</time>
      </trkpt>
      <trkpt lat="45.37829" lon="5.64664">
        <ele>439.78</ele>
        <time>2017-11-26T13:39:49Z</time>
      </trkpt>
      <trkpt lat="45.37846" lon="5.64636">
        <ele>439.43</ele>
        <time>2017-11-26T13:40:01Z</time>
      </trkpt>
      <trkpt lat="45.37847" lon="5.64635">
        <ele>439.42</ele>
        <time>2017-11-26T13:40:02Z</time>
      </trkpt>
      <trkpt lat="45.37847" lon="5.64634">
        <ele>439.43</ele>
        <time>2017-11-26T13:40:05Z</time>
      </trkpt>
      <trkpt lat="45.37848" lon="5.64635">
        <ele>439.41</ele>
        <time>2017-11-26T13:40:06Z</time>
      </trkpt>
      <trkpt lat="45.37852" lon="5.64637">
        <ele>439.39</ele>
        <time>2017-11-26T13:40:17Z</time>
      </trkpt>
      <trkpt lat="45.37857" lon="5.64637">
        <ele>439.47</ele>
        <time>2017-11-26T13:40:34Z</time>
      </trkpt>
      <trkpt lat="45.37855" lon="5.64638">
        <ele>439.96</ele>
        <time>2017-11-26T13:41:01Z</time>
      </trkpt>
      <trkpt lat="45.37869" lon="5.64611">
        <ele>436.65</ele>
        <time>2017-11-26T13:53:50Z</time>
      </trkpt>
      <trkpt lat="45.37873" lon="5.64604">
        <ele>436.65</ele>
        <time>2017-11-26T13:54:07Z</time>
      </trkpt>
      <trkpt lat="45.37873" lon="5.64604">
        <ele>436.65</ele>
        <time>2017-11-26T13:54:09Z</time>
      </trkpt>
    </trkseg>
  </trk>
</gpx>